Wetterdaten: Montag, 16.01.2023
Datum Zeit Temp. A. Pool Temp. Temp. 5cm Feuchte A. Luftdruck Regen Wind Richtung Richtung Sonnenschein ET UV Solar Taupunkt Windchill Windben Empfang
16.01.2023 00:00 2,8 C 5,0 C 1,1 C 87 % 1009,8 hPa 0,0 l/m 7,6 km/h (2 Bft) S-SW 202 0 min 0,000 mm 0,0 UV-I 0 W/m 0,9 C 1,7 C 11,3 km/h (2 Bft) 100,00 %
16.01.2023 00:02 2,8 C 5,0 C 1,1 C 87 % 1009,7 hPa 0,0 l/m 8,5 km/h (2 Bft) S 188 0 min 0,000 mm 0,0 UV-I 0 W/m 0,9 C 0,9 C 11,3 km/h (2 Bft) 97,50 %
16.01.2023 00:04 2,8 C 5,0 C 1,1 C 86 % 1009,7 hPa 0,0 l/m 7,1 km/h (2 Bft) S-SW 198 0 min 0,000 mm 0,0 UV-I 0 W/m 0,7 C 2,1 C 9,7 km/h (2 Bft) 95,74 %
16.01.2023 00:06 2,8 C 5,0 C 1,1 C 86 % 1009,7 hPa 0,0 l/m 9,3 km/h (2 Bft) S-SW 192 0 min 0,000 mm 0,0 UV-I 0 W/m 0,7 C 0,2 C 12,9 km/h (3 Bft) 95,74 %
16.01.2023 00:08 2,8 C 5,0 C 1,1 C 86 % 1009,6 hPa 0,0 l/m 8,6 km/h (2 Bft) S 183 0 min 0,000 mm 0,0 UV-I 0 W/m 0,7 C 0,8 C 12,9 km/h (3 Bft) 97,87 %
16.01.2023 00:10 2,8 C 5,0 C 1,1 C 86 % 1009,6 hPa 0,0 l/m 7,5 km/h (2 Bft) S-SW 201 0 min 0,000 mm 0,0 UV-I 0 W/m 0,7 C 1,8 C 12,9 km/h (3 Bft) 98,00 %
16.01.2023 00:12 2,8 C 5,0 C 1,1 C 86 % 1009,6 hPa 0,0 l/m 8,9 km/h (2 Bft) S-SW 196 0 min 0,000 mm 0,0 UV-I 0 W/m 0,7 C 0,5 C 16,1 km/h (3 Bft) 92,68 %
16.01.2023 00:14 2,8 C 5,0 C 1,1 C 86 % 1009,5 hPa 0,0 l/m 7,5 km/h (2 Bft) S-SW 201 0 min 0,000 mm 0,0 UV-I 0 W/m 0,7 C 1,8 C 12,9 km/h (3 Bft) 97,37 %
16.01.2023 00:16 2,8 C 5,0 C 1,1 C 86 % 1009,5 hPa 0,0 l/m 8,1 km/h (2 Bft) S 186 0 min 0,000 mm 0,0 UV-I 0 W/m 0,7 C 1,2 C 11,3 km/h (2 Bft) 98,39 %
16.01.2023 00:18 2,8 C 5,0 C 1,1 C 86 % 1009,4 hPa 0,0 l/m 8,2 km/h (2 Bft) S 187 0 min 0,000 mm 0,0 UV-I 0 W/m 0,7 C 1,1 C 12,9 km/h (3 Bft) 94,74 %
16.01.2023 00:20 2,8 C 5,0 C 1,1 C 86 % 1009,3 hPa 0,0 l/m 9,8 km/h (2 Bft) S 189 0 min 0,000 mm 0,0 UV-I 0 W/m 0,7 C -0,2 C 14,5 km/h (3 Bft) 96,23 %
16.01.2023 00:22 2,8 C 5,0 C 1,1 C 86 % 1009,3 hPa 0,0 l/m 7,8 km/h (2 Bft) S 187 0 min 0,000 mm 0,0 UV-I 0 W/m 0,7 C 1,5 C 11,3 km/h (2 Bft) 97,73 %
16.01.2023 00:24 2,8 C 5,0 C 1,1 C 86 % 1009,2 hPa 0,0 l/m 8,0 km/h (2 Bft) S-SW 196 0 min 0,000 mm 0,0 UV-I 0 W/m 0,7 C 1,3 C 12,9 km/h (3 Bft) 96,43 %
16.01.2023 00:26 2,7 C 5,0 C 1,1 C 86 % 1009,2 hPa 0,0 l/m 6,9 km/h (2 Bft) S-SW 205 0 min 0,000 mm 0,0 UV-I 0 W/m 0,6 C 2,2 C 9,7 km/h (2 Bft) 100,00 %
16.01.2023 00:28 2,7 C 5,0 C 1,1 C 87 % 1009,2 hPa 0,0 l/m 6,3 km/h (2 Bft) S-SW 213 0 min 0,000 mm 0,0 UV-I 0 W/m 0,8 C 2,7 C 8,0 km/h (2 Bft) 100,00 %
16.01.2023 00:30 2,6 C 5,0 C 1,1 C 87 % 1009,2 hPa 0,0 l/m 6,1 km/h (2 Bft) S-SW 199 0 min 0,000 mm 0,0 UV-I 0 W/m 0,7 C 2,6 C 8,0 km/h (2 Bft) 100,00 %
16.01.2023 00:32 2,7 C 5,0 C 1,1 C 87 % 1009,2 hPa 0,0 l/m 7,0 km/h (2 Bft) S-SW 193 0 min 0,000 mm 0,0 UV-I 0 W/m 0,8 C 2,1 C 9,7 km/h (2 Bft) 100,00 %
16.01.2023 00:34 2,7 C 5,0 C 1,1 C 87 % 1009,2 hPa 0,0 l/m 6,7 km/h (2 Bft) S-SW 197 0 min 0,000 mm 0,0 UV-I 0 W/m 0,8 C 2,4 C 8,0 km/h (2 Bft) 97,87 %
16.01.2023 00:36 2,7 C 5,0 C 1,1 C 86 % 1009,2 hPa 0,0 l/m 6,4 km/h (2 Bft) S-SW 203 0 min 0,000 mm 0,0 UV-I 0 W/m 0,6 C 2,7 C 9,7 km/h (2 Bft) 100,00 %
16.01.2023 00:38 2,7 C 5,0 C 1,1 C 86 % 1009,2 hPa 0,0 l/m 7,4 km/h (2 Bft) S-SW 198 0 min 0,000 mm 0,0 UV-I 0 W/m 0,6 C 1,7 C 11,3 km/h (2 Bft) 100,00 %
16.01.2023 00:40 2,8 C 5,0 C 1,1 C 86 % 1009,2 hPa 0,0 l/m 8,4 km/h (2 Bft) S 186 0 min 0,000 mm 0,0 UV-I 0 W/m 0,7 C 0,9 C 12,9 km/h (3 Bft) 100,00 %
16.01.2023 00:42 2,8 C 5,0 C 1,1 C 86 % 1009,1 hPa 0,0 l/m 8,1 km/h (2 Bft) S-SW 193 0 min 0,000 mm 0,0 UV-I 0 W/m 0,7 C 1,2 C 12,9 km/h (3 Bft) 98,11 %
16.01.2023 00:44 2,8 C 5,0 C 1,1 C 86 % 1009,1 hPa 0,0 l/m 8,4 km/h (2 Bft) S 190 0 min 0,000 mm 0,0 UV-I 0 W/m 0,7 C 0,9 C 12,9 km/h (3 Bft) 98,11 %
16.01.2023 00:46 2,8 C 5,0 C 1,7 C 85 % 1009,0 hPa 0,0 l/m 8,3 km/h (2 Bft) S-SW 198 0 min 0,000 mm 0,0 UV-I 0 W/m 0,5 C 1,0 C 11,3 km/h (2 Bft) 100,00 %
16.01.2023 00:48 2,8 C 5,0 C 1,7 C 85 % 1009,0 hPa 0,0 l/m 8,0 km/h (2 Bft) S-SW 194 0 min 0,000 mm 0,0 UV-I 0 W/m 0,5 C 1,3 C 12,9 km/h (3 Bft) 97,56 %
16.01.2023 00:50 2,9 C 5,0 C 1,7 C 85 % 1009,1 hPa 0,0 l/m 8,0 km/h (2 Bft) S-SW 198 0 min 0,000 mm 0,0 UV-I 0 W/m 0,6 C 1,4 C 14,5 km/h (3 Bft) 100,00 %
16.01.2023 00:52 2,9 C 5,0 C 1,7 C 85 % 1009,1 hPa 0,0 l/m 6,6 km/h (2 Bft) S 190 0 min 0,000 mm 0,0 UV-I 0 W/m 0,6 C 2,7 C 11,3 km/h (2 Bft) 100,00 %
16.01.2023 00:54 2,8 C 5,0 C 1,1 C 85 % 1009,0 hPa 0,0 l/m 5,8 km/h (2 Bft) S-SW 208 0 min 0,000 mm 0,0 UV-I 0 W/m 0,5 C 2,8 C 11,3 km/h (2 Bft) 98,00 %
16.01.2023 00:56 2,8 C 5,0 C 1,7 C 85 % 1008,9 hPa 0,0 l/m 8,1 km/h (2 Bft) S-SW 209 0 min 0,000 mm 0,0 UV-I 0 W/m 0,5 C 1,2 C 12,9 km/h (3 Bft) 100,00 %
16.01.2023 00:58 2,9 C 5,0 C 1,1 C 85 % 1008,8 hPa 0,0 l/m 6,1 km/h (2 Bft) S 191 0 min 0,000 mm 0,0 UV-I 0 W/m 0,6 C 2,9 C 11,3 km/h (2 Bft) 100,00 %
16.01.2023 01:00 2,8 C 5,0 C 1,1 C 85 % 1008,8 hPa 0,0 l/m 6,5 km/h (2 Bft) S-SW 192 0 min 0,000 mm 0,0 UV-I 0 W/m 0,5 C 2,7 C 11,3 km/h (2 Bft) 100,00 %
16.01.2023 01:02 2,8 C 5,0 C 1,7 C 85 % 1008,8 hPa 0,0 l/m 6,4 km/h (2 Bft) S-SW 194 0 min 0,000 mm 0,0 UV-I 0 W/m 0,5 C 2,8 C 11,3 km/h (2 Bft) 100,00 %
16.01.2023 01:04 2,9 C 5,0 C 1,1 C 85 % 1008,8 hPa 0,0 l/m 7,3 km/h (2 Bft) S-SW 203 0 min 0,000 mm 0,0 UV-I 0 W/m 0,6 C 2,0 C 14,5 km/h (3 Bft) 100,00 %
16.01.2023 01:06 2,8 C 5,0 C 1,1 C 85 % 1008,8 hPa 0,0 l/m 4,7 km/h (1 Bft) S-SW 192 0 min 0,000 mm 0,0 UV-I 0 W/m 0,5 C 2,8 C 8,0 km/h (2 Bft) 100,00 %
16.01.2023 01:08 2,8 C 5,0 C 1,1 C 85 % 1008,8 hPa 0,0 l/m 5,6 km/h (1 Bft) S-SW 196 0 min 0,000 mm 0,0 UV-I 0 W/m 0,5 C 2,8 C 9,7 km/h (2 Bft) 95,12 %
16.01.2023 01:10 2,8 C 5,0 C 1,1 C 85 % 1008,8 hPa 0,0 l/m 6,2 km/h (2 Bft) S-SW 200 0 min 0,000 mm 0,0 UV-I 0 W/m 0,5 C 2,8 C 9,7 km/h (2 Bft) 100,00 %
16.01.2023 01:12 2,7 C 5,0 C 1,1 C 85 % 1008,7 hPa 0,0 l/m 6,7 km/h (2 Bft) S-SW 197 0 min 0,000 mm 0,0 UV-I 0 W/m 0,4 C 2,4 C 9,7 km/h (2 Bft) 98,08 %
16.01.2023 01:14 2,7 C 5,0 C 1,1 C 85 % 1008,7 hPa 0,0 l/m 7,6 km/h (2 Bft) S-SW 202 0 min 0,000 mm 0,0 UV-I 0 W/m 0,4 C 1,6 C 11,3 km/h (2 Bft) 97,87 %
16.01.2023 01:16 2,7 C 5,0 C 1,1 C 85 % 1008,7 hPa 0,0 l/m 8,9 km/h (2 Bft) S-SW 198 0 min 0,000 mm 0,0 UV-I 0 W/m 0,4 C 0,4 C 12,9 km/h (3 Bft) 93,62 %
16.01.2023 01:18 2,7 C 5,0 C 1,1 C 85 % 1008,6 hPa 0,0 l/m 7,6 km/h (2 Bft) S 186 0 min 0,000 mm 0,0 UV-I 0 W/m 0,4 C 1,6 C 12,9 km/h (3 Bft) 98,00 %
16.01.2023 01:20 2,8 C 5,0 C 1,1 C 85 % 1008,6 hPa 0,0 l/m 7,4 km/h (2 Bft) S-SW 200 0 min 0,000 mm 0,0 UV-I 0 W/m 0,5 C 1,8 C 12,9 km/h (3 Bft) 95,24 %
16.01.2023 01:22 2,8 C 5,0 C 1,1 C 85 % 1008,5 hPa 0,0 l/m 6,2 km/h (2 Bft) S-SW 201 0 min 0,000 mm 0,0 UV-I 0 W/m 0,5 C 2,8 C 11,3 km/h (2 Bft) 93,88 %
16.01.2023 01:24 2,8 C 5,0 C 1,1 C 85 % 1008,6 hPa 0,0 l/m 7,1 km/h (2 Bft) S-SW 195 0 min 0,000 mm 0,0 UV-I 0 W/m 0,5 C 2,1 C 9,7 km/h (2 Bft) 95,83 %
16.01.2023 01:26 2,8 C 5,0 C 1,1 C 85 % 1008,5 hPa 0,0 l/m 7,0 km/h (2 Bft) S-SW 211 0 min 0,000 mm 0,0 UV-I 0 W/m 0,5 C 2,2 C 11,3 km/h (2 Bft) 91,84 %
16.01.2023 01:28 2,8 C 5,0 C 1,1 C 85 % 1008,4 hPa 0,0 l/m 7,6 km/h (2 Bft) S-SW 204 0 min 0,000 mm 0,0 UV-I 0 W/m 0,5 C 1,7 C 12,9 km/h (3 Bft) 94,87 %
16.01.2023 01:30 2,8 C 5,0 C 1,1 C 85 % 1008,3 hPa 0,0 l/m 6,5 km/h (2 Bft) S-SW 202 0 min 0,000 mm 0,0 UV-I 0 W/m 0,5 C 2,7 C 9,7 km/h (2 Bft) 95,74 %
16.01.2023 01:32 2,8 C 5,0 C 1,1 C 85 % 1008,3 hPa 0,0 l/m 6,1 km/h (2 Bft) S-SW 206 0 min 0,000 mm 0,0 UV-I 0 W/m 0,5 C 2,8 C 8,0 km/h (2 Bft) 95,74 %
16.01.2023 01:34 2,8 C 5,0 C 1,1 C 85 % 1008,3 hPa 0,0 l/m 5,9 km/h (2 Bft) SW 217 0 min 0,000 mm 0,0 UV-I 0 W/m 0,5 C 2,8 C 8,0 km/h (2 Bft) 95,74 %
16.01.2023 01:36 2,7 C 5,0 C 1,1 C 85 % 1008,3 hPa 0,0 l/m 5,3 km/h (1 Bft) S-SW 210 0 min 0,000 mm 0,0 UV-I 0 W/m 0,4 C 2,7 C 8,0 km/h (2 Bft) 96,00 %
16.01.2023 01:38 2,7 C 5,0 C 1,1 C 85 % 1008,2 hPa 0,0 l/m 4,5 km/h (1 Bft) S-SW 209 0 min 0,000 mm 0,0 UV-I 0 W/m 0,4 C 2,7 C 6,4 km/h (2 Bft) 96,23 %
16.01.2023 01:40 2,7 C 5,0 C 1,1 C 85 % 1008,2 hPa 0,0 l/m 6,4 km/h (2 Bft) S-SW 193 0 min 0,000 mm 0,0 UV-I 0 W/m 0,4 C 2,7 C 8,0 km/h (2 Bft) 97,37 %
16.01.2023 01:42 2,7 C 5,0 C 1,1 C 85 % 1008,2 hPa 0,0 l/m 5,8 km/h (2 Bft) S-SW 198 0 min 0,000 mm 0,0 UV-I 0 W/m 0,4 C 2,7 C 8,0 km/h (2 Bft) 96,23 %
16.01.2023 01:44 2,7 C 5,0 C 1,1 C 85 % 1008,2 hPa 0,0 l/m 5,8 km/h (2 Bft) S-SW 198 0 min 0,000 mm 0,0 UV-I 0 W/m 0,4 C 2,7 C 9,7 km/h (2 Bft) 97,87 %
16.01.2023 01:46 2,7 C 5,0 C 1,1 C 84 % 1008,2 hPa 0,0 l/m 5,4 km/h (1 Bft) S-SW 205 0 min 0,000 mm 0,0 UV-I 0 W/m 0,3 C 2,7 C 6,4 km/h (2 Bft) 94,74 %
16.01.2023 01:48 2,8 C 5,0 C 1,1 C 84 % 1008,2 hPa 0,0 l/m 5,6 km/h (1 Bft) S-SW 202 0 min 0,000 mm 0,0 UV-I 0 W/m 0,4 C 2,8 C 8,0 km/h (2 Bft) 98,00 %
16.01.2023 01:50 2,8 C 5,0 C 1,1 C 84 % 1008,1 hPa 0,0 l/m 5,2 km/h (1 Bft) S 180 0 min 0,000 mm 0,0 UV-I 0 W/m 0,4 C 2,8 C 8,0 km/h (2 Bft) 96,00 %
16.01.2023 01:52 2,8 C 5,0 C 1,1 C 83 % 1008,0 hPa 0,0 l/m 6,0 km/h (2 Bft) S-SW 194 0 min 0,000 mm 0,0 UV-I 0 W/m 0,2 C 2,8 C 9,7 km/h (2 Bft) 95,12 %
16.01.2023 01:54 2,9 C 5,0 C 1,1 C 83 % 1008,0 hPa 0,0 l/m 6,0 km/h (2 Bft) S-SW 206 0 min 0,000 mm 0,0 UV-I 0 W/m 0,3 C 2,9 C 9,7 km/h (2 Bft) 98,11 %
16.01.2023 01:56 2,9 C 5,0 C 1,1 C 83 % 1008,0 hPa 0,0 l/m 5,2 km/h (1 Bft) S-SW 212 0 min 0,000 mm 0,0 UV-I 0 W/m 0,3 C 2,9 C 8,0 km/h (2 Bft) 96,00 %
16.01.2023 01:58 2,8 C 5,0 C 1,1 C 83 % 1008,0 hPa 0,0 l/m 4,5 km/h (1 Bft) S-SW 205 0 min 0,000 mm 0,0 UV-I 0 W/m 0,2 C 2,8 C 6,4 km/h (2 Bft) 97,37 %
16.01.2023 02:00 2,8 C 5,0 C 1,1 C 83 % 1008,0 hPa 0,0 l/m 3,2 km/h (1 Bft) S-SW 206 0 min 0,000 mm 0,0 UV-I 0 W/m 0,2 C 2,8 C 4,8 km/h (1 Bft) 97,87 %
16.01.2023 02:02 2,7 C 5,0 C 1,1 C 83 % 1008,0 hPa 0,0 l/m 2,7 km/h (1 Bft) S-SW 207 0 min 0,000 mm 0,0 UV-I 0 W/m 0,1 C 2,7 C 4,8 km/h (1 Bft) 98,11 %
16.01.2023 02:04 2,7 C 5,0 C 1,1 C 83 % 1008,0 hPa 0,0 l/m 2,9 km/h (1 Bft) S-SW 207 0 min 0,000 mm 0,0 UV-I 0 W/m 0,1 C 2,7 C 4,8 km/h (1 Bft) 97,96 %
16.01.2023 02:06 2,7 C 5,0 C 1,1 C 84 % 1007,9 hPa 0,0 l/m 3,6 km/h (1 Bft) S-SW 208 0 min 0,000 mm 0,0 UV-I 0 W/m 0,3 C 2,7 C 6,4 km/h (2 Bft) 100,00 %
16.01.2023 02:08 2,7 C 5,0 C 0,6 C 84 % 1007,9 hPa 0,0 l/m 2,7 km/h (1 Bft) S-SW 208 0 min 0,000 mm 0,0 UV-I 0 W/m 0,3 C 2,7 C 3,2 km/h (1 Bft) 98,46 %
16.01.2023 02:10 2,6 C 5,0 C 0,6 C 83 % 1007,9 hPa 0,0 l/m 3,2 km/h (1 Bft) S-SW 208 0 min 0,000 mm 0,0 UV-I 0 W/m 0,0 C 2,6 C 4,8 km/h (1 Bft) 98,00 %
16.01.2023 02:12 2,7 C 5,0 C 0,6 C 83 % 1007,8 hPa 0,0 l/m 3,0 km/h (1 Bft) S-SW 209 0 min 0,000 mm 0,0 UV-I 0 W/m 0,1 C 2,7 C 4,8 km/h (1 Bft) 100,00 %
16.01.2023 02:14 2,7 C 5,0 C 1,1 C 83 % 1007,8 hPa 0,0 l/m 4,1 km/h (1 Bft) S-SW 210 0 min 0,000 mm 0,0 UV-I 0 W/m 0,1 C 2,7 C 6,4 km/h (2 Bft) 100,00 %
16.01.2023 02:16 2,7 C 5,0 C 1,1 C 83 % 1007,8 hPa 0,0 l/m 3,2 km/h (1 Bft) S-SW 211 0 min 0,000 mm 0,0 UV-I 0 W/m 0,1 C 2,7 C 4,8 km/h (1 Bft) 94,34 %
16.01.2023 02:18 2,7 C 5,0 C 1,1 C 83 % 1007,8 hPa 0,0 l/m 3,7 km/h (1 Bft) S-SW 211 0 min 0,000 mm 0,0 UV-I 0 W/m 0,1 C 2,7 C 6,4 km/h (2 Bft) 97,87 %
16.01.2023 02:20 2,7 C 5,0 C 1,1 C 83 % 1007,7 hPa 0,0 l/m 4,5 km/h (1 Bft) S-SW 209 0 min 0,000 mm 0,0 UV-I 0 W/m 0,1 C 2,7 C 6,4 km/h (2 Bft) 100,00 %
16.01.2023 02:22 2,7 C 5,0 C 1,1 C 83 % 1007,8 hPa 0,0 l/m 5,6 km/h (1 Bft) SW 214 0 min 0,000 mm 0,0 UV-I 0 W/m 0,1 C 2,7 C 8,0 km/h (2 Bft) 97,87 %
16.01.2023 02:24 2,7 C 5,0 C 1,1 C 83 % 1007,7 hPa 0,0 l/m 5,9 km/h (2 Bft) S-SW 204 0 min 0,000 mm 0,0 UV-I 0 W/m 0,1 C 2,7 C 9,7 km/h (2 Bft) 100,00 %
16.01.2023 02:26 2,7 C 5,0 C 1,1 C 83 % 1007,7 hPa 0,0 l/m 5,0 km/h (1 Bft) S-SW 206 0 min 0,000 mm 0,0 UV-I 0 W/m 0,1 C 2,7 C 6,4 km/h (2 Bft) 100,00 %
16.01.2023 02:28 2,7 C 5,0 C 1,1 C 83 % 1007,6 hPa 0,0 l/m 5,5 km/h (1 Bft) S-SW 205 0 min 0,000 mm 0,0 UV-I 0 W/m 0,1 C 2,7 C 6,4 km/h (2 Bft) 100,00 %
16.01.2023 02:30 2,6 C 5,0 C 1,1 C 83 % 1007,6 hPa 0,0 l/m 5,5 km/h (1 Bft) S-SW 207 0 min 0,000 mm 0,0 UV-I 0 W/m 0,0 C 2,6 C 6,4 km/h (2 Bft) 100,00 %
16.01.2023 02:32 2,6 C 5,0 C 1,1 C 84 % 1007,6 hPa 0,0 l/m 5,4 km/h (1 Bft) S-SW 199 0 min 0,000 mm 0,0 UV-I 0 W/m 0,2 C 2,6 C 8,0 km/h (2 Bft) 92,68 %
16.01.2023 02:34 2,6 C 5,0 C 1,1 C 84 % 1007,5 hPa 0,0 l/m 4,1 km/h (1 Bft) S-SW 200 0 min 0,000 mm 0,0 UV-I 0 W/m 0,2 C 2,6 C 8,0 km/h (2 Bft) 98,00 %
16.01.2023 02:36 2,6 C 5,0 C 1,1 C 84 % 1007,5 hPa 0,0 l/m 4,4 km/h (1 Bft) S-SW 198 0 min 0,000 mm 0,0 UV-I 0 W/m 0,2 C 2,6 C 6,4 km/h (2 Bft) 97,37 %
16.01.2023 02:38 2,6 C 5,0 C 1,1 C 83 % 1007,4 hPa 0,0 l/m 4,8 km/h (1 Bft) S 190 0 min 0,000 mm 0,0 UV-I 0 W/m 0,0 C 2,6 C 6,4 km/h (2 Bft) 96,23 %
16.01.2023 02:40 2,6 C 5,0 C 1,1 C 83 % 1007,4 hPa 0,0 l/m 5,3 km/h (1 Bft) S 190 0 min 0,000 mm 0,0 UV-I 0 W/m 0,0 C 2,6 C 6,4 km/h (2 Bft) 97,87 %
16.01.2023 02:42 2,7 C 5,0 C 1,1 C 83 % 1007,3 hPa 0,0 l/m 5,9 km/h (2 Bft) S 184 0 min 0,000 mm 0,0 UV-I 0 W/m 0,1 C 2,7 C 8,0 km/h (2 Bft) 96,00 %
16.01.2023 02:44 2,6 C 5,0 C 1,1 C 83 % 1007,3 hPa 0,0 l/m 6,0 km/h (2 Bft) S-SW 192 0 min 0,000 mm 0,0 UV-I 0 W/m 0,0 C 2,6 C 8,0 km/h (2 Bft) 100,00 %
16.01.2023 02:46 2,7 C 5,0 C 1,1 C 83 % 1007,3 hPa 0,0 l/m 5,2 km/h (1 Bft) S-SW 192 0 min 0,000 mm 0,0 UV-I 0 W/m 0,1 C 2,7 C 6,4 km/h (2 Bft) 94,00 %
16.01.2023 02:48 2,7 C 5,0 C 1,1 C 82 % 1007,3 hPa 0,0 l/m 5,2 km/h (1 Bft) S 183 0 min 0,000 mm 0,0 UV-I 0 W/m -0,1 C 2,7 C 6,4 km/h (2 Bft) 98,11 %
16.01.2023 02:50 2,7 C 5,0 C 1,1 C 83 % 1007,3 hPa 0,0 l/m 6,5 km/h (2 Bft) S 184 0 min 0,000 mm 0,0 UV-I 0 W/m 0,1 C 2,6 C 9,7 km/h (2 Bft) 97,37 %
16.01.2023 02:52 2,6 C 5,0 C 1,1 C 83 % 1007,3 hPa 0,0 l/m 6,4 km/h (2 Bft) S 180 0 min 0,000 mm 0,0 UV-I 0 W/m 0,0 C 2,6 C 8,0 km/h (2 Bft) 100,00 %
16.01.2023 02:54 2,6 C 5,0 C 1,1 C 83 % 1007,2 hPa 0,0 l/m 5,2 km/h (1 Bft) S 186 0 min 0,000 mm 0,0 UV-I 0 W/m 0,0 C 2,6 C 8,0 km/h (2 Bft) 94,00 %
16.01.2023 02:56 2,5 C 5,0 C 1,1 C 84 % 1007,1 hPa 0,0 l/m 4,4 km/h (1 Bft) S 177 0 min 0,000 mm 0,0 UV-I 0 W/m 0,1 C 2,5 C 8,0 km/h (2 Bft) 97,56 %
16.01.2023 02:58 2,4 C 5,0 C 1,1 C 84 % 1007,1 hPa 0,0 l/m 3,1 km/h (1 Bft) S 177 0 min 0,000 mm 0,0 UV-I 0 W/m -0,0 C 2,4 C 6,4 km/h (2 Bft) 95,74 %
16.01.2023 03:00 2,4 C 5,0 C 1,1 C 84 % 1007,1 hPa 0,0 l/m 5,6 km/h (1 Bft) S-SW 192 0 min 0,000 mm 0,0 UV-I 0 W/m -0,0 C 2,4 C 8,0 km/h (2 Bft) 97,56 %
16.01.2023 03:02 2,6 C 5,0 C 1,1 C 84 % 1007,1 hPa 0,0 l/m 4,5 km/h (1 Bft) S 191 0 min 0,000 mm 0,0 UV-I 0 W/m 0,2 C 2,6 C 6,4 km/h (2 Bft) 98,11 %
16.01.2023 03:04 2,6 C 5,0 C 1,1 C 83 % 1007,0 hPa 0,0 l/m 5,3 km/h (1 Bft) S 182 0 min 0,000 mm 0,0 UV-I 0 W/m 0,0 C 2,6 C 8,0 km/h (2 Bft) 98,08 %
16.01.2023 03:06 2,7 C 5,0 C 1,1 C 82 % 1007,0 hPa 0,0 l/m 6,5 km/h (2 Bft) S 178 0 min 0,000 mm 0,0 UV-I 0 W/m -0,1 C 2,6 C 9,7 km/h (2 Bft) 94,74 %
16.01.2023 03:08 2,7 C 5,0 C 1,1 C 82 % 1007,0 hPa 0,0 l/m 4,9 km/h (1 Bft) S-SW 207 0 min 0,000 mm 0,0 UV-I 0 W/m -0,1 C 2,7 C 8,0 km/h (2 Bft) 96,00 %
16.01.2023 03:10 2,7 C 5,0 C 1,1 C 82 % 1006,9 hPa 0,0 l/m 4,3 km/h (1 Bft) S 185 0 min 0,000 mm 0,0 UV-I 0 W/m -0,1 C 2,7 C 6,4 km/h (2 Bft) 96,00 %
16.01.2023 03:12 2,6 C 5,0 C 1,1 C 83 % 1006,9 hPa 0,0 l/m 4,5 km/h (1 Bft) S-SW 196 0 min 0,000 mm 0,0 UV-I 0 W/m 0,0 C 2,6 C 6,4 km/h (2 Bft) 97,56 %
16.01.2023 03:14 2,6 C 5,0 C 1,1 C 83 % 1006,9 hPa 0,0 l/m 3,6 km/h (1 Bft) S-SW 196 0 min 0,000 mm 0,0 UV-I 0 W/m 0,0 C 2,6 C 6,4 km/h (2 Bft) 98,00 %
16.01.2023 03:16 2,4 C 5,0 C 1,1 C 84 % 1006,8 hPa 0,0 l/m 3,5 km/h (1 Bft) S-SW 197 0 min 0,000 mm 0,0 UV-I 0 W/m -0,0 C 2,4 C 4,8 km/h (1 Bft) 95,74 %
16.01.2023 03:18 2,3 C 5,0 C 1,1 C 85 % 1006,8 hPa 0,0 l/m 3,3 km/h (1 Bft) S-SW 197 0 min 0,000 mm 0,0 UV-I 0 W/m 0,0 C 2,3 C 4,8 km/h (1 Bft) 94,87 %
16.01.2023 03:20 2,3 C 5,0 C 0,6 C 85 % 1006,8 hPa 0,0 l/m 4,6 km/h (1 Bft) S-SW 196 0 min 0,000 mm 0,0 UV-I 0 W/m 0,0 C 2,3 C 6,4 km/h (2 Bft) 98,08 %
16.01.2023 03:22 2,3 C 5,0 C 0,6 C 85 % 1006,7 hPa 0,0 l/m 3,2 km/h (1 Bft) S-SW 196 0 min 0,000 mm 0,0 UV-I 0 W/m 0,0 C 2,3 C 4,8 km/h (1 Bft) 97,87 %
16.01.2023 03:24 2,2 C 5,0 C 0,6 C 86 % 1006,7 hPa 0,0 l/m 2,8 km/h (1 Bft) S-SW 196 0 min 0,000 mm 0,0 UV-I 0 W/m 0,1 C 2,2 C 4,8 km/h (1 Bft) 98,11 %
16.01.2023 03:26 2,1 C 5,0 C 0,6 C 86 % 1006,6 hPa 0,0 l/m 2,7 km/h (1 Bft) S-SW 196 0 min 0,000 mm 0,0 UV-I 0 W/m 0,0 C 2,1 C 3,2 km/h (1 Bft) 95,74 %
16.01.2023 03:28 2,0 C 5,0 C 0,6 C 87 % 1006,6 hPa 0,0 l/m 2,9 km/h (1 Bft) S-SW 196 0 min 0,000 mm 0,0 UV-I 0 W/m 0,1 C 2,0 C 3,2 km/h (1 Bft) 97,44 %
16.01.2023 03:30 1,9 C 5,0 C 0,6 C 87 % 1006,6 hPa 0,0 l/m 3,3 km/h (1 Bft) S-SW 196 0 min 0,000 mm 0,0 UV-I 0 W/m -0,0 C 1,9 C 4,8 km/h (1 Bft) 96,36 %
16.01.2023 03:32 1,9 C 5,0 C 0,6 C 87 % 1006,6 hPa 0,0 l/m 3,2 km/h (1 Bft) S-SW 196 0 min 0,000 mm 0,0 UV-I 0 W/m -0,0 C 1,9 C 4,8 km/h (1 Bft) 97,87 %
16.01.2023 03:34 2,0 C 5,0 C 0,6 C 87 % 1006,5 hPa 0,0 l/m 2,9 km/h (1 Bft) S-SW 196 0 min 0,000 mm 0,0 UV-I 0 W/m 0,1 C 2,0 C 4,8 km/h (1 Bft) 97,44 %
16.01.2023 03:36 1,9 C 5,0 C 0,6 C 88 % 1006,4 hPa 0,0 l/m 2,0 km/h (1 Bft) S-SW 196 0 min 0,000 mm 0,0 UV-I 0 W/m 0,1 C 1,9 C 3,2 km/h (1 Bft) 96,00 %
16.01.2023 03:38 1,8 C 5,0 C 0,6 C 89 % 1006,4 hPa 0,0 l/m 3,2 km/h (1 Bft) S-SW 196 0 min 0,000 mm 0,0 UV-I 0 W/m 0,2 C 1,8 C 4,8 km/h (1 Bft) 95,74 %
16.01.2023 03:40 1,7 C 5,0 C 0,6 C 89 % 1006,4 hPa 0,0 l/m 2,4 km/h (1 Bft) S-SW 196 0 min 0,000 mm 0,0 UV-I 0 W/m 0,1 C 1,7 C 3,2 km/h (1 Bft) 97,87 %
16.01.2023 03:42 1,7 C 5,0 C 0,6 C 89 % 1006,3 hPa 0,0 l/m 2,0 km/h (1 Bft) S-SW 196 0 min 0,000 mm 0,0 UV-I 0 W/m 0,1 C 1,7 C 3,2 km/h (1 Bft) 97,87 %
16.01.2023 03:44 1,7 C 5,0 C 0,6 C 89 % 1006,3 hPa 0,0 l/m 1,8 km/h (1 Bft) S-SW 195 0 min 0,000 mm 0,0 UV-I 0 W/m 0,1 C 1,7 C 3,2 km/h (1 Bft) 92,11 %
16.01.2023 03:46 1,7 C 5,0 C 0,6 C 89 % 1006,2 hPa 0,0 l/m 1,3 km/h (1 Bft) S-SW 195 0 min 0,000 mm 0,0 UV-I 0 W/m 0,1 C 1,7 C 4,8 km/h (1 Bft) 92,45 %
16.01.2023 03:48 1,7 C 5,0 C 0,6 C 89 % 1006,2 hPa 0,0 l/m 0,5 km/h (0 Bft) S-SW 195 0 min 0,000 mm 0,0 UV-I 0 W/m 0,1 C 1,7 C 1,6 km/h (1 Bft) 92,45 %
16.01.2023 03:50 1,7 C 5,0 C 0,6 C 89 % 1006,2 hPa 0,0 l/m 0,5 km/h (0 Bft) S-SW 195 0 min 0,000 mm 0,0 UV-I 0 W/m 0,1 C 1,7 C 1,6 km/h (1 Bft) 92,11 %
16.01.2023 03:52 1,7 C 5,0 C 0,6 C 89 % 1006,1 hPa 0,0 l/m 0,5 km/h (0 Bft) S-SW 195 0 min 0,000 mm 0,0 UV-I 0 W/m 0,1 C 1,7 C 1,6 km/h (1 Bft) 94,00 %
16.01.2023 03:54 1,7 C 5,0 C 0,6 C 89 % 1006,1 hPa 0,0 l/m 0,0 km/h (0 Bft) S-SW 195 0 min 0,000 mm 0,0 UV-I 0 W/m 0,1 C 1,7 C 0,0 km/h (0 Bft) 91,49 %
16.01.2023 03:56 1,6 C 5,0 C 0,6 C 89 % 1006,0 hPa 0,0 l/m 0,0 km/h (0 Bft) S-SW 195 0 min 0,000 mm 0,0 UV-I 0 W/m -0,0 C 1,6 C 1,6 km/h (1 Bft) 93,62 %
16.01.2023 03:58 1,6 C 5,0 C 0,0 C 89 % 1006,0 hPa 0,0 l/m 0,3 km/h (0 Bft) S-SW 195 0 min 0,000 mm 0,0 UV-I 0 W/m -0,0 C 1,6 C 1,6 km/h (1 Bft) 90,38 %
16.01.2023 04:00 1,6 C 5,0 C 0,0 C 89 % 1006,0 hPa 0,0 l/m 0,0 km/h (0 Bft) S-SW 195 0 min 0,000 mm 0,0 UV-I 0 W/m -0,0 C 1,6 C 0,0 km/h (0 Bft) 95,74 %
16.01.2023 04:02 1,6 C 5,0 C 0,0 C 89 % 1006,0 hPa 0,0 l/m 0,4 km/h (0 Bft) S-SW 195 0 min 0,000 mm 0,0 UV-I 0 W/m -0,0 C 1,6 C 3,2 km/h (1 Bft) 94,29 %
16.01.2023 04:04 1,6 C 5,0 C 0,0 C 89 % 1006,0 hPa 0,0 l/m 1,6 km/h (1 Bft) S-SW 195 0 min 0,000 mm 0,0 UV-I 0 W/m -0,0 C 1,6 C 3,2 km/h (1 Bft) 97,56 %
16.01.2023 04:06 1,7 C 5,0 C 0,0 C 89 % 1005,9 hPa 0,0 l/m 0,7 km/h (0 Bft) S-SW 195 0 min 0,000 mm 0,0 UV-I 0 W/m 0,1 C 1,7 C 3,2 km/h (1 Bft) 98,00 %
16.01.2023 04:08 1,7 C 5,0 C 0,0 C 89 % 1005,9 hPa 0,0 l/m 0,0 km/h (0 Bft) S-SW 195 0 min 0,000 mm 0,0 UV-I 0 W/m 0,1 C 1,7 C 0,0 km/h (0 Bft) 97,56 %
16.01.2023 04:10 1,6 C 5,0 C 0,0 C 89 % 1005,9 hPa 0,0 l/m 0,0 km/h (0 Bft) S-SW 195 0 min 0,000 mm 0,0 UV-I 0 W/m -0,0 C 1,6 C 0,0 km/h (0 Bft) 97,87 %
16.01.2023 04:12 1,6 C 5,0 C 0,0 C 89 % 1005,8 hPa 0,0 l/m 0,0 km/h (0 Bft) S-SW 195 0 min 0,000 mm 0,0 UV-I 0 W/m -0,0 C 1,6 C 0,0 km/h (0 Bft) 100,00 %
16.01.2023 04:14 1,6 C 5,0 C 0,0 C 89 % 1005,8 hPa 0,0 l/m 0,0 km/h (0 Bft) S-SW 195 0 min 0,000 mm 0,0 UV-I 0 W/m -0,0 C 1,6 C 0,0 km/h (0 Bft) 95,74 %
16.01.2023 04:16 1,6 C 5,0 C 0,0 C 90 % 1005,8 hPa 0,0 l/m 0,0 km/h (0 Bft) S-SW 195 0 min 0,000 mm 0,0 UV-I 0 W/m 0,1 C 1,6 C 0,0 km/h (0 Bft) 95,74 %
16.01.2023 04:18 1,5 C 5,0 C 0,0 C 90 % 1005,7 hPa 0,0 l/m 0,0 km/h (0 Bft) S-SW 195 0 min 0,000 mm 0,0 UV-I 0 W/m 0,0 C 1,5 C 0,0 km/h (0 Bft) 98,11 %
16.01.2023 04:20 1,4 C 5,0 C 0,0 C 90 % 1005,7 hPa 0,0 l/m 0,0 km/h (0 Bft) S-SW 195 0 min 0,000 mm 0,0 UV-I 0 W/m -0,1 C 1,4 C 0,0 km/h (0 Bft) 92,68 %
16.01.2023 04:22 1,4 C 5,0 C 0,0 C 90 % 1005,7 hPa 0,0 l/m 0,0 km/h (0 Bft) S-SW 195 0 min 0,000 mm 0,0 UV-I 0 W/m -0,1 C 1,4 C 0,0 km/h (0 Bft) 96,00 %
16.01.2023 04:24 1,3 C 5,0 C 0,0 C 91 % 1005,6 hPa 0,0 l/m 0,0 km/h (0 Bft) S-SW 195 0 min 0,000 mm 0,0 UV-I 0 W/m -0,0 C 1,3 C 0,0 km/h (0 Bft) 98,00 %
16.01.2023 04:26 1,3 C 5,0 C 0,6 C 91 % 1005,7 hPa 0,0 l/m 0,1 km/h (0 Bft) S-SW 195 0 min 0,000 mm 0,0 UV-I 0 W/m -0,0 C 1,3 C 1,6 km/h (1 Bft) 100,00 %
16.01.2023 04:28 1,2 C 5,0 C 0,0 C 91 % 1005,6 hPa 0,0 l/m 0,0 km/h (0 Bft) S-SW 195 0 min 0,000 mm 0,0 UV-I 0 W/m -0,1 C 1,2 C 0,0 km/h (0 Bft) 100,00 %
16.01.2023 04:30 1,2 C 5,0 C 0,0 C 92 % 1005,6 hPa 0,0 l/m 0,0 km/h (0 Bft) S-SW 195 0 min 0,000 mm 0,0 UV-I 0 W/m 0,0 C 1,2 C 0,0 km/h (0 Bft) 97,87 %
16.01.2023 04:32 1,2 C 5,0 C 0,0 C 92 % 1005,6 hPa 0,0 l/m 0,0 km/h (0 Bft) S-SW 195 0 min 0,000 mm 0,0 UV-I 0 W/m 0,0 C 1,2 C 0,0 km/h (0 Bft) 95,74 %
16.01.2023 04:34 1,2 C 5,0 C 0,0 C 92 % 1005,6 hPa 0,0 l/m 1,2 km/h (1 Bft) S-SW 195 0 min 0,000 mm 0,0 UV-I 0 W/m 0,0 C 1,2 C 3,2 km/h (1 Bft) 100,00 %
16.01.2023 04:36 1,2 C 5,0 C 0,0 C 92 % 1005,5 hPa 0,0 l/m 2,2 km/h (1 Bft) S 175 0 min 0,000 mm 0,0 UV-I 0 W/m 0,0 C 1,2 C 3,2 km/h (1 Bft) 98,00 %
16.01.2023 04:38 1,2 C 5,0 C 0,0 C 92 % 1005,5 hPa 0,0 l/m 4,2 km/h (1 Bft) O-SO 109 0 min 0,000 mm 0,0 UV-I 0 W/m 0,0 C 1,2 C 4,8 km/h (1 Bft) 100,00 %
16.01.2023 04:40 1,2 C 5,0 C 0,6 C 92 % 1005,4 hPa 0,0 l/m 4,0 km/h (1 Bft) O-SO 109 0 min 0,000 mm 0,0 UV-I 0 W/m 0,0 C 1,2 C 4,8 km/h (1 Bft) 100,00 %
16.01.2023 04:42 1,3 C 5,0 C 0,6 C 92 % 1005,4 hPa 0,0 l/m 3,9 km/h (1 Bft) O-SO 109 0 min 0,000 mm 0,0 UV-I 0 W/m 0,1 C 1,3 C 4,8 km/h (1 Bft) 95,74 %
16.01.2023 04:44 1,3 C 5,0 C 0,6 C 92 % 1005,3 hPa 0,0 l/m 4,0 km/h (1 Bft) O-SO 109 0 min 0,000 mm 0,0 UV-I 0 W/m 0,1 C 1,3 C 4,8 km/h (1 Bft) 100,00 %
16.01.2023 04:46 1,4 C 5,0 C 0,6 C 91 % 1005,4 hPa 0,0 l/m 3,9 km/h (1 Bft) O-SO 109 0 min 0,000 mm 0,0 UV-I 0 W/m 0,1 C 1,4 C 4,8 km/h (1 Bft) 100,00 %
16.01.2023 04:48 1,3 C 5,0 C 0,6 C 91 % 1005,3 hPa 0,0 l/m 0,9 km/h (0 Bft) O-SO 109 0 min 0,000 mm 0,0 UV-I 0 W/m -0,0 C 1,3 C 3,2 km/h (1 Bft) 100,00 %
16.01.2023 04:50 1,3 C 5,0 C 0,6 C 92 % 1005,3 hPa 0,0 l/m 0,1 km/h (0 Bft) O-SO 109 0 min 0,000 mm 0,0 UV-I 0 W/m 0,1 C 1,3 C 1,6 km/h (1 Bft) 100,00 %
16.01.2023 04:52 1,2 C 5,0 C 0,0 C 92 % 1005,3 hPa 0,0 l/m 0,0 km/h (0 Bft) O-SO 109 0 min 0,000 mm 0,0 UV-I 0 W/m 0,0 C 1,2 C 0,0 km/h (0 Bft) 100,00 %
16.01.2023 04:54 1,2 C 5,0 C 0,0 C 92 % 1005,2 hPa 0,0 l/m 0,0 km/h (0 Bft) O-SO 109 0 min 0,000 mm 0,0 UV-I 0 W/m 0,0 C 1,2 C 0,0 km/h (0 Bft) 100,00 %
16.01.2023 04:56 1,2 C 5,0 C 0,0 C 92 % 1005,2 hPa 0,0 l/m 0,0 km/h (0 Bft) O-SO 109 0 min 0,000 mm 0,0 UV-I 0 W/m 0,0 C 1,2 C 0,0 km/h (0 Bft) 98,11 %
16.01.2023 04:58 1,2 C 5,0 C 0,0 C 92 % 1005,3 hPa 0,0 l/m 0,1 km/h (0 Bft) O-SO 109 0 min 0,000 mm 0,0 UV-I 0 W/m 0,0 C 1,2 C 1,6 km/h (1 Bft) 97,87 %
16.01.2023 05:00 1,2 C 5,0 C 0,0 C 92 % 1005,3 hPa 0,0 l/m 0,0 km/h (0 Bft) O-SO 109 0 min 0,000 mm 0,0 UV-I 0 W/m 0,0 C 1,2 C 0,0 km/h (0 Bft) 98,00 %
16.01.2023 05:02 1,2 C 5,0 C 0,0 C 93 % 1005,2 hPa 0,0 l/m 0,0 km/h (0 Bft) O-SO 109 0 min 0,000 mm 0,0 UV-I 0 W/m 0,2 C 1,2 C 0,0 km/h (0 Bft) 92,00 %
16.01.2023 05:04 1,2 C 5,0 C 0,0 C 93 % 1005,3 hPa 0,0 l/m 0,0 km/h (0 Bft) O-SO 109 0 min 0,000 mm 0,0 UV-I 0 W/m 0,2 C 1,2 C 1,6 km/h (1 Bft) 97,96 %
16.01.2023 05:06 1,2 C 5,0 C 0,0 C 93 % 1005,3 hPa 0,0 l/m 0,0 km/h (0 Bft) O-SO 109 0 min 0,000 mm 0,0 UV-I 0 W/m 0,2 C 1,2 C 0,0 km/h (0 Bft) 97,87 %
16.01.2023 05:08 1,2 C 5,0 C 0,0 C 93 % 1005,3 hPa 0,0 l/m 0,0 km/h (0 Bft) O-SO 109 0 min 0,000 mm 0,0 UV-I 0 W/m 0,2 C 1,2 C 0,0 km/h (0 Bft) 97,87 %
16.01.2023 05:10 1,2 C 5,0 C 0,0 C 93 % 1005,3 hPa 0,0 l/m 0,0 km/h (0 Bft) O-SO 109 0 min 0,000 mm 0,0 UV-I 0 W/m 0,2 C 1,2 C 1,6 km/h (1 Bft) 97,37 %
16.01.2023 05:12 1,2 C 5,0 C 0,0 C 93 % 1005,3 hPa 0,0 l/m 0,0 km/h (0 Bft) O-SO 109 0 min 0,000 mm 0,0 UV-I 0 W/m 0,2 C 1,2 C 0,0 km/h (0 Bft) 97,87 %
16.01.2023 05:14 1,2 C 5,0 C 0,0 C 93 % 1005,2 hPa 0,0 l/m 0,6 km/h (0 Bft) O-SO 111 0 min 0,000 mm 0,0 UV-I 0 W/m 0,2 C 1,2 C 3,2 km/h (1 Bft) 97,87 %
16.01.2023 05:16 1,2 C 5,0 C 0,0 C 93 % 1005,1 hPa 0,0 l/m 0,0 km/h (0 Bft) O-SO 111 0 min 0,000 mm 0,0 UV-I 0 W/m 0,2 C 1,2 C 0,0 km/h (0 Bft) 98,11 %
16.01.2023 05:18 1,2 C 5,0 C 0,0 C 93 % 1005,1 hPa 0,0 l/m 0,8 km/h (0 Bft) O-SO 111 0 min 0,000 mm 0,0 UV-I 0 W/m 0,2 C 1,2 C 3,2 km/h (1 Bft) 98,00 %
16.01.2023 05:20 1,2 C 5,0 C 0,0 C 93 % 1005,1 hPa 0,0 l/m 0,0 km/h (0 Bft) O-SO 111 0 min 0,000 mm 0,0 UV-I 0 W/m 0,2 C 1,2 C 1,6 km/h (1 Bft) 97,56 %
16.01.2023 05:22 1,3 C 5,0 C 0,0 C 93 % 1005,1 hPa 0,0 l/m 3,5 km/h (1 Bft) NO 50 0 min 0,000 mm 0,0 UV-I 0 W/m 0,3 C 1,3 C 4,8 km/h (1 Bft) 98,11 %
16.01.2023 05:24 1,3 C 5,0 C 0,0 C 93 % 1005,1 hPa 0,0 l/m 5,2 km/h (1 Bft) NO 44 0 min 0,000 mm 0,0 UV-I 0 W/m 0,3 C 1,3 C 8,0 km/h (2 Bft) 97,87 %
16.01.2023 05:26 1,2 C 5,0 C 0,0 C 93 % 1005,0 hPa 0,0 l/m 5,0 km/h (1 Bft) NO 44 0 min 0,000 mm 0,0 UV-I 0 W/m 0,2 C 1,2 C 6,4 km/h (2 Bft) 100,00 %
16.01.2023 05:28 1,1 C 5,0 C 0,0 C 93 % 1004,9 hPa 0,0 l/m 5,5 km/h (1 Bft) NO 36 0 min 0,000 mm 0,0 UV-I 0 W/m 0,1 C 1,1 C 6,4 km/h (2 Bft) 100,00 %
16.01.2023 05:30 1,1 C 5,0 C 0,6 C 93 % 1004,8 hPa 0,0 l/m 7,5 km/h (2 Bft) NO 43 0 min 0,000 mm 0,0 UV-I 0 W/m 0,1 C -0,0 C 9,7 km/h (2 Bft) 100,00 %
16.01.2023 05:32 1,1 C 5,0 C 0,6 C 93 % 1004,8 hPa 0,0 l/m 8,1 km/h (2 Bft) NO 42 0 min 0,000 mm 0,0 UV-I 0 W/m 0,1 C -0,6 C 9,7 km/h (2 Bft) 100,00 %
16.01.2023 05:34 1,0 C 5,0 C 0,6 C 93 % 1004,9 hPa 0,0 l/m 5,7 km/h (1 Bft) NO 49 0 min 0,000 mm 0,0 UV-I 0 W/m -0,0 C 1,0 C 8,0 km/h (2 Bft) 100,00 %
16.01.2023 05:36 1,0 C 5,0 C 0,6 C 94 % 1004,9 hPa 0,0 l/m 5,2 km/h (1 Bft) NO 51 0 min 0,000 mm 0,0 UV-I 0 W/m 0,1 C 1,0 C 6,4 km/h (2 Bft) 97,37 %
16.01.2023 05:38 1,0 C 5,0 C 0,0 C 94 % 1004,8 hPa 0,0 l/m 4,9 km/h (1 Bft) O-NO 58 0 min 0,000 mm 0,0 UV-I 0 W/m 0,1 C 1,0 C 6,4 km/h (2 Bft) 100,00 %
16.01.2023 05:40 0,9 C 5,0 C 0,0 C 94 % 1004,8 hPa 0,0 l/m 4,6 km/h (1 Bft) O-NO 58 0 min 0,000 mm 0,0 UV-I 0 W/m 0,0 C 0,9 C 6,4 km/h (2 Bft) 100,00 %
16.01.2023 05:42 0,9 C 5,0 C 0,0 C 94 % 1004,8 hPa 0,0 l/m 2,7 km/h (1 Bft) O-NO 58 0 min 0,000 mm 0,0 UV-I 0 W/m 0,0 C 0,9 C 4,8 km/h (1 Bft) 100,00 %
16.01.2023 05:44 0,9 C 5,0 C 0,0 C 94 % 1004,8 hPa 0,0 l/m 4,4 km/h (1 Bft) O-NO 58 0 min 0,000 mm 0,0 UV-I 0 W/m 0,0 C 0,9 C 6,4 km/h (2 Bft) 100,00 %
16.01.2023 05:46 0,9 C 5,0 C 0,0 C 94 % 1004,8 hPa 0,0 l/m 4,4 km/h (1 Bft) O-NO 58 0 min 0,000 mm 0,0 UV-I 0 W/m 0,0 C 0,9 C 4,8 km/h (1 Bft) 100,00 %
16.01.2023 05:48 0,9 C 5,0 C 0,0 C 94 % 1004,7 hPa 0,0 l/m 4,2 km/h (1 Bft) O-NO 58 0 min 0,000 mm 0,0 UV-I 0 W/m 0,0 C 0,9 C 4,8 km/h (1 Bft) 100,00 %
16.01.2023 05:50 0,9 C 5,0 C 0,0 C 94 % 1004,7 hPa 0,0 l/m 3,7 km/h (1 Bft) O-NO 59 0 min 0,000 mm 0,0 UV-I 0 W/m 0,0 C 0,9 C 4,8 km/h (1 Bft) 100,00 %
16.01.2023 05:52 0,9 C 5,0 C 0,0 C 94 % 1004,6 hPa 0,0 l/m 2,0 km/h (1 Bft) O-NO 59 0 min 0,000 mm 0,0 UV-I 0 W/m 0,0 C 0,9 C 3,2 km/h (1 Bft) 100,00 %
16.01.2023 05:54 0,9 C 5,0 C 0,0 C 94 % 1004,6 hPa 0,0 l/m 2,4 km/h (1 Bft) O-NO 59 0 min 0,000 mm 0,0 UV-I 0 W/m 0,0 C 0,9 C 3,2 km/h (1 Bft) 100,00 %
16.01.2023 05:56 0,9 C 5,0 C 0,0 C 94 % 1004,6 hPa 0,0 l/m 1,6 km/h (1 Bft) O-NO 59 0 min 0,000 mm 0,0 UV-I 0 W/m 0,0 C 0,9 C 3,2 km/h (1 Bft) 97,44 %
16.01.2023 05:58 1,0 C 5,0 C 0,0 C 94 % 1004,5 hPa 0,0 l/m 0,6 km/h (0 Bft) O-NO 59 0 min 0,000 mm 0,0 UV-I 0 W/m 0,1 C 1,0 C 3,2 km/h (1 Bft) 98,51 %
16.01.2023 06:00 1,1 C 5,0 C 0,0 C 94 % 1004,5 hPa 0,0 l/m 0,2 km/h (0 Bft) O-NO 59 0 min 0,000 mm 0,0 UV-I 0 W/m 0,2 C 1,1 C 1,6 km/h (1 Bft) 97,37 %
16.01.2023 06:02 1,1 C 5,0 C 0,0 C 94 % 1004,4 hPa 0,0 l/m 2,5 km/h (1 Bft) O-NO 60 0 min 0,000 mm 0,0 UV-I 0 W/m 0,2 C 1,1 C 4,8 km/h (1 Bft) 94,00 %
16.01.2023 06:04 1,1 C 5,0 C 0,0 C 93 % 1004,3 hPa 0,0 l/m 4,3 km/h (1 Bft) O-NO 77 0 min 0,000 mm 0,0 UV-I 0 W/m 0,1 C 1,1 C 6,4 km/h (2 Bft) 98,08 %
16.01.2023 06:06 1,2 C 5,0 C 0,6 C 93 % 1004,3 hPa 0,0 l/m 5,7 km/h (1 Bft) O 82 0 min 0,000 mm 0,0 UV-I 0 W/m 0,2 C 1,2 C 8,0 km/h (2 Bft) 97,37 %
16.01.2023 06:08 1,3 C 5,0 C 0,6 C 93 % 1004,3 hPa 0,0 l/m 6,8 km/h (2 Bft) O-NO 76 0 min 0,000 mm 0,0 UV-I 0 W/m 0,3 C 0,9 C 9,7 km/h (2 Bft) 98,11 %
16.01.2023 06:10 1,3 C 5,0 C 0,6 C 92 % 1004,2 hPa 0,0 l/m 5,9 km/h (2 Bft) O-NO 76 0 min 0,000 mm 0,0 UV-I 0 W/m 0,1 C 1,3 C 8,0 km/h (2 Bft) 97,87 %
16.01.2023 06:12 1,3 C 5,0 C 0,6 C 92 % 1004,1 hPa 0,0 l/m 6,5 km/h (2 Bft) O 88 0 min 0,000 mm 0,0 UV-I 0 W/m 0,1 C 1,2 C 11,3 km/h (2 Bft) 97,56 %
16.01.2023 06:14 1,3 C 5,0 C 0,6 C 92 % 1004,1 hPa 0,0 l/m 7,5 km/h (2 Bft) O-NO 76 0 min 0,000 mm 0,0 UV-I 0 W/m 0,1 C 0,2 C 11,3 km/h (2 Bft) 96,23 %
16.01.2023 06:16 1,3 C 5,0 C 0,6 C 92 % 1004,1 hPa 0,0 l/m 8,0 km/h (2 Bft) O 91 0 min 0,000 mm 0,0 UV-I 0 W/m 0,1 C -0,3 C 11,3 km/h (2 Bft) 96,00 %
16.01.2023 06:18 1,3 C 5,0 C 0,6 C 91 % 1004,1 hPa 0,0 l/m 7,5 km/h (2 Bft) O 89 0 min 0,000 mm 0,0 UV-I 0 W/m -0,0 C 0,2 C 12,9 km/h (3 Bft) 94,44 %
16.01.2023 06:20 1,3 C 5,0 C 0,6 C 91 % 1004,1 hPa 0,0 l/m 8,2 km/h (2 Bft) O-NO 78 0 min 0,000 mm 0,0 UV-I 0 W/m -0,0 C -0,5 C 11,3 km/h (2 Bft) 96,00 %
16.01.2023 06:22 1,3 C 5,0 C 0,6 C 91 % 1004,0 hPa 0,0 l/m 7,6 km/h (2 Bft) O 84 0 min 0,000 mm 0,0 UV-I 0 W/m -0,0 C 0,1 C 11,3 km/h (2 Bft) 94,00 %
16.01.2023 06:24 1,3 C 5,0 C 0,6 C 92 % 1003,9 hPa 0,0 l/m 9,2 km/h (2 Bft) O 84 0 min 0,000 mm 0,0 UV-I 0 W/m 0,1 C -1,4 C 12,9 km/h (3 Bft) 95,45 %
16.01.2023 06:26 1,3 C 5,0 C 0,6 C 91 % 1003,9 hPa 0,0 l/m 9,6 km/h (2 Bft) O 92 0 min 0,000 mm 0,0 UV-I 0 W/m -0,0 C -1,7 C 12,9 km/h (3 Bft) 96,23 %
16.01.2023 06:28 1,2 C 5,0 C 0,6 C 92 % 1003,9 hPa 0,0 l/m 8,1 km/h (2 Bft) O 82 0 min 0,000 mm 0,0 UV-I 0 W/m 0,0 C -0,5 C 11,3 km/h (2 Bft) 95,12 %
16.01.2023 06:30 1,2 C 5,0 C 0,6 C 92 % 1003,9 hPa 0,0 l/m 7,1 km/h (2 Bft) O 88 0 min 0,000 mm 0,0 UV-I 0 W/m 0,0 C 0,5 C 12,9 km/h (3 Bft) 96,23 %
16.01.2023 06:32 1,2 C 5,0 C 0,6 C 92 % 1003,7 hPa 0,0 l/m 7,8 km/h (2 Bft) O 86 0 min 0,000 mm 0,0 UV-I 0 W/m 0,0 C -0,2 C 11,3 km/h (2 Bft) 89,36 %
16.01.2023 06:34 1,2 C 5,0 C 0,6 C 92 % 1003,7 hPa 0,0 l/m 6,6 km/h (2 Bft) O-NO 74 0 min 0,000 mm 0,0 UV-I 0 W/m 0,0 C 1,0 C 11,3 km/h (2 Bft) 93,62 %
16.01.2023 06:36 1,2 C 5,0 C 0,6 C 92 % 1003,6 hPa 0,0 l/m 6,8 km/h (2 Bft) O 84 0 min 0,000 mm 0,0 UV-I 0 W/m 0,0 C 0,8 C 9,7 km/h (2 Bft) 92,11 %
16.01.2023 06:38 1,2 C 5,0 C 0,6 C 92 % 1003,6 hPa 0,0 l/m 6,9 km/h (2 Bft) O-NO 70 0 min 0,000 mm 0,0 UV-I 0 W/m 0,0 C 0,7 C 11,3 km/h (2 Bft) 96,43 %
16.01.2023 06:40 1,2 C 5,0 C 0,6 C 92 % 1003,5 hPa 0,0 l/m 7,8 km/h (2 Bft) O-NO 69 0 min 0,000 mm 0,0 UV-I 0 W/m 0,0 C -0,2 C 11,3 km/h (2 Bft) 97,56 %
16.01.2023 06:42 1,2 C 5,0 C 0,6 C 92 % 1003,5 hPa 0,0 l/m 7,6 km/h (2 Bft) O 93 0 min 0,000 mm 0,0 UV-I 0 W/m 0,0 C -0,0 C 12,9 km/h (3 Bft) 95,74 %
16.01.2023 06:44 1,2 C 5,0 C 0,6 C 92 % 1003,5 hPa 0,0 l/m 7,9 km/h (2 Bft) O 86 0 min 0,000 mm 0,0 UV-I 0 W/m 0,0 C -0,3 C 11,3 km/h (2 Bft) 96,00 %
16.01.2023 06:46 1,2 C 5,0 C 0,6 C 92 % 1003,5 hPa 0,0 l/m 6,4 km/h (2 Bft) O 89 0 min 0,000 mm 0,0 UV-I 0 W/m 0,0 C 1,2 C 9,7 km/h (2 Bft) 95,45 %
16.01.2023 06:48 1,2 C 5,0 C 0,6 C 93 % 1003,4 hPa 0,0 l/m 6,8 km/h (2 Bft) O 84 0 min 0,000 mm 0,0 UV-I 0 W/m 0,2 C 0,8 C 11,3 km/h (2 Bft) 96,00 %
16.01.2023 06:50 1,2 C 5,0 C 0,6 C 92 % 1003,4 hPa 0,0 l/m 8,8 km/h (2 Bft) O 89 0 min 0,000 mm 0,0 UV-I 0 W/m 0,0 C -1,1 C 12,9 km/h (3 Bft) 97,56 %
16.01.2023 06:52 1,2 C 5,0 C 0,6 C 92 % 1003,4 hPa 0,0 l/m 10,1 km/h (2 Bft) O-SO 103 0 min 0,000 mm 0,0 UV-I 0 W/m 0,0 C -2,2 C 14,5 km/h (3 Bft) 96,23 %
16.01.2023 06:54 1,2 C 5,0 C 0,6 C 92 % 1003,3 hPa 0,0 l/m 9,9 km/h (2 Bft) O 88 0 min 0,000 mm 0,0 UV-I 0 W/m 0,0 C -2,0 C 14,5 km/h (3 Bft) 97,37 %
16.01.2023 06:56 1,3 C 5,0 C 0,6 C 93 % 1003,2 hPa 0,0 l/m 9,4 km/h (2 Bft) O-SO 104 0 min 0,000 mm 0,0 UV-I 0 W/m 0,3 C -1,5 C 12,9 km/h (3 Bft) 96,23 %
16.01.2023 06:58 1,3 C 5,0 C 0,6 C 93 % 1003,2 hPa 0,0 l/m 5,5 km/h (1 Bft) O-SO 111 0 min 0,000 mm 0,0 UV-I 0 W/m 0,3 C 1,3 C 11,3 km/h (2 Bft) 95,74 %
16.01.2023 07:00 1,3 C 5,0 C 0,6 C 93 % 1003,1 hPa 0,0 l/m 5,7 km/h (1 Bft) O 101 0 min 0,000 mm 0,0 UV-I 0 W/m 0,3 C 1,3 C 9,7 km/h (2 Bft) 97,56 %
16.01.2023 07:02 1,3 C 5,0 C 0,6 C 92 % 1003,1 hPa 0,0 l/m 10,1 km/h (2 Bft) O-SO 109 0 min 0,000 mm 0,0 UV-I 0 W/m 0,1 C -2,1 C 12,9 km/h (3 Bft) 96,36 %
16.01.2023 07:04 1,3 C 5,0 C 0,6 C 92 % 1003,1 hPa 0,0 l/m 9,7 km/h (2 Bft) O 93 0 min 0,000 mm 0,0 UV-I 0 W/m 0,1 C -1,8 C 14,5 km/h (3 Bft) 97,87 %
16.01.2023 07:06 1,3 C 5,0 C 0,6 C 92 % 1003,1 hPa 0,0 l/m 7,9 km/h (2 Bft) O-SO 109 0 min 0,000 mm 0,0 UV-I 0 W/m 0,1 C -0,2 C 12,9 km/h (3 Bft) 97,62 %
16.01.2023 07:08 1,3 C 5,0 C 0,6 C 92 % 1003,0 hPa 0,0 l/m 8,6 km/h (2 Bft) O 95 0 min 0,000 mm 0,0 UV-I 0 W/m 0,1 C -0,8 C 12,9 km/h (3 Bft) 95,45 %
16.01.2023 07:10 1,3 C 5,0 C 0,6 C 92 % 1003,0 hPa 0,0 l/m 7,7 km/h (2 Bft) O-SO 109 0 min 0,000 mm 0,0 UV-I 0 W/m 0,1 C 0,0 C 11,3 km/h (2 Bft) 96,43 %
16.01.2023 07:12 1,3 C 5,0 C 0,6 C 92 % 1003,0 hPa 0,0 l/m 8,1 km/h (2 Bft) O-SO 109 0 min 0,000 mm 0,0 UV-I 0 W/m 0,1 C -0,4 C 11,3 km/h (2 Bft) 97,37 %
16.01.2023 07:14 1,3 C 5,0 C 0,0 C 92 % 1002,9 hPa 0,0 l/m 8,3 km/h (2 Bft) O-SO 103 0 min 0,000 mm 0,0 UV-I 0 W/m 0,1 C -0,6 C 12,9 km/h (3 Bft) 96,00 %
16.01.2023 07:16 1,3 C 5,0 C 0,0 C 92 % 1002,9 hPa 0,0 l/m 7,4 km/h (2 Bft) O-NO 76 0 min 0,000 mm 0,0 UV-I 0 W/m 0,1 C 0,3 C 11,3 km/h (2 Bft) 94,34 %
16.01.2023 07:18 1,3 C 5,0 C 0,0 C 92 % 1002,9 hPa 0,0 l/m 5,7 km/h (1 Bft) O 98 0 min 0,000 mm 0,0 UV-I 0 W/m 0,1 C 1,3 C 9,7 km/h (2 Bft) 94,74 %
16.01.2023 07:20 1,3 C 5,0 C 0,0 C 92 % 1002,8 hPa 0,0 l/m 5,5 km/h (1 Bft) O 91 0 min 0,000 mm 0,0 UV-I 0 W/m 0,1 C 1,3 C 6,4 km/h (2 Bft) 98,00 %
16.01.2023 07:22 1,2 C 5,0 C 0,0 C 92 % 1002,9 hPa 0,0 l/m 6,3 km/h (2 Bft) O 96 0 min 0,000 mm 0,0 UV-I 0 W/m 0,0 C 1,2 C 9,7 km/h (2 Bft) 95,74 %
16.01.2023 07:24 1,2 C 5,0 C 0,0 C 92 % 1002,8 hPa 0,0 l/m 5,4 km/h (1 Bft) O-NO 78 0 min 0,000 mm 0,0 UV-I 0 W/m 0,0 C 1,2 C 9,7 km/h (2 Bft) 93,33 %
16.01.2023 07:26 1,2 C 5,0 C 0,0 C 92 % 1002,7 hPa 0,0 l/m 5,7 km/h (1 Bft) O 94 0 min 0,000 mm 0,0 UV-I 0 W/m 0,0 C 1,2 C 9,7 km/h (2 Bft) 95,12 %
16.01.2023 07:28 1,1 C 5,0 C 0,0 C 92 % 1002,7 hPa 0,0 l/m 4,7 km/h (1 Bft) O 81 0 min 0,000 mm 0,0 UV-I 0 W/m -0,1 C 1,1 C 6,4 km/h (2 Bft) 96,00 %
16.01.2023 07:30 1,2 C 5,0 C 0,0 C 92 % 1002,6 hPa 0,0 l/m 4,8 km/h (1 Bft) O 85 0 min 0,000 mm 0,0 UV-I 0 W/m 0,0 C 1,2 C 6,4 km/h (2 Bft) 94,34 %
16.01.2023 07:32 1,2 C 5,0 C -0,6 C 92 % 1002,5 hPa 0,0 l/m 5,5 km/h (1 Bft) O 89 0 min 0,000 mm 0,0 UV-I 0 W/m 0,0 C 1,2 C 8,0 km/h (2 Bft) 95,12 %
16.01.2023 07:34 1,1 C 5,0 C -0,6 C 92 % 1002,5 hPa 0,0 l/m 4,6 km/h (1 Bft) O 90 0 min 0,000 mm 0,0 UV-I 0 W/m -0,1 C 1,1 C 6,4 km/h (2 Bft) 96,23 %
16.01.2023 07:36 1,1 C 5,0 C -0,6 C 92 % 1002,4 hPa 0,0 l/m 5,0 km/h (1 Bft) O 90 0 min 0,000 mm 0,0 UV-I 0 W/m -0,1 C 1,1 C 6,4 km/h (2 Bft) 95,12 %
16.01.2023 07:38 1,1 C 5,0 C -0,6 C 92 % 1002,3 hPa 0,0 l/m 3,5 km/h (1 Bft) O 90 0 min 0,000 mm 0,0 UV-I 0 W/m -0,1 C 1,1 C 6,4 km/h (2 Bft) 95,74 %
16.01.2023 07:40 1,1 C 5,0 C -0,6 C 92 % 1002,3 hPa 0,0 l/m 3,9 km/h (1 Bft) O-NO 71 0 min 0,000 mm 0,0 UV-I 1 W/m -0,1 C 1,1 C 6,4 km/h (2 Bft) 98,11 %
16.01.2023 07:42 1,1 C 5,0 C -0,6 C 92 % 1002,3 hPa 0,0 l/m 5,1 km/h (1 Bft) O-NO 67 0 min 0,000 mm 0,0 UV-I 5 W/m -0,1 C 1,1 C 6,4 km/h (2 Bft) 97,37 %
16.01.2023 07:44 1,1 C 5,0 C -0,6 C 92 % 1002,2 hPa 0,0 l/m 6,4 km/h (2 Bft) O-NO 67 0 min 0,000 mm 0,0 UV-I 5 W/m -0,1 C 1,1 C 8,0 km/h (2 Bft) 96,43 %
16.01.2023 07:46 1,1 C 5,0 C 0,0 C 92 % 1002,2 hPa 0,0 l/m 6,0 km/h (2 Bft) O-NO 65 0 min 0,000 mm 0,0 UV-I 5 W/m -0,1 C 1,1 C 8,0 km/h (2 Bft) 94,74 %
16.01.2023 07:48 1,1 C 5,0 C 0,0 C 92 % 1002,1 hPa 0,0 l/m 6,8 km/h (2 Bft) O-NO 71 0 min 0,000 mm 0,0 UV-I 5 W/m -0,1 C 0,7 C 9,7 km/h (2 Bft) 94,64 %
16.01.2023 07:50 1,0 C 5,0 C 0,0 C 93 % 1002,1 hPa 0,0 l/m 6,8 km/h (2 Bft) O-NO 71 0 min 0,000 mm 0,0 UV-I 5 W/m -0,0 C 0,6 C 8,0 km/h (2 Bft) 100,00 %
16.01.2023 07:52 1,0 C 5,0 C 0,0 C 93 % 1002,0 hPa 0,0 l/m 7,2 km/h (2 Bft) O-NO 74 0 min 0,000 mm 0,0 UV-I 7 W/m -0,0 C 0,2 C 8,0 km/h (2 Bft) 97,56 %
16.01.2023 07:54 1,0 C 5,0 C 0,0 C 93 % 1002,0 hPa 0,0 l/m 6,0 km/h (2 Bft) O 88 0 min 0,000 mm 0,0 UV-I 7 W/m -0,0 C 1,0 C 8,0 km/h (2 Bft) 100,00 %
16.01.2023 07:56 0,9 C 5,0 C 0,0 C 93 % 1001,9 hPa 0,0 l/m 7,2 km/h (2 Bft) O 90 0 min 0,000 mm 0,0 UV-I 7 W/m -0,1 C 0,1 C 11,3 km/h (2 Bft) 98,00 %
16.01.2023 07:58 0,9 C 5,0 C 0,0 C 93 % 1001,9 hPa 0,0 l/m 8,3 km/h (2 Bft) O 88 0 min 0,000 mm 0,0 UV-I 7 W/m -0,1 C -1,0 C 12,9 km/h (3 Bft) 100,00 %
16.01.2023 08:00 0,9 C 5,0 C -0,6 C 93 % 1001,8 hPa 0,0 l/m 7,0 km/h (2 Bft) O 84 0 min 0,000 mm 0,0 UV-I 8 W/m -0,1 C 0,3 C 11,3 km/h (2 Bft) 100,00 %
16.01.2023 08:02 0,9 C 5,0 C -0,6 C 93 % 1001,8 hPa 0,0 l/m 6,8 km/h (2 Bft) O-NO 74 0 min 0,000 mm 0,0 UV-I 9 W/m -0,1 C 0,5 C 11,3 km/h (2 Bft) 96,08 %
16.01.2023 08:04 0,9 C 5,0 C 0,0 C 93 % 1001,8 hPa 0,0 l/m 7,8 km/h (2 Bft) O-NO 74 0 min 0,000 mm 0,0 UV-I 9 W/m -0,1 C -0,5 C 11,3 km/h (2 Bft) 100,00 %
16.01.2023 08:06 0,9 C 5,0 C 0,0 C 93 % 1001,8 hPa 0,0 l/m 8,1 km/h (2 Bft) O-NO 67 0 min 0,000 mm 0,0 UV-I 9 W/m -0,1 C -0,8 C 11,3 km/h (2 Bft) 97,37 %
16.01.2023 08:08 0,8 C 5,0 C 0,0 C 93 % 1001,7 hPa 0,0 l/m 8,8 km/h (2 Bft) O-NO 71 0 min 0,000 mm 0,0 UV-I 11 W/m -0,2 C -1,5 C 12,9 km/h (3 Bft) 98,11 %
16.01.2023 08:10 0,8 C 5,0 C 0,0 C 93 % 1001,7 hPa 0,0 l/m 8,2 km/h (2 Bft) O-NO 63 0 min 0,000 mm 0,0 UV-I 11 W/m -0,2 C -1,0 C 12,9 km/h (3 Bft) 96,23 %
16.01.2023 08:12 0,8 C 5,0 C 0,0 C 93 % 1001,7 hPa 0,0 l/m 7,2 km/h (2 Bft) O-NO 63 0 min 0,000 mm 0,0 UV-I 11 W/m -0,2 C -0,0 C 12,9 km/h (3 Bft) 95,74 %
16.01.2023 08:14 0,8 C 5,0 C -0,6 C 93 % 1001,7 hPa 0,0 l/m 6,0 km/h (2 Bft) NO 56 0 min 0,000 mm 0,0 UV-I 12 W/m -0,2 C 0,8 C 8,0 km/h (2 Bft) 96,00 %
16.01.2023 08:16 0,7 C 5,0 C -0,6 C 93 % 1001,7 hPa 0,0 l/m 6,3 km/h (2 Bft) O-NO 68 0 min 0,000 mm 0,0 UV-I 12 W/m -0,3 C 0,7 C 9,7 km/h (2 Bft) 97,56 %
16.01.2023 08:18 0,7 C 5,0 C -0,6 C 93 % 1001,6 hPa 0,0 l/m 7,4 km/h (2 Bft) O-NO 74 0 min 0,000 mm 0,0 UV-I 14 W/m -0,3 C -0,3 C 9,7 km/h (2 Bft) 94,00 %
16.01.2023 08:20 0,7 C 5,0 C -0,6 C 93 % 1001,5 hPa 0,0 l/m 6,7 km/h (2 Bft) O-NO 60 0 min 0,000 mm 0,0 UV-I 14 W/m -0,3 C 0,4 C 8,0 km/h (2 Bft) 98,00 %
16.01.2023 08:22 0,7 C 5,0 C -0,6 C 93 % 1001,5 hPa 0,0 l/m 7,7 km/h (2 Bft) O-NO 67 0 min 0,000 mm 0,0 UV-I 16 W/m -0,3 C -0,6 C 11,3 km/h (2 Bft) 97,14 %
16.01.2023 08:24 0,8 C 5,0 C -0,6 C 93 % 1001,4 hPa 0,0 l/m 6,7 km/h (2 Bft) O-NO 74 0 min 0,000 mm 0,0 UV-I 19 W/m -0,2 C 0,5 C 8,0 km/h (2 Bft) 98,11 %
16.01.2023 08:26 0,7 C 5,0 C -0,6 C 93 % 1001,3 hPa 0,0 l/m 7,1 km/h (2 Bft) O 82 0 min 0,000 mm 0,0 UV-I 21 W/m -0,3 C -0,0 C 11,3 km/h (2 Bft) 94,00 %
16.01.2023 08:28 0,7 C 5,0 C -0,6 C 93 % 1001,3 hPa 0,0 l/m 6,0 km/h (2 Bft) O 84 0 min 0,000 mm 0,0 UV-I 24 W/m -0,3 C 0,7 C 8,0 km/h (2 Bft) 95,83 %
16.01.2023 08:30 0,7 C 5,0 C -0,6 C 93 % 1001,3 hPa 0,0 l/m 7,1 km/h (2 Bft) O-NO 63 0 min 0,000 mm 0,0 UV-I 27 W/m -0,3 C -0,0 C 9,7 km/h (2 Bft) 97,26 %
16.01.2023 08:32 0,7 C 5,0 C -0,6 C 94 % 1001,3 hPa 0,0 l/m 7,1 km/h (2 Bft) O-NO 74 0 min 0,000 mm 0,0 UV-I 43 W/m -0,2 C -0,0 C 8,0 km/h (2 Bft) 95,74 %
16.01.2023 08:34 0,7 C 5,0 C 0,0 C 94 % 1001,2 hPa 0,0 l/m 7,9 km/h (2 Bft) O-NO 74 2 min 0,000 mm 0,0 UV-I 58 W/m -0,2 C -0,8 C 12,9 km/h (3 Bft) 97,37 %
16.01.2023 08:36 0,8 C 5,0 C 0,0 C 94 % 1001,2 hPa 0,0 l/m 6,7 km/h (2 Bft) O-NO 58 2 min 0,000 mm 0,0 UV-I 79 W/m -0,1 C 0,5 C 12,9 km/h (3 Bft) 96,23 %
16.01.2023 08:38 0,9 C 5,0 C 0,0 C 94 % 1001,1 hPa 0,0 l/m 6,2 km/h (2 Bft) O 80 2 min 0,000 mm 0,0 UV-I 92 W/m 0,0 C 0,9 C 9,7 km/h (2 Bft) 94,74 %
16.01.2023 08:40 0,9 C 5,0 C 0,6 C 94 % 1001,1 hPa 0,0 l/m 5,2 km/h (1 Bft) O-NO 59 2 min 0,000 mm 0,0 UV-I 84 W/m 0,0 C 0,9 C 8,0 km/h (2 Bft) 96,23 %
16.01.2023 08:42 1,1 C 5,0 C 0,6 C 94 % 1001,0 hPa 0,0 l/m 6,6 km/h (2 Bft) O-NO 65 2 min 0,000 mm 0,0 UV-I 88 W/m 0,2 C 0,9 C 12,9 km/h (3 Bft) 92,00 %
16.01.2023 08:44 1,1 C 5,0 C 0,6 C 94 % 1001,0 hPa 0,0 l/m 8,0 km/h (2 Bft) O-NO 78 2 min 0,000 mm 0,0 UV-I 86 W/m 0,2 C -0,5 C 11,3 km/h (2 Bft) 97,73 %
16.01.2023 08:46 1,1 C 5,0 C 0,6 C 93 % 1000,9 hPa 0,0 l/m 7,0 km/h (2 Bft) O-NO 70 0 min 0,000 mm 0,0 UV-I 66 W/m 0,1 C 0,5 C 11,3 km/h (2 Bft) 97,56 %
16.01.2023 08:48 1,2 C 5,0 C 0,6 C 93 % 1000,8 hPa 0,0 l/m 9,1 km/h (2 Bft) NO 52 0 min 0,000 mm 0,0 UV-I 46 W/m 0,2 C -1,4 C 12,9 km/h (3 Bft) 94,87 %
16.01.2023 08:50 1,1 C 5,0 C 0,6 C 93 % 1000,7 hPa 0,0 l/m 11,1 km/h (2 Bft) O-NO 74 0 min 0,000 mm 0,0 UV-I 41 W/m 0,1 C -3,1 C 14,5 km/h (3 Bft) 95,31 %
16.01.2023 08:52 1,2 C 5,0 C 0,6 C 93 % 1000,7 hPa 0,0 l/m 10,4 km/h (2 Bft) O 80 0 min 0,000 mm 0,0 UV-I 57 W/m 0,2 C -2,4 C 14,5 km/h (3 Bft) 92,11 %
16.01.2023 08:54 1,2 C 5,0 C 0,6 C 93 % 1000,6 hPa 0,0 l/m 9,8 km/h (2 Bft) O 80 2 min 0,000 mm 0,0 UV-I 103 W/m 0,2 C -2,0 C 14,5 km/h (3 Bft) 98,11 %
16.01.2023 08:56 1,2 C 5,0 C 0,6 C 93 % 1000,6 hPa 0,0 l/m 8,3 km/h (2 Bft) O-NO 60 2 min 0,000 mm 0,0 UV-I 116 W/m 0,2 C -0,7 C 12,9 km/h (3 Bft) 100,00 %
16.01.2023 08:58 1,3 C 5,0 C 0,6 C 93 % 1000,6 hPa 0,0 l/m 7,7 km/h (2 Bft) O-NO 63 2 min 0,000 mm 0,0 UV-I 126 W/m 0,3 C 0,0 C 11,3 km/h (2 Bft) 97,37 %
16.01.2023 09:00 1,3 C 5,0 C 1,1 C 93 % 1000,6 hPa 0,0 l/m 7,7 km/h (2 Bft) O-NO 65 2 min 0,025 mm 0,0 UV-I 132 W/m 0,3 C 0,0 C 11,3 km/h (2 Bft) 100,00 %
16.01.2023 09:02 1,4 C 5,0 C 1,1 C 93 % 1000,5 hPa 0,0 l/m 7,2 km/h (2 Bft) O-NO 71 2 min 0,000 mm 0,0 UV-I 136 W/m 0,4 C 0,6 C 11,3 km/h (2 Bft) 100,00 %
16.01.2023 09:04 1,5 C 5,0 C 1,1 C 93 % 1000,4 hPa 0,0 l/m 9,0 km/h (2 Bft) O-NO 61 2 min 0,000 mm 0,0 UV-I 139 W/m 0,5 C -1,0 C 12,9 km/h (3 Bft) 98,00 %
16.01.2023 09:06 1,6 C 5,0 C 1,7 C 93 % 1000,3 hPa 0,0 l/m 10,4 km/h (2 Bft) O-NO 67 2 min 0,000 mm 0,0 UV-I 151 W/m 0,6 C -2,0 C 12,9 km/h (3 Bft) 96,23 %
16.01.2023 09:08 1,6 C 5,0 C 1,7 C 93 % 1000,2 hPa 0,0 l/m 12,4 km/h (3 Bft) O-NO 67 2 min 0,000 mm 0,0 UV-I 155 W/m 0,6 C -3,4 C 16,1 km/h (3 Bft) 100,00 %
16.01.2023 09:10 1,6 C 5,0 C 1,7 C 93 % 1000,2 hPa 0,0 l/m 11,9 km/h (2 Bft) O 88 2 min 0,000 mm 0,0 UV-I 152 W/m 0,6 C -3,1 C 17,7 km/h (3 Bft) 98,21 %
16.01.2023 09:12 1,7 C 5,0 C 1,1 C 93 % 1000,1 hPa 0,0 l/m 11,1 km/h (2 Bft) O-NO 74 2 min 0,000 mm 0,0 UV-I 146 W/m 0,7 C -2,4 C 16,1 km/h (3 Bft) 100,00 %
16.01.2023 09:14 1,7 C 5,0 C 1,1 C 93 % 1000,1 hPa 0,0 l/m 10,5 km/h (2 Bft) O-NO 77 2 min 0,000 mm 0,0 UV-I 155 W/m 0,7 C -2,0 C 14,5 km/h (3 Bft) 98,00 %
16.01.2023 09:16 1,7 C 5,0 C 1,1 C 93 % 1000,0 hPa 0,0 l/m 8,7 km/h (2 Bft) O 86 2 min 0,000 mm 0,0 UV-I 152 W/m 0,7 C -0,5 C 12,9 km/h (3 Bft) 100,00 %
16.01.2023 09:18 1,8 C 5,0 C 1,1 C 93 % 999,9 hPa 0,0 l/m 8,4 km/h (2 Bft) O-NO 69 2 min 0,000 mm 0,0 UV-I 153 W/m 0,8 C -0,1 C 12,9 km/h (3 Bft) 100,00 %
16.01.2023 09:20 1,9 C 5,0 C 1,1 C 93 % 999,9 hPa 0,0 l/m 8,8 km/h (2 Bft) O-NO 68 2 min 0,000 mm 0,0 UV-I 164 W/m 0,9 C -0,4 C 12,9 km/h (3 Bft) 98,00 %
16.01.2023 09:22 1,9 C 5,0 C 1,1 C 93 % 999,8 hPa 0,0 l/m 11,1 km/h (2 Bft) O-NO 69 2 min 0,000 mm 0,0 UV-I 168 W/m 0,9 C -2,2 C 16,1 km/h (3 Bft) 100,00 %
16.01.2023 09:24 2,0 C 5,0 C 1,1 C 92 % 999,8 hPa 0,0 l/m 9,7 km/h (2 Bft) O-NO 68 2 min 0,000 mm 0,0 UV-I 173 W/m 0,8 C -1,0 C 12,9 km/h (3 Bft) 100,00 %
16.01.2023 09:26 2,1 C 5,0 C 1,1 C 92 % 999,7 hPa 0,0 l/m 11,9 km/h (2 Bft) O-NO 73 2 min 0,000 mm 0,0 UV-I 181 W/m 0,9 C -2,5 C 16,1 km/h (3 Bft) 100,00 %
16.01.2023 09:28 2,1 C 5,0 C 1,1 C 92 % 999,7 hPa 0,0 l/m 11,1 km/h (2 Bft) O-NO 69 2 min 0,000 mm 0,0 UV-I 184 W/m 0,9 C -2,0 C 14,5 km/h (3 Bft) 100,00 %
16.01.2023 09:30 2,2 C 5,0 C 1,1 C 92 % 999,6 hPa 0,0 l/m 8,4 km/h (2 Bft) O-NO 75 2 min 0,000 mm 0,0 UV-I 187 W/m 1,0 C 0,3 C 12,9 km/h (3 Bft) 98,00 %
16.01.2023 09:32 2,2 C 5,0 C 1,7 C 92 % 999,6 hPa 0,0 l/m 8,0 km/h (2 Bft) O 82 2 min 0,000 mm 0,0 UV-I 192 W/m 1,0 C 0,7 C 12,9 km/h (3 Bft) 95,74 %
16.01.2023 09:34 2,3 C 5,0 C 1,7 C 91 % 999,5 hPa 0,0 l/m 11,9 km/h (2 Bft) O-NO 69 2 min 0,000 mm 0,0 UV-I 194 W/m 1,0 C -2,3 C 16,1 km/h (3 Bft) 96,00 %
16.01.2023 09:36 2,3 C 5,0 C 1,7 C 91 % 999,5 hPa 0,0 l/m 12,6 km/h (3 Bft) O-NO 66 2 min 0,000 mm 0,0 UV-I 181 W/m 1,0 C -2,7 C 17,7 km/h (3 Bft) 100,00 %
16.01.2023 09:38 2,3 C 5,0 C 1,7 C 91 % 999,4 hPa 0,0 l/m 11,1 km/h (2 Bft) O-NO 61 2 min 0,000 mm 0,0 UV-I 190 W/m 1,0 C -1,7 C 16,1 km/h (3 Bft) 100,00 %
16.01.2023 09:40 2,4 C 5,0 C 1,7 C 91 % 999,4 hPa 0,0 l/m 11,8 km/h (2 Bft) O-NO 75 2 min 0,000 mm 0,0 UV-I 203 W/m 1,1 C -2,1 C 17,7 km/h (3 Bft) 100,00 %
16.01.2023 09:42 2,5 C 5,0 C 1,7 C 91 % 999,3 hPa 0,0 l/m 12,4 km/h (3 Bft) O 86 2 min 0,000 mm 0,0 UV-I 206 W/m 1,2 C -2,4 C 14,5 km/h (3 Bft) 96,23 %
16.01.2023 09:44 2,6 C 5,0 C 1,7 C 91 % 999,2 hPa 0,0 l/m 11,0 km/h (2 Bft) O 88 2 min 0,000 mm 0,0 UV-I 204 W/m 1,3 C -1,3 C 16,1 km/h (3 Bft) 97,56 %
16.01.2023 09:46 2,7 C 5,0 C 1,7 C 90 % 999,1 hPa 0,0 l/m 10,6 km/h (2 Bft) O-NO 65 2 min 0,000 mm 0,0 UV-I 206 W/m 1,2 C -0,9 C 14,5 km/h (3 Bft) 95,12 %
16.01.2023 09:48 2,7 C 5,0 C 1,7 C 90 % 999,1 hPa 0,0 l/m 12,8 km/h (3 Bft) O 83 2 min 0,000 mm 0,0 UV-I 207 W/m 1,2 C -2,4 C 16,1 km/h (3 Bft) 96,43 %
16.01.2023 09:50 2,8 C 5,0 C 1,7 C 89 % 999,0 hPa 0,0 l/m 10,5 km/h (2 Bft) O-NO 66 2 min 0,000 mm 0,0 UV-I 208 W/m 1,2 C -0,7 C 14,5 km/h (3 Bft) 93,18 %
16.01.2023 09:52 2,9 C 5,0 C 1,7 C 89 % 998,9 hPa 0,0 l/m 10,5 km/h (2 Bft) O-NO 59 2 min 0,000 mm 0,0 UV-I 210 W/m 1,3 C -0,6 C 14,5 km/h (3 Bft) 96,00 %
16.01.2023 09:54 3,0 C 5,0 C 1,7 C 89 % 998,8 hPa 0,0 l/m 10,5 km/h (2 Bft) O 98 2 min 0,000 mm 0,0 UV-I 213 W/m 1,4 C -0,5 C 14,5 km/h (3 Bft) 96,00 %
16.01.2023 09:56 3,1 C 5,0 C 1,7 C 88 % 998,7 hPa 0,0 l/m 11,9 km/h (2 Bft) O 84 2 min 0,000 mm 0,0 UV-I 217 W/m 1,3 C -1,4 C 17,7 km/h (3 Bft) 93,62 %
16.01.2023 09:58 3,1 C 5,0 C 2,2 C 88 % 998,6 hPa 0,0 l/m 12,6 km/h (3 Bft) O-NO 69 2 min 0,000 mm 0,0 UV-I 220 W/m 1,3 C -1,8 C 16,1 km/h (3 Bft) 97,37 %
16.01.2023 10:00 3,2 C 5,0 C 2,2 C 87 % 998,6 hPa 0,0 l/m 12,8 km/h (3 Bft) O-NO 75 2 min 0,077 mm 0,0 UV-I 222 W/m 1,2 C -1,8 C 16,1 km/h (3 Bft) 94,00 %
16.01.2023 10:02 3,3 C 5,0 C 2,2 C 87 % 998,5 hPa 0,0 l/m 12,3 km/h (3 Bft) O 89 2 min 0,000 mm 0,0 UV-I 227 W/m 1,3 C -1,4 C 17,7 km/h (3 Bft) 96,08 %
16.01.2023 10:04 3,4 C 5,0 C 2,2 C 86 % 998,4 hPa 0,0 l/m 11,3 km/h (2 Bft) O-SO 112 2 min 0,000 mm 0,0 UV-I 230 W/m 1,3 C -0,6 C 17,7 km/h (3 Bft) 97,56 %
16.01.2023 10:06 3,5 C 5,0 C 2,2 C 86 % 998,3 hPa 0,0 l/m 11,5 km/h (2 Bft) NO 52 2 min 0,000 mm 0,0 UV-I 231 W/m 1,4 C -0,6 C 17,7 km/h (3 Bft) 93,62 %
16.01.2023 10:08 3,6 C 5,0 C 2,2 C 85 % 998,2 hPa 0,0 l/m 9,4 km/h (2 Bft) O-NO 66 2 min 0,000 mm 0,0 UV-I 234 W/m 1,3 C 1,0 C 14,5 km/h (3 Bft) 98,11 %
16.01.2023 10:10 3,7 C 5,0 C 2,2 C 86 % 998,1 hPa 0,0 l/m 11,3 km/h (2 Bft) O 101 2 min 0,000 mm 0,0 UV-I 237 W/m 1,6 C -0,3 C 16,1 km/h (3 Bft) 97,37 %
16.01.2023 10:12 3,8 C 5,0 C 2,2 C 86 % 998,0 hPa 0,0 l/m 12,5 km/h (3 Bft) O-SO 104 2 min 0,000 mm 0,0 UV-I 240 W/m 1,7 C -0,9 C 19,3 km/h (3 Bft) 97,87 %
16.01.2023 10:14 3,9 C 5,0 C 2,2 C 85 % 998,0 hPa 0,0 l/m 13,1 km/h (3 Bft) O-NO 76 2 min 0,000 mm 0,0 UV-I 243 W/m 1,6 C -1,2 C 19,3 km/h (3 Bft) 100,00 %
16.01.2023 10:16 3,9 C 5,0 C 2,8 C 85 % 998,0 hPa 0,0 l/m 15,4 km/h (3 Bft) O 94 2 min 0,000 mm 0,0 UV-I 245 W/m 1,6 C -2,5 C 22,5 km/h (4 Bft) 97,87 %
16.01.2023 10:18 4,0 C 5,0 C 2,8 C 84 % 998,0 hPa 0,0 l/m 13,7 km/h (3 Bft) O-NO 69 2 min 0,000 mm 0,0 UV-I 248 W/m 1,5 C -1,4 C 17,7 km/h (3 Bft) 100,00 %
16.01.2023 10:20 4,1 C 5,0 C 2,8 C 84 % 997,9 hPa 0,0 l/m 13,5 km/h (3 Bft) O-NO 75 2 min 0,000 mm 0,0 UV-I 251 W/m 1,6 C -1,2 C 17,7 km/h (3 Bft) 100,00 %
16.01.2023 10:22 4,2 C 5,0 C 2,8 C 83 % 997,9 hPa 0,0 l/m 14,0 km/h (3 Bft) O 99 2 min 0,000 mm 0,0 UV-I 253 W/m 1,6 C -1,4 C 19,3 km/h (3 Bft) 100,00 %
16.01.2023 10:24 4,3 C 5,0 C 2,8 C 83 % 997,9 hPa 0,0 l/m 16,8 km/h (3 Bft) O 88 2 min 0,000 mm 0,0 UV-I 257 W/m 1,7 C -2,7 C 22,5 km/h (4 Bft) 100,00 %
16.01.2023 10:26 4,4 C 5,0 C 2,8 C 81 % 997,8 hPa 0,0 l/m 13,9 km/h (3 Bft) O-NO 72 2 min 0,000 mm 0,0 UV-I 259 W/m 1,4 C -1,1 C 24,1 km/h (4 Bft) 100,00 %
16.01.2023 10:28 4,5 C 5,0 C 2,8 C 81 % 997,8 hPa 0,0 l/m 13,5 km/h (3 Bft) O 82 2 min 0,000 mm 0,0 UV-I 261 W/m 1,5 C -0,7 C 17,7 km/h (3 Bft) 100,00 %
16.01.2023 10:30 4,5 C 5,0 C 2,8 C 81 % 997,6 hPa 0,0 l/m 15,2 km/h (3 Bft) O 84 2 min 0,000 mm 0,0 UV-I 264 W/m 1,5 C -1,6 C 22,5 km/h (4 Bft) 100,00 %
16.01.2023 10:32 4,6 C 5,0 C 2,8 C 80 % 997,6 hPa 0,0 l/m 14,9 km/h (3 Bft) O-NO 70 2 min 0,000 mm 0,0 UV-I 266 W/m 1,5 C -1,4 C 19,3 km/h (3 Bft) 100,00 %
16.01.2023 10:34 4,5 C 5,0 C 2,8 C 81 % 997,5 hPa 0,0 l/m 17,2 km/h (3 Bft) O 86 2 min 0,000 mm 0,0 UV-I 269 W/m 1,5 C -2,6 C 22,5 km/h (4 Bft) 100,00 %
16.01.2023 10:36 4,4 C 5,0 C 2,8 C 82 % 997,5 hPa 0,0 l/m 17,7 km/h (3 Bft) O-NO 70 2 min 0,000 mm 0,0 UV-I 271 W/m 1,6 C -3,0 C 22,5 km/h (4 Bft) 100,00 %
16.01.2023 10:38 4,3 C 5,0 C 3,3 C 83 % 997,4 hPa 0,0 l/m 16,9 km/h (3 Bft) O-NO 71 2 min 0,000 mm 0,0 UV-I 274 W/m 1,7 C -2,7 C 24,1 km/h (4 Bft) 100,00 %
16.01.2023 10:40 4,3 C 5,0 C 3,3 C 83 % 997,4 hPa 0,0 l/m 16,3 km/h (3 Bft) O 86 2 min 0,000 mm 0,0 UV-I 275 W/m 1,7 C -2,4 C 20,9 km/h (4 Bft) 100,00 %
16.01.2023 10:42 4,3 C 5,0 C 3,3 C 83 % 997,3 hPa 0,0 l/m 16,7 km/h (3 Bft) O 84 2 min 0,000 mm 0,3 UV-I 278 W/m 1,7 C -2,6 C 22,5 km/h (4 Bft) 100,00 %
16.01.2023 10:44 4,4 C 5,0 C 3,3 C 83 % 997,2 hPa 0,0 l/m 18,0 km/h (3 Bft) O-NO 63 2 min 0,000 mm 0,5 UV-I 280 W/m 1,8 C -3,1 C 24,1 km/h (4 Bft) 100,00 %
16.01.2023 10:46 4,4 C 5,0 C 3,3 C 82 % 997,2 hPa 0,0 l/m 16,6 km/h (3 Bft) O-NO 71 2 min 0,000 mm 0,5 UV-I 282 W/m 1,6 C -2,5 C 24,1 km/h (4 Bft) 100,00 %
16.01.2023 10:48 4,5 C 5,0 C 3,9 C 83 % 997,1 hPa 0,0 l/m 12,5 km/h (3 Bft) O 85 2 min 0,000 mm 0,5 UV-I 285 W/m 1,9 C -0,1 C 19,3 km/h (3 Bft) 100,00 %
16.01.2023 10:50 4,7 C 5,0 C 3,9 C 83 % 997,0 hPa 0,0 l/m 13,2 km/h (3 Bft) O-NO 71 2 min 0,000 mm 0,5 UV-I 287 W/m 2,1 C -0,3 C 19,3 km/h (3 Bft) 96,00 %
16.01.2023 10:52 4,8 C 5,0 C 4,4 C 82 % 996,8 hPa 0,0 l/m 17,2 km/h (3 Bft) O-NO 63 2 min 0,000 mm 0,5 UV-I 289 W/m 2,0 C -2,2 C 25,7 km/h (4 Bft) 100,00 %
16.01.2023 10:54 4,8 C 5,0 C 4,4 C 81 % 996,7 hPa 0,0 l/m 15,4 km/h (3 Bft) O 94 2 min 0,000 mm 0,5 UV-I 291 W/m 1,8 C -1,4 C 24,1 km/h (4 Bft) 98,11 %
16.01.2023 10:56 4,9 C 5,0 C 4,4 C 80 % 996,7 hPa 0,0 l/m 20,2 km/h (4 Bft) O 92 2 min 0,000 mm 0,5 UV-I 293 W/m 1,7 C -3,4 C 29,0 km/h (5 Bft) 96,00 %
16.01.2023 10:58 5,1 C 5,0 C 4,4 C 80 % 996,6 hPa 0,0 l/m 17,9 km/h (3 Bft) O-NO 77 2 min 0,000 mm 0,5 UV-I 295 W/m 1,9 C -2,2 C 22,5 km/h (4 Bft) 98,00 %
16.01.2023 11:00 5,1 C 5,0 C 5,0 C 80 % 996,5 hPa 0,0 l/m 19,8 km/h (3 Bft) NO 53 2 min 0,127 mm 0,5 UV-I 296 W/m 1,9 C -3,0 C 29,0 km/h (5 Bft) 98,00 %
16.01.2023 11:02 5,2 C 5,0 C 5,0 C 80 % 996,5 hPa 0,0 l/m 15,8 km/h (3 Bft) O-NO 59 2 min 0,000 mm 0,5 UV-I 298 W/m 2,0 C -1,1 C 22,5 km/h (4 Bft) 97,30 %
16.01.2023 11:04 5,3 C 5,0 C 5,0 C 80 % 996,4 hPa 0,0 l/m 16,0 km/h (3 Bft) O 87 2 min 0,000 mm 0,5 UV-I 300 W/m 2,1 C -1,1 C 22,5 km/h (4 Bft) 98,11 %
16.01.2023 11:06 5,3 C 5,0 C 5,0 C 79 % 996,4 hPa 0,0 l/m 15,7 km/h (3 Bft) O 96 2 min 0,000 mm 0,5 UV-I 302 W/m 2,0 C -0,9 C 22,5 km/h (4 Bft) 98,00 %
16.01.2023 11:08 5,4 C 5,0 C 5,0 C 78 % 996,3 hPa 0,0 l/m 17,2 km/h (3 Bft) O-NO 74 2 min 0,000 mm 0,5 UV-I 303 W/m 1,9 C -1,5 C 25,7 km/h (4 Bft) 95,74 %
16.01.2023 11:10 5,5 C 5,0 C 5,0 C 77 % 996,3 hPa 0,0 l/m 18,3 km/h (3 Bft) O 84 2 min 0,000 mm 0,5 UV-I 305 W/m 1,8 C -1,8 C 24,1 km/h (4 Bft) 97,87 %
16.01.2023 11:12 5,6 C 5,0 C 5,0 C 77 % 996,1 hPa 0,0 l/m 16,5 km/h (3 Bft) O-SO 105 2 min 0,000 mm 0,5 UV-I 307 W/m 1,9 C -0,9 C 27,4 km/h (4 Bft) 95,74 %
16.01.2023 11:14 5,7 C 5,0 C 5,0 C 77 % 996,1 hPa 0,0 l/m 14,3 km/h (3 Bft) O 98 2 min 0,000 mm 0,5 UV-I 308 W/m 2,0 C 0,3 C 19,3 km/h (3 Bft) 97,87 %
16.01.2023 11:16 5,8 C 5,0 C 5,0 C 77 % 996,0 hPa 0,0 l/m 14,5 km/h (3 Bft) O 92 2 min 0,000 mm 0,5 UV-I 309 W/m 2,1 C 0,3 C 19,3 km/h (3 Bft) 94,74 %
16.01.2023 11:18 5,8 C 5,0 C 5,0 C 76 % 995,9 hPa 0,0 l/m 17,9 km/h (3 Bft) O-NO 73 2 min 0,000 mm 0,5 UV-I 311 W/m 1,9 C -1,3 C 22,5 km/h (4 Bft) 98,00 %
16.01.2023 11:20 5,7 C 5,0 C 5,0 C 76 % 995,8 hPa 0,0 l/m 17,5 km/h (3 Bft) O-NO 61 2 min 0,000 mm 0,6 UV-I 313 W/m 1,8 C -1,2 C 20,9 km/h (4 Bft) 97,87 %
16.01.2023 11:22 5,7 C 5,0 C 5,0 C 76 % 995,7 hPa 0,0 l/m 20,0 km/h (4 Bft) NO 55 2 min 0,000 mm 0,6 UV-I 314 W/m 1,8 C -2,3 C 25,7 km/h (4 Bft) 97,56 %
16.01.2023 11:24 5,8 C 5,0 C 5,0 C 76 % 995,6 hPa 0,0 l/m 19,0 km/h (3 Bft) O-NO 71 2 min 0,000 mm 0,6 UV-I 315 W/m 1,9 C -1,7 C 25,7 km/h (4 Bft) 97,87 %
16.01.2023 11:26 5,8 C 5,0 C 5,0 C 75 % 995,6 hPa 0,0 l/m 20,1 km/h (4 Bft) O-NO 72 2 min 0,000 mm 0,6 UV-I 316 W/m 1,7 C -2,2 C 27,4 km/h (4 Bft) 97,87 %
16.01.2023 11:28 5,8 C 5,0 C 5,0 C 74 % 995,5 hPa 0,0 l/m 19,0 km/h (3 Bft) O 85 2 min 0,000 mm 0,6 UV-I 317 W/m 1,5 C -1,7 C 27,4 km/h (4 Bft) 97,73 %
16.01.2023 11:30 5,9 C 5,0 C 5,0 C 74 % 995,4 hPa 0,0 l/m 17,7 km/h (3 Bft) O-NO 62 2 min 0,000 mm 0,6 UV-I 318 W/m 1,6 C -1,1 C 27,4 km/h (4 Bft) 96,00 %
16.01.2023 11:32 6,0 C 5,0 C 5,0 C 72 % 995,4 hPa 0,0 l/m 22,2 km/h (4 Bft) O 84 2 min 0,000 mm 0,6 UV-I 320 W/m 1,3 C -2,7 C 30,6 km/h (5 Bft) 96,23 %
16.01.2023 11:34 6,1 C 5,0 C 5,0 C 72 % 995,3 hPa 0,0 l/m 19,6 km/h (3 Bft) O 90 2 min 0,000 mm 0,6 UV-I 321 W/m 1,4 C -1,6 C 30,6 km/h (5 Bft) 100,00 %
16.01.2023 11:36 6,2 C 5,0 C 5,0 C 72 % 995,3 hPa 0,0 l/m 18,5 km/h (3 Bft) O 90 2 min 0,000 mm 0,6 UV-I 322 W/m 1,5 C -1,0 C 24,1 km/h (4 Bft) 97,56 %
16.01.2023 11:38 6,3 C 5,0 C 5,0 C 71 % 995,2 hPa 0,0 l/m 15,3 km/h (3 Bft) O-NO 57 2 min 0,000 mm 0,6 UV-I 322 W/m 1,4 C 0,5 C 24,1 km/h (4 Bft) 95,74 %
16.01.2023 11:40 6,3 C 5,0 C 5,0 C 70 % 995,1 hPa 0,0 l/m 20,4 km/h (4 Bft) O 95 2 min 0,000 mm 0,6 UV-I 323 W/m 1,2 C -1,6 C 30,6 km/h (5 Bft) 98,00 %
16.01.2023 11:42 6,4 C 5,0 C 5,0 C 69 % 995,1 hPa 0,0 l/m 20,6 km/h (4 Bft) O 82 2 min 0,000 mm 0,6 UV-I 325 W/m 1,1 C -1,6 C 30,6 km/h (5 Bft) 97,87 %
16.01.2023 11:44 6,4 C 5,0 C 5,6 C 68 % 995,0 hPa 0,0 l/m 20,1 km/h (4 Bft) O 80 2 min 0,000 mm 0,6 UV-I 325 W/m 0,9 C -1,4 C 29,0 km/h (5 Bft) 97,56 %
16.01.2023 11:46 6,4 C 5,0 C 5,6 C 69 % 994,9 hPa 0,0 l/m 20,7 km/h (4 Bft) O 81 2 min 0,000 mm 0,6 UV-I 326 W/m 1,1 C -1,6 C 25,7 km/h (4 Bft) 98,21 %
16.01.2023 11:48 6,4 C 5,0 C 5,6 C 69 % 994,8 hPa 0,0 l/m 22,4 km/h (4 Bft) SO 126 2 min 0,000 mm 0,6 UV-I 327 W/m 1,1 C -2,2 C 30,6 km/h (5 Bft) 97,37 %
16.01.2023 11:50 6,4 C 5,0 C 5,6 C 70 % 994,8 hPa 0,0 l/m 16,7 km/h (3 Bft) O-NO 64 2 min 0,000 mm 0,6 UV-I 327 W/m 1,3 C -0,0 C 22,5 km/h (4 Bft) 98,00 %
16.01.2023 11:52 6,4 C 5,0 C 5,6 C 69 % 994,7 hPa 0,0 l/m 20,4 km/h (4 Bft) O-SO 106 2 min 0,000 mm 0,6 UV-I 328 W/m 1,1 C -1,5 C 27,4 km/h (4 Bft) 96,23 %
16.01.2023 11:54 6,5 C 5,0 C 5,6 C 69 % 994,8 hPa 0,0 l/m 19,5 km/h (3 Bft) O 83 2 min 0,000 mm 0,6 UV-I 329 W/m 1,2 C -1,0 C 25,7 km/h (4 Bft) 94,74 %
16.01.2023 11:56 6,6 C 5,0 C 5,6 C 69 % 994,6 hPa 0,0 l/m 18,0 km/h (3 Bft) O-NO 60 2 min 0,000 mm 0,6 UV-I 329 W/m 1,3 C -0,3 C 25,7 km/h (4 Bft) 92,00 %
16.01.2023 11:58 6,6 C 5,0 C 5,6 C 68 % 994,5 hPa 0,0 l/m 15,7 km/h (3 Bft) O 87 2 min 0,000 mm 0,6 UV-I 329 W/m 1,1 C 0,7 C 22,5 km/h (4 Bft) 97,73 %
16.01.2023 12:00 6,6 C 5,0 C 5,6 C 70 % 994,5 hPa 0,0 l/m 15,0 km/h (3 Bft) O-SO 117 2 min 0,177 mm 0,6 UV-I 330 W/m 1,5 C 1,0 C 22,5 km/h (4 Bft) 98,11 %
16.01.2023 12:02 6,7 C 5,0 C 5,6 C 69 % 994,4 hPa 0,0 l/m 16,6 km/h (3 Bft) O 92 2 min 0,000 mm 0,6 UV-I 330 W/m 1,4 C 0,4 C 22,5 km/h (4 Bft) 92,50 %
16.01.2023 12:04 6,8 C 5,0 C 6,1 C 70 % 994,4 hPa 0,0 l/m 15,3 km/h (3 Bft) O 86 2 min 0,000 mm 0,6 UV-I 330 W/m 1,7 C 1,1 C 22,5 km/h (4 Bft) 96,00 %
16.01.2023 12:06 6,8 C 5,0 C 6,1 C 70 % 994,3 hPa 0,0 l/m 14,8 km/h (3 Bft) O-NO 66 2 min 0,000 mm 0,6 UV-I 330 W/m 1,7 C 1,4 C 20,9 km/h (4 Bft) 95,12 %
16.01.2023 12:08 6,8 C 5,0 C 6,7 C 69 % 994,2 hPa 0,0 l/m 16,4 km/h (3 Bft) O 92 2 min 0,000 mm 0,6 UV-I 330 W/m 1,5 C 0,6 C 29,0 km/h (5 Bft) 94,00 %
16.01.2023 12:10 6,9 C 5,0 C 7,2 C 68 % 994,1 hPa 0,0 l/m 16,9 km/h (3 Bft) O 87 2 min 0,000 mm 0,6 UV-I 330 W/m 1,4 C 0,5 C 22,5 km/h (4 Bft) 96,23 %
16.01.2023 12:12 6,9 C 5,0 C 7,2 C 68 % 994,0 hPa 0,0 l/m 12,7 km/h (3 Bft) O-NO 77 2 min 0,000 mm 0,6 UV-I 330 W/m 1,4 C 2,6 C 16,1 km/h (3 Bft) 94,74 %
16.01.2023 12:14 7,1 C 5,0 C 7,2 C 67 % 993,8 hPa 0,0 l/m 21,4 km/h (4 Bft) O 95 2 min 0,000 mm 0,6 UV-I 330 W/m 1,4 C -1,0 C 29,0 km/h (5 Bft) 95,74 %
16.01.2023 12:16 7,1 C 5,0 C 7,2 C 67 % 993,8 hPa 0,0 l/m 20,2 km/h (4 Bft) O 89 2 min 0,000 mm 0,6 UV-I 330 W/m 1,4 C -0,5 C 25,7 km/h (4 Bft) 92,00 %
16.01.2023 12:18 7,2 C 5,0 C 6,7 C 68 % 993,8 hPa 0,0 l/m 16,1 km/h (3 Bft) O 88 2 min 0,000 mm 0,6 UV-I 330 W/m 1,7 C 1,2 C 24,1 km/h (4 Bft) 93,62 %
16.01.2023 12:20 7,3 C 5,0 C 7,2 C 66 % 993,7 hPa 0,0 l/m 16,7 km/h (3 Bft) O 95 2 min 0,000 mm 0,6 UV-I 330 W/m 1,4 C 1,1 C 27,4 km/h (4 Bft) 93,62 %
16.01.2023 12:22 7,3 C 5,0 C 7,2 C 64 % 993,6 hPa 0,0 l/m 24,0 km/h (4 Bft) O-SO 116 2 min 0,000 mm 0,6 UV-I 329 W/m 1,0 C -1,5 C 32,2 km/h (5 Bft) 100,00 %
16.01.2023 12:24 7,2 C 5,0 C 7,2 C 64 % 993,6 hPa 0,0 l/m 23,2 km/h (4 Bft) O 96 2 min 0,000 mm 0,6 UV-I 330 W/m 0,9 C -1,4 C 30,6 km/h (5 Bft) 95,74 %
16.01.2023 12:26 7,2 C 5,0 C 7,2 C 62 % 993,4 hPa 0,0 l/m 22,5 km/h (4 Bft) O 83 2 min 0,000 mm 0,6 UV-I 329 W/m 0,4 C -1,2 C 30,6 km/h (5 Bft) 96,23 %
16.01.2023 12:28 7,1 C 5,0 C 6,7 C 63 % 993,3 hPa 0,0 l/m 18,5 km/h (3 Bft) NO 56 2 min 0,000 mm 0,6 UV-I 329 W/m 0,5 C 0,1 C 30,6 km/h (5 Bft) 97,14 %
16.01.2023 12:30 7,1 C 5,0 C 6,7 C 65 % 993,3 hPa 0,0 l/m 18,0 km/h (3 Bft) O 96 2 min 0,000 mm 0,6 UV-I 328 W/m 1,0 C 0,3 C 27,4 km/h (4 Bft) 98,21 %
16.01.2023 12:32 7,1 C 5,0 C 6,7 C 64 % 993,2 hPa 0,0 l/m 22,9 km/h (4 Bft) O 87 2 min 0,000 mm 0,6 UV-I 328 W/m 0,8 C -1,5 C 35,4 km/h (5 Bft) 97,73 %
16.01.2023 12:34 7,1 C 5,0 C 7,2 C 65 % 993,1 hPa 0,0 l/m 19,8 km/h (3 Bft) O 90 2 min 0,000 mm 0,6 UV-I 327 W/m 1,0 C -0,4 C 25,7 km/h (4 Bft) 92,59 %
16.01.2023 12:36 7,1 C 5,0 C 7,2 C 65 % 993,1 hPa 0,0 l/m 19,2 km/h (3 Bft) O-SO 102 2 min 0,000 mm 0,6 UV-I 326 W/m 1,0 C -0,2 C 25,7 km/h (4 Bft) 95,89 %
16.01.2023 12:38 7,1 C 5,0 C 6,7 C 65 % 993,0 hPa 0,0 l/m 18,1 km/h (3 Bft) O 98 2 min 0,000 mm 0,6 UV-I 325 W/m 1,0 C 0,3 C 24,1 km/h (4 Bft) 95,12 %
16.01.2023 12:40 7,1 C 5,0 C 6,7 C 64 % 993,0 hPa 0,0 l/m 17,7 km/h (3 Bft) O-SO 105 2 min 0,000 mm 0,6 UV-I 325 W/m 0,8 C 0,4 C 27,4 km/h (4 Bft) 94,00 %
16.01.2023 12:42 7,1 C 5,0 C 6,7 C 66 % 992,9 hPa 0,0 l/m 15,8 km/h (3 Bft) O-NO 66 2 min 0,000 mm 0,6 UV-I 323 W/m 1,2 C 1,3 C 22,5 km/h (4 Bft) 95,74 %
16.01.2023 12:44 7,1 C 5,0 C 7,2 C 67 % 992,8 hPa 0,0 l/m 17,5 km/h (3 Bft) O-SO 109 2 min 0,000 mm 0,6 UV-I 323 W/m 1,4 C 0,5 C 27,4 km/h (4 Bft) 95,45 %
16.01.2023 12:46 7,1 C 5,0 C 7,2 C 65 % 992,8 hPa 0,0 l/m 20,7 km/h (4 Bft) O-NO 59 2 min 0,000 mm 0,6 UV-I 322 W/m 1,0 C -0,7 C 29,0 km/h (5 Bft) 94,74 %
16.01.2023 12:48 7,0 C 5,0 C 6,7 C 65 % 992,7 hPa 0,0 l/m 23,7 km/h (4 Bft) O-NO 72 2 min 0,000 mm 0,6 UV-I 322 W/m 0,9 C -1,8 C 30,6 km/h (5 Bft) 94,34 %
16.01.2023 12:50 6,9 C 5,0 C 6,7 C 67 % 992,7 hPa 0,0 l/m 20,8 km/h (4 Bft) O 89 2 min 0,000 mm 0,6 UV-I 320 W/m 1,2 C -1,0 C 29,0 km/h (5 Bft) 96,00 %
16.01.2023 12:52 6,9 C 5,0 C 6,7 C 66 % 992,5 hPa 0,0 l/m 20,7 km/h (4 Bft) O 94 2 min 0,000 mm 0,6 UV-I 319 W/m 1,0 C -1,0 C 33,8 km/h (5 Bft) 94,44 %
16.01.2023 12:54 6,9 C 5,0 C 6,1 C 67 % 992,4 hPa 0,0 l/m 21,9 km/h (4 Bft) O-SO 119 2 min 0,000 mm 0,6 UV-I 318 W/m 1,2 C -1,4 C 29,0 km/h (5 Bft) 95,08 %
16.01.2023 12:56 6,9 C 5,0 C 6,7 C 67 % 992,3 hPa 0,0 l/m 23,4 km/h (4 Bft) O-NO 67 2 min 0,000 mm 0,6 UV-I 316 W/m 1,2 C -1,9 C 30,6 km/h (5 Bft) 95,74 %
16.01.2023 12:58 6,9 C 5,0 C 7,2 C 67 % 992,2 hPa 0,0 l/m 20,3 km/h (4 Bft) O-NO 70 2 min 0,000 mm 0,6 UV-I 315 W/m 1,2 C -0,8 C 25,7 km/h (4 Bft) 97,37 %
16.01.2023 13:00 7,0 C 5,0 C 7,2 C 68 % 992,2 hPa 0,0 l/m 17,2 km/h (3 Bft) O 80 2 min 0,000 mm 0,6 UV-I 315 W/m 1,5 C 0,5 C 22,5 km/h (4 Bft) 93,62 %
16.01.2023 13:02 7,0 C 5,0 C 6,7 C 67 % 992,1 hPa 0,0 l/m 23,8 km/h (4 Bft) O 87 2 min 0,204 mm 0,6 UV-I 313 W/m 1,3 C -1,9 C 29,0 km/h (5 Bft) 94,23 %
16.01.2023 13:04 6,9 C 5,0 C 6,7 C 67 % 992,0 hPa 0,0 l/m 25,3 km/h (4 Bft) O-NO 67 2 min 0,000 mm 0,6 UV-I 313 W/m 1,2 C -2,5 C 32,2 km/h (5 Bft) 97,37 %
16.01.2023 13:06 6,8 C 5,0 C 6,7 C 68 % 992,0 hPa 0,0 l/m 22,0 km/h (4 Bft) O 101 2 min 0,000 mm 0,6 UV-I 311 W/m 1,3 C -1,6 C 29,0 km/h (5 Bft) 97,62 %
16.01.2023 13:08 6,8 C 5,0 C 6,7 C 69 % 991,9 hPa 0,0 l/m 20,8 km/h (4 Bft) O-NO 74 2 min 0,000 mm 0,6 UV-I 309 W/m 1,5 C -1,1 C 27,4 km/h (4 Bft) 96,36 %
16.01.2023 13:10 6,8 C 5,0 C 6,7 C 70 % 991,8 hPa 0,0 l/m 21,1 km/h (4 Bft) O 82 2 min 0,000 mm 0,6 UV-I 307 W/m 1,7 C -1,2 C 27,4 km/h (4 Bft) 98,21 %
16.01.2023 13:12 6,8 C 5,0 C 6,7 C 69 % 991,7 hPa 0,0 l/m 19,4 km/h (3 Bft) O-NO 74 2 min 0,000 mm 0,6 UV-I 301 W/m 1,5 C -0,6 C 24,1 km/h (4 Bft) 94,87 %
16.01.2023 13:14 6,8 C 5,0 C 6,7 C 70 % 991,6 hPa 0,0 l/m 23,1 km/h (4 Bft) O 80 2 min 0,000 mm 0,5 UV-I 302 W/m 1,7 C -1,9 C 29,0 km/h (5 Bft) 97,83 %
16.01.2023 13:16 6,7 C 5,0 C 6,7 C 71 % 991,6 hPa 0,0 l/m 20,5 km/h (4 Bft) O 90 2 min 0,000 mm 0,5 UV-I 302 W/m 1,8 C -1,2 C 25,7 km/h (4 Bft) 98,21 %
16.01.2023 13:18 6,7 C 5,0 C 6,7 C 70 % 991,6 hPa 0,0 l/m 23,0 km/h (4 Bft) O-NO 67 2 min 0,000 mm 0,5 UV-I 300 W/m 1,6 C -2,0 C 30,6 km/h (5 Bft) 95,45 %
16.01.2023 13:20 6,7 C 5,0 C 6,7 C 70 % 991,5 hPa 0,0 l/m 22,8 km/h (4 Bft) O-NO 68 2 min 0,000 mm 0,5 UV-I 298 W/m 1,6 C -2,0 C 30,6 km/h (5 Bft) 94,87 %
16.01.2023 13:22 6,7 C 5,0 C 6,7 C 70 % 991,4 hPa 0,0 l/m 23,9 km/h (4 Bft) O 89 2 min 0,000 mm 0,5 UV-I 296 W/m 1,6 C -2,3 C 32,2 km/h (5 Bft) 96,23 %
16.01.2023 13:24 6,7 C 5,0 C 6,7 C 70 % 991,4 hPa 0,0 l/m 20,8 km/h (4 Bft) O 84 2 min 0,000 mm 0,5 UV-I 291 W/m 1,6 C -1,3 C 27,4 km/h (4 Bft) 93,62 %
16.01.2023 13:26 6,8 C 5,0 C 6,7 C 72 % 991,3 hPa 0,0 l/m 19,3 km/h (3 Bft) O-NO 69 2 min 0,000 mm 0,5 UV-I 289 W/m 2,1 C -0,6 C 30,6 km/h (5 Bft) 95,12 %
16.01.2023 13:28 6,8 C 5,0 C 6,7 C 70 % 991,2 hPa 0,0 l/m 24,2 km/h (4 Bft) O 97 2 min 0,000 mm 0,5 UV-I 287 W/m 1,7 C -2,3 C 30,6 km/h (5 Bft) 91,49 %
16.01.2023 13:30 6,8 C 5,0 C 6,7 C 70 % 991,2 hPa 0,0 l/m 20,4 km/h (4 Bft) O 85 2 min 0,000 mm 0,5 UV-I 286 W/m 1,7 C -1,0 C 27,4 km/h (4 Bft) 96,36 %
16.01.2023 13:32 6,8 C 5,0 C 6,7 C 70 % 991,1 hPa 0,0 l/m 19,9 km/h (4 Bft) O-NO 78 2 min 0,000 mm 0,5 UV-I 282 W/m 1,7 C -0,8 C 27,4 km/h (4 Bft) 95,24 %
16.01.2023 13:34 6,9 C 5,0 C 6,7 C 70 % 991,1 hPa 0,0 l/m 22,9 km/h (4 Bft) O-NO 70 2 min 0,000 mm 0,5 UV-I 280 W/m 1,8 C -1,7 C 32,2 km/h (5 Bft) 93,62 %
16.01.2023 13:36 6,9 C 5,0 C 6,7 C 70 % 991,1 hPa 0,0 l/m 21,1 km/h (4 Bft) O 98 2 min 0,000 mm 0,5 UV-I 278 W/m 1,8 C -1,1 C 29,0 km/h (5 Bft) 93,88 %
16.01.2023 13:38 6,9 C 5,0 C 7,2 C 71 % 990,9 hPa 0,0 l/m 20,6 km/h (4 Bft) O-NO 69 2 min 0,000 mm 0,5 UV-I 276 W/m 2,0 C -0,9 C 25,7 km/h (4 Bft) 96,00 %
16.01.2023 13:40 6,9 C 5,0 C 6,7 C 69 % 990,9 hPa 0,0 l/m 23,9 km/h (4 Bft) O-NO 59 2 min 0,000 mm 0,5 UV-I 274 W/m 1,6 C -2,0 C 32,2 km/h (5 Bft) 97,87 %
16.01.2023 13:42 6,9 C 5,0 C 7,2 C 70 % 990,9 hPa 0,0 l/m 18,9 km/h (3 Bft) O-NO 74 2 min 0,000 mm 0,5 UV-I 272 W/m 1,8 C -0,3 C 25,7 km/h (4 Bft) 97,22 %
16.01.2023 13:44 6,9 C 5,0 C 7,2 C 72 % 990,8 hPa 0,0 l/m 15,3 km/h (3 Bft) O 93 2 min 0,000 mm 0,3 UV-I 270 W/m 2,2 C 1,2 C 20,9 km/h (4 Bft) 98,11 %
16.01.2023 13:46 6,9 C 5,0 C 7,2 C 72 % 990,8 hPa 0,0 l/m 19,0 km/h (3 Bft) O-NO 73 2 min 0,000 mm 0,5 UV-I 267 W/m 2,2 C -0,3 C 27,4 km/h (4 Bft) 96,15 %
16.01.2023 13:48 6,9 C 5,0 C 6,7 C 71 % 990,8 hPa 0,0 l/m 21,0 km/h (4 Bft) O 80 2 min 0,000 mm 0,3 UV-I 265 W/m 2,0 C -1,1 C 29,0 km/h (5 Bft) 100,00 %
16.01.2023 13:50 6,8 C 5,0 C 6,7 C 71 % 990,7 hPa 0,0 l/m 21,4 km/h (4 Bft) O-NO 74 2 min 0,000 mm 0,0 UV-I 263 W/m 1,9 C -1,3 C 29,0 km/h (5 Bft) 97,73 %
16.01.2023 13:52 6,8 C 5,0 C 6,7 C 73 % 990,7 hPa 0,0 l/m 15,9 km/h (3 Bft) NO 46 2 min 0,000 mm 0,0 UV-I 258 W/m 2,3 C 0,8 C 22,5 km/h (4 Bft) 96,23 %
16.01.2023 13:54 6,8 C 5,0 C 6,7 C 72 % 990,5 hPa 0,0 l/m 19,4 km/h (3 Bft) NO 53 2 min 0,000 mm 0,0 UV-I 257 W/m 2,1 C -0,6 C 29,0 km/h (5 Bft) 98,00 %
16.01.2023 13:56 6,7 C 5,0 C 6,7 C 72 % 990,6 hPa 0,0 l/m 19,6 km/h (3 Bft) N-NO 26 2 min 0,000 mm 0,0 UV-I 254 W/m 2,0 C -0,8 C 25,7 km/h (4 Bft) 97,56 %
16.01.2023 13:58 6,7 C 5,0 C 6,1 C 72 % 990,6 hPa 0,0 l/m 19,0 km/h (3 Bft) O-NO 72 2 min 0,000 mm 0,0 UV-I 253 W/m 2,0 C -0,6 C 27,4 km/h (4 Bft) 96,00 %
16.01.2023 14:00 6,8 C 5,0 C 6,1 C 72 % 990,6 hPa 0,0 l/m 18,2 km/h (3 Bft) O 101 2 min 0,177 mm 0,0 UV-I 251 W/m 2,1 C -0,2 C 24,1 km/h (4 Bft) 97,67 %
16.01.2023 14:02 6,8 C 5,0 C 6,1 C 72 % 990,5 hPa 0,0 l/m 18,8 km/h (3 Bft) O-NO 67 2 min 0,000 mm 0,0 UV-I 249 W/m 2,1 C -0,4 C 27,4 km/h (4 Bft) 97,67 %
16.01.2023 14:04 6,8 C 5,0 C 6,1 C 72 % 990,5 hPa 0,0 l/m 17,7 km/h (3 Bft) O-NO 63 2 min 0,000 mm 0,0 UV-I 244 W/m 2,1 C 0,1 C 24,1 km/h (4 Bft) 97,73 %
16.01.2023 14:06 6,8 C 5,0 C 6,1 C 71 % 990,6 hPa 0,0 l/m 18,7 km/h (3 Bft) NO 55 2 min 0,000 mm 0,0 UV-I 243 W/m 1,9 C -0,3 C 24,1 km/h (4 Bft) 93,55 %
16.01.2023 14:08 6,8 C 5,0 C 6,1 C 72 % 990,4 hPa 0,0 l/m 16,1 km/h (3 Bft) O-NO 69 2 min 0,000 mm 0,0 UV-I 240 W/m 2,1 C 0,7 C 24,1 km/h (4 Bft) 96,15 %
16.01.2023 14:10 6,8 C 5,0 C 6,1 C 72 % 990,3 hPa 0,0 l/m 18,2 km/h (3 Bft) O 90 2 min 0,000 mm 0,0 UV-I 239 W/m 2,1 C -0,2 C 27,4 km/h (4 Bft) 92,31 %
16.01.2023 14:12 6,8 C 5,0 C 6,1 C 71 % 990,2 hPa 0,0 l/m 15,6 km/h (3 Bft) O-NO 57 2 min 0,000 mm 0,0 UV-I 234 W/m 1,9 C 1,0 C 22,5 km/h (4 Bft) 95,74 %
16.01.2023 14:14 6,8 C 5,0 C 6,1 C 72 % 990,3 hPa 0,0 l/m 17,1 km/h (3 Bft) O 80 2 min 0,000 mm 0,0 UV-I 230 W/m 2,1 C 0,3 C 25,7 km/h (4 Bft) 95,12 %
16.01.2023 14:16 6,8 C 5,0 C 6,1 C 71 % 990,1 hPa 0,0 l/m 22,0 km/h (4 Bft) O-NO 65 2 min 0,000 mm 0,0 UV-I 228 W/m 1,9 C -1,6 C 29,0 km/h (5 Bft) 95,74 %
16.01.2023 14:18 6,8 C 5,0 C 6,1 C 71 % 990,2 hPa 0,0 l/m 18,3 km/h (3 Bft) O 90 2 min 0,000 mm 0,0 UV-I 225 W/m 1,9 C -0,2 C 24,1 km/h (4 Bft) 95,74 %
16.01.2023 14:20 6,8 C 5,0 C 6,1 C 71 % 990,0 hPa 0,0 l/m 17,3 km/h (3 Bft) O-NO 74 2 min 0,000 mm 0,0 UV-I 221 W/m 1,9 C 0,2 C 25,7 km/h (4 Bft) 94,00 %
16.01.2023 14:22 6,8 C 5,0 C 6,1 C 70 % 990,0 hPa 0,0 l/m 22,7 km/h (4 Bft) O-NO 65 2 min 0,000 mm 0,0 UV-I 219 W/m 1,7 C -1,8 C 30,6 km/h (5 Bft) 92,68 %
16.01.2023 14:24 6,8 C 5,0 C 6,1 C 71 % 989,9 hPa 0,0 l/m 19,5 km/h (3 Bft) O-NO 76 2 min 0,000 mm 0,0 UV-I 216 W/m 1,9 C -0,7 C 24,1 km/h (4 Bft) 96,00 %
16.01.2023 14:26 6,8 C 5,0 C 6,1 C 71 % 989,8 hPa 0,0 l/m 17,2 km/h (3 Bft) O-NO 73 2 min 0,000 mm 0,0 UV-I 213 W/m 1,9 C 0,3 C 20,9 km/h (4 Bft) 95,74 %
16.01.2023 14:28 6,8 C 5,0 C 6,1 C 71 % 989,8 hPa 0,0 l/m 15,3 km/h (3 Bft) O-NO 65 2 min 0,000 mm 0,0 UV-I 210 W/m 1,9 C 1,1 C 19,3 km/h (3 Bft) 95,45 %
16.01.2023 14:30 6,9 C 5,0 C 6,1 C 72 % 989,8 hPa 0,0 l/m 15,4 km/h (3 Bft) O-NO 69 2 min 0,000 mm 0,0 UV-I 206 W/m 2,2 C 1,2 C 20,9 km/h (4 Bft) 96,23 %
16.01.2023 14:32 6,9 C 5,0 C 6,1 C 71 % 989,8 hPa 0,0 l/m 18,1 km/h (3 Bft) O 80 2 min 0,000 mm 0,0 UV-I 203 W/m 2,0 C 0,0 C 24,1 km/h (4 Bft) 92,00 %
16.01.2023 14:34 6,9 C 5,0 C 6,1 C 70 % 989,7 hPa 0,0 l/m 16,7 km/h (3 Bft) O-NO 65 2 min 0,000 mm 0,0 UV-I 199 W/m 1,8 C 0,6 C 22,5 km/h (4 Bft) 100,00 %
16.01.2023 14:36 7,0 C 5,0 C 6,1 C 71 % 989,7 hPa 0,0 l/m 16,8 km/h (3 Bft) O-NO 57 2 min 0,000 mm 0,0 UV-I 197 W/m 2,1 C 0,7 C 22,5 km/h (4 Bft) 93,62 %
16.01.2023 14:38 6,9 C 5,0 C 6,1 C 70 % 989,7 hPa 0,0 l/m 16,8 km/h (3 Bft) O 90 2 min 0,000 mm 0,0 UV-I 193 W/m 1,8 C 0,6 C 22,5 km/h (4 Bft) 96,43 %
16.01.2023 14:40 6,9 C 5,0 C 6,1 C 70 % 989,6 hPa 0,0 l/m 16,9 km/h (3 Bft) O-NO 65 2 min 0,000 mm 0,0 UV-I 190 W/m 1,8 C 0,5 C 24,1 km/h (4 Bft) 90,24 %
16.01.2023 14:42 6,9 C 5,0 C 6,1 C 70 % 989,7 hPa 0,0 l/m 18,0 km/h (3 Bft) NO 55 2 min 0,000 mm 0,0 UV-I 187 W/m 1,8 C 0,1 C 24,1 km/h (4 Bft) 96,00 %
16.01.2023 14:44 6,9 C 5,0 C 5,6 C 70 % 989,6 hPa 0,0 l/m 17,5 km/h (3 Bft) O-NO 61 2 min 0,000 mm 0,0 UV-I 183 W/m 1,8 C 0,3 C 24,1 km/h (4 Bft) 95,74 %
16.01.2023 14:46 6,9 C 5,0 C 5,6 C 71 % 989,6 hPa 0,0 l/m 18,3 km/h (3 Bft) O-NO 61 2 min 0,000 mm 0,0 UV-I 180 W/m 2,0 C -0,1 C 24,1 km/h (4 Bft) 97,14 %
16.01.2023 14:48 6,8 C 5,0 C 5,6 C 71 % 989,4 hPa 0,0 l/m 18,1 km/h (3 Bft) O-NO 61 2 min 0,000 mm 0,0 UV-I 176 W/m 1,9 C -0,1 C 25,7 km/h (4 Bft) 96,61 %
16.01.2023 14:50 6,8 C 5,0 C 5,6 C 71 % 989,4 hPa 0,0 l/m 16,8 km/h (3 Bft) NO 41 2 min 0,000 mm 0,0 UV-I 173 W/m 1,9 C 0,4 C 27,4 km/h (4 Bft) 92,11 %
16.01.2023 14:52 6,8 C 5,0 C 5,6 C 72 % 989,4 hPa 0,0 l/m 15,0 km/h (3 Bft) O 89 2 min 0,000 mm 0,0 UV-I 169 W/m 2,1 C 1,3 C 22,5 km/h (4 Bft) 96,23 %
16.01.2023 14:54 6,8 C 5,0 C 5,6 C 72 % 989,4 hPa 0,0 l/m 14,4 km/h (3 Bft) NO 50 2 min 0,000 mm 0,0 UV-I 167 W/m 2,1 C 1,5 C 20,9 km/h (4 Bft) 95,74 %
16.01.2023 14:56 6,8 C 5,0 C 5,6 C 72 % 989,3 hPa 0,0 l/m 15,3 km/h (3 Bft) O-NO 74 2 min 0,000 mm 0,0 UV-I 163 W/m 2,1 C 1,1 C 19,3 km/h (3 Bft) 90,91 %
16.01.2023 14:58 6,7 C 5,0 C 5,6 C 72 % 989,2 hPa 0,0 l/m 15,3 km/h (3 Bft) O-NO 70 2 min 0,000 mm 0,0 UV-I 150 W/m 2,0 C 1,0 C 24,1 km/h (4 Bft) 97,73 %
16.01.2023 15:00 6,7 C 5,0 C 5,6 C 72 % 989,2 hPa 0,0 l/m 16,9 km/h (3 Bft) O-NO 77 2 min 0,127 mm 0,0 UV-I 125 W/m 2,0 C 0,3 C 27,4 km/h (4 Bft) 94,00 %
16.01.2023 15:02 6,7 C 5,0 C 5,6 C 71 % 989,3 hPa 0,0 l/m 17,9 km/h (3 Bft) NO 56 2 min 0,000 mm 0,0 UV-I 132 W/m 1,8 C -0,2 C 22,5 km/h (4 Bft) 97,67 %
16.01.2023 15:04 6,7 C 5,0 C 5,6 C 71 % 989,3 hPa 0,0 l/m 18,6 km/h (3 Bft) O-NO 69 0 min 0,000 mm 0,0 UV-I 106 W/m 1,8 C -0,4 C 29,0 km/h (5 Bft) 97,87 %
16.01.2023 15:06 6,6 C 5,0 C 5,6 C 71 % 989,2 hPa 0,0 l/m 18,4 km/h (3 Bft) O-SO 103 0 min 0,000 mm 0,0 UV-I 66 W/m 1,7 C -0,5 C 27,4 km/h (4 Bft) 97,87 %
16.01.2023 15:08 6,6 C 5,0 C 5,0 C 71 % 989,2 hPa 0,0 l/m 19,3 km/h (3 Bft) O-NO 65 0 min 0,000 mm 0,0 UV-I 77 W/m 1,7 C -0,8 C 25,7 km/h (4 Bft) 96,00 %
16.01.2023 15:10 6,5 C 5,0 C 5,0 C 72 % 989,2 hPa 0,0 l/m 11,7 km/h (2 Bft) O-NO 63 0 min 0,000 mm 0,0 UV-I 94 W/m 1,8 C 2,7 C 19,3 km/h (3 Bft) 98,00 %
16.01.2023 15:12 6,5 C 5,0 C 5,0 C 73 % 989,2 hPa 0,0 l/m 11,3 km/h (2 Bft) NO 46 0 min 0,000 mm 0,0 UV-I 86 W/m 2,0 C 2,9 C 17,7 km/h (3 Bft) 96,00 %
16.01.2023 15:14 6,4 C 5,0 C 5,0 C 73 % 989,2 hPa 0,0 l/m 14,7 km/h (3 Bft) NO 47 0 min 0,000 mm 0,0 UV-I 76 W/m 1,9 C 0,9 C 20,9 km/h (4 Bft) 95,12 %
16.01.2023 15:16 6,2 C 5,0 C 5,0 C 74 % 989,2 hPa 0,0 l/m 15,0 km/h (3 Bft) O-NO 76 2 min 0,000 mm 0,0 UV-I 97 W/m 1,9 C 0,5 C 20,9 km/h (4 Bft) 97,87 %
16.01.2023 15:18 6,2 C 5,0 C 5,0 C 74 % 989,2 hPa 0,0 l/m 16,7 km/h (3 Bft) O-NO 72 2 min 0,000 mm 0,0 UV-I 110 W/m 1,9 C -0,3 C 24,1 km/h (4 Bft) 95,74 %
16.01.2023 15:20 6,2 C 5,0 C 5,0 C 73 % 989,2 hPa 0,0 l/m 15,5 km/h (3 Bft) O 83 2 min 0,000 mm 0,0 UV-I 121 W/m 1,7 C 0,3 C 20,9 km/h (4 Bft) 100,00 %
16.01.2023 15:22 6,2 C 5,0 C 5,0 C 73 % 989,1 hPa 0,0 l/m 13,0 km/h (3 Bft) O-NO 74 2 min 0,000 mm 0,0 UV-I 125 W/m 1,7 C 1,6 C 17,7 km/h (3 Bft) 96,77 %
16.01.2023 15:24 6,2 C 5,0 C 5,0 C 74 % 989,1 hPa 0,0 l/m 16,9 km/h (3 Bft) NO 46 2 min 0,000 mm 0,0 UV-I 106 W/m 1,9 C -0,4 C 22,5 km/h (4 Bft) 94,74 %
16.01.2023 15:26 6,1 C 5,0 C 4,4 C 74 % 989,2 hPa 0,0 l/m 12,3 km/h (3 Bft) O-NO 59 0 min 0,000 mm 0,0 UV-I 69 W/m 1,8 C 1,8 C 17,7 km/h (3 Bft) 98,21 %
16.01.2023 15:28 6,0 C 5,0 C 4,4 C 75 % 989,2 hPa 0,0 l/m 11,2 km/h (2 Bft) O-NO 59 0 min 0,000 mm 0,0 UV-I 41 W/m 1,9 C 2,4 C 16,1 km/h (3 Bft) 93,18 %
16.01.2023 15:30 5,8 C 5,0 C 4,4 C 75 % 989,2 hPa 0,0 l/m 11,0 km/h (2 Bft) O-NO 64 0 min 0,000 mm 0,0 UV-I 38 W/m 1,7 C 2,3 C 16,1 km/h (3 Bft) 97,87 %
16.01.2023 15:32 5,7 C 5,0 C 4,4 C 76 % 989,2 hPa 0,0 l/m 15,0 km/h (3 Bft) NO 44 0 min 0,000 mm 0,0 UV-I 35 W/m 1,8 C -0,1 C 24,1 km/h (4 Bft) 97,56 %
16.01.2023 15:34 5,6 C 5,0 C 3,9 C 76 % 989,2 hPa 0,0 l/m 12,4 km/h (3 Bft) O-NO 57 0 min 0,000 mm 0,0 UV-I 32 W/m 1,7 C 1,2 C 22,5 km/h (4 Bft) 96,00 %
16.01.2023 15:36 5,6 C 5,0 C 3,9 C 76 % 989,2 hPa 0,0 l/m 13,7 km/h (3 Bft) NO 50 0 min 0,000 mm 0,0 UV-I 31 W/m 1,7 C 0,5 C 22,5 km/h (4 Bft) 97,56 %
16.01.2023 15:38 5,6 C 5,0 C 3,9 C 76 % 989,1 hPa 0,0 l/m 13,8 km/h (3 Bft) NO 44 0 min 0,000 mm 0,0 UV-I 29 W/m 1,7 C 0,4 C 17,7 km/h (3 Bft) 98,11 %
16.01.2023 15:40 5,5 C 5,0 C 3,9 C 76 % 989,1 hPa 0,0 l/m 14,6 km/h (3 Bft) O-NO 76 0 min 0,000 mm 0,0 UV-I 28 W/m 1,6 C -0,1 C 20,9 km/h (4 Bft) 96,00 %
16.01.2023 15:42 5,5 C 5,0 C 3,9 C 76 % 989,1 hPa 0,0 l/m 12,2 km/h (2 Bft) NO 56 0 min 0,000 mm 0,0 UV-I 28 W/m 1,6 C 1,2 C 16,1 km/h (3 Bft) 97,56 %
16.01.2023 15:44 5,4 C 5,0 C 3,9 C 76 % 989,1 hPa 0,0 l/m 11,7 km/h (2 Bft) O-NO 67 0 min 0,000 mm 0,0 UV-I 26 W/m 1,5 C 1,4 C 17,7 km/h (3 Bft) 97,56 %
16.01.2023 15:46 5,3 C 5,0 C 3,9 C 77 % 989,1 hPa 0,0 l/m 10,9 km/h (2 Bft) O-NO 59 0 min 0,000 mm 0,0 UV-I 26 W/m 1,6 C 1,8 C 17,7 km/h (3 Bft) 98,11 %
16.01.2023 15:48 5,2 C 5,0 C 3,9 C 77 % 989,1 hPa 0,0 l/m 9,6 km/h (2 Bft) N-NO 29 0 min 0,000 mm 0,0 UV-I 26 W/m 1,5 C 2,6 C 14,5 km/h (3 Bft) 97,87 %
16.01.2023 15:50 5,1 C 5,0 C 3,3 C 77 % 989,0 hPa 0,0 l/m 13,6 km/h (3 Bft) NO 53 0 min 0,000 mm 0,0 UV-I 26 W/m 1,4 C -0,1 C 17,7 km/h (3 Bft) 97,87 %
16.01.2023 15:52 5,1 C 5,0 C 3,3 C 78 % 989,1 hPa 0,0 l/m 10,9 km/h (2 Bft) NO 37 0 min 0,000 mm 0,0 UV-I 25 W/m 1,6 C 1,6 C 17,7 km/h (3 Bft) 96,00 %
16.01.2023 15:54 5,1 C 5,0 C 3,3 C 78 % 989,1 hPa 0,0 l/m 7,2 km/h (2 Bft) O 80 0 min 0,000 mm 0,0 UV-I 25 W/m 1,6 C 4,4 C 11,3 km/h (2 Bft) 93,62 %
16.01.2023 15:56 5,1 C 5,0 C 3,3 C 78 % 989,1 hPa 0,0 l/m 6,7 km/h (2 Bft) O-NO 64 0 min 0,000 mm 0,0 UV-I 24 W/m 1,6 C 4,9 C 14,5 km/h (3 Bft) 94,00 %
16.01.2023 15:58 4,9 C 5,0 C 3,3 C 78 % 989,1 hPa 0,0 l/m 11,0 km/h (2 Bft) NO 50 0 min 0,000 mm 0,0 UV-I 23 W/m 1,4 C 1,3 C 17,7 km/h (3 Bft) 94,74 %
16.01.2023 16:00 4,8 C 5,0 C 3,3 C 79 % 989,0 hPa 0,0 l/m 11,9 km/h (2 Bft) NO 43 0 min 0,051 mm 0,0 UV-I 22 W/m 1,5 C 0,6 C 17,7 km/h (3 Bft) 96,00 %
16.01.2023 16:02 4,8 C 5,0 C 3,3 C 79 % 989,1 hPa 0,0 l/m 13,9 km/h (3 Bft) NO 50 0 min 0,000 mm 0,0 UV-I 21 W/m 1,5 C -0,6 C 19,3 km/h (3 Bft) 94,74 %
16.01.2023 16:04 4,8 C 5,0 C 3,3 C 78 % 989,1 hPa 0,0 l/m 10,8 km/h (2 Bft) O 79 0 min 0,000 mm 0,0 UV-I 21 W/m 1,3 C 1,3 C 17,7 km/h (3 Bft) 96,15 %
16.01.2023 16:06 4,9 C 5,0 C 3,3 C 78 % 989,0 hPa 0,0 l/m 9,2 km/h (2 Bft) O 81 0 min 0,000 mm 0,0 UV-I 21 W/m 1,4 C 2,5 C 14,5 km/h (3 Bft) 94,00 %
16.01.2023 16:08 4,9 C 5,0 C 3,3 C 78 % 989,0 hPa 0,0 l/m 7,1 km/h (2 Bft) O-NO 63 0 min 0,000 mm 0,0 UV-I 20 W/m 1,4 C 4,3 C 12,9 km/h (3 Bft) 95,24 %
16.01.2023 16:10 4,8 C 5,0 C 3,3 C 78 % 988,9 hPa 0,0 l/m 8,2 km/h (2 Bft) O-NO 74 0 min 0,000 mm 0,0 UV-I 19 W/m 1,3 C 3,2 C 14,5 km/h (3 Bft) 98,18 %
16.01.2023 16:12 4,8 C 5,0 C 2,8 C 78 % 988,9 hPa 0,0 l/m 6,8 km/h (2 Bft) O-NO 73 0 min 0,000 mm 0,0 UV-I 19 W/m 1,3 C 4,5 C 11,3 km/h (2 Bft) 97,62 %
16.01.2023 16:14 4,7 C 5,0 C 2,8 C 79 % 988,9 hPa 0,0 l/m 6,3 km/h (2 Bft) O-NO 65 0 min 0,000 mm 0,0 UV-I 18 W/m 1,4 C 4,7 C 9,7 km/h (2 Bft) 95,92 %
16.01.2023 16:16 4,7 C 5,0 C 2,8 C 79 % 988,9 hPa 0,0 l/m 6,7 km/h (2 Bft) NO 44 0 min 0,000 mm 0,0 UV-I 17 W/m 1,4 C 4,4 C 12,9 km/h (3 Bft) 97,87 %
16.01.2023 16:18 4,6 C 5,0 C 2,8 C 79 % 988,9 hPa 0,0 l/m 8,2 km/h (2 Bft) O 82 0 min 0,000 mm 0,0 UV-I 16 W/m 1,3 C 3,0 C 12,9 km/h (3 Bft) 97,44 %
16.01.2023 16:20 4,6 C 5,0 C 2,8 C 79 % 988,9 hPa 0,0 l/m 7,4 km/h (2 Bft) O-NO 59 0 min 0,000 mm 0,0 UV-I 15 W/m 1,3 C 3,7 C 16,1 km/h (3 Bft) 96,15 %
16.01.2023 16:22 4,5 C 5,0 C 2,8 C 79 % 988,9 hPa 0,0 l/m 6,7 km/h (2 Bft) O-NO 65 0 min 0,000 mm 0,0 UV-I 13 W/m 1,2 C 4,2 C 12,9 km/h (3 Bft) 96,00 %
16.01.2023 16:24 4,4 C 5,0 C 2,8 C 80 % 988,9 hPa 0,0 l/m 6,7 km/h (2 Bft) O-NO 57 2 min 0,000 mm 0,0 UV-I 12 W/m 1,3 C 4,1 C 8,0 km/h (2 Bft) 95,74 %
16.01.2023 16:26 4,4 C 5,0 C 2,8 C 80 % 988,8 hPa 0,0 l/m 5,1 km/h (1 Bft) NO 54 2 min 0,000 mm 0,0 UV-I 11 W/m 1,3 C 4,4 C 8,0 km/h (2 Bft) 100,00 %
16.01.2023 16:28 4,4 C 5,0 C 2,2 C 80 % 988,8 hPa 0,0 l/m 7,9 km/h (2 Bft) O-NO 73 0 min 0,000 mm 0,0 UV-I 11 W/m 1,3 C 3,1 C 14,5 km/h (3 Bft) 95,31 %
16.01.2023 16:30 4,4 C 5,0 C 2,8 C 79 % 988,8 hPa 0,0 l/m 7,5 km/h (2 Bft) O 85 0 min 0,000 mm 0,0 UV-I 9 W/m 1,1 C 3,4 C 12,9 km/h (3 Bft) 98,11 %
16.01.2023 16:32 4,4 C 5,0 C 2,8 C 79 % 988,8 hPa 0,0 l/m 7,4 km/h (2 Bft) O-NO 67 0 min 0,000 mm 0,0 UV-I 9 W/m 1,1 C 3,5 C 11,3 km/h (2 Bft) 100,00 %
16.01.2023 16:34 4,4 C 5,0 C 2,8 C 79 % 988,8 hPa 0,0 l/m 7,5 km/h (2 Bft) O-NO 62 0 min 0,000 mm 0,0 UV-I 7 W/m 1,1 C 3,4 C 11,3 km/h (2 Bft) 100,00 %
16.01.2023 16:36 4,4 C 5,0 C 2,8 C 79 % 988,8 hPa 0,0 l/m 5,1 km/h (1 Bft) O-NO 63 0 min 0,000 mm 0,0 UV-I 7 W/m 1,1 C 4,4 C 16,1 km/h (3 Bft) 100,00 %
16.01.2023 16:38 4,4 C 5,0 C 2,8 C 79 % 988,8 hPa 0,0 l/m 6,3 km/h (2 Bft) O-NO 69 0 min 0,000 mm 0,0 UV-I 6 W/m 1,1 C 4,4 C 16,1 km/h (3 Bft) 96,23 %
16.01.2023 16:40 4,3 C 5,0 C 2,2 C 79 % 988,8 hPa 0,0 l/m 4,7 km/h (1 Bft) O-NO 69 0 min 0,000 mm 0,0 UV-I 5 W/m 1,0 C 4,3 C 6,4 km/h (2 Bft) 100,00 %
16.01.2023 16:42 4,2 C 5,0 C 2,2 C 80 % 988,8 hPa 0,0 l/m 5,9 km/h (2 Bft) O 81 0 min 0,000 mm 0,0 UV-I 5 W/m 1,1 C 4,2 C 9,7 km/h (2 Bft) 100,00 %
16.01.2023 16:44 4,2 C 5,0 C 2,2 C 80 % 988,8 hPa 0,0 l/m 5,9 km/h (2 Bft) O 88 0 min 0,000 mm 0,0 UV-I 5 W/m 1,1 C 4,2 C 8,0 km/h (2 Bft) 100,00 %
16.01.2023 16:46 4,2 C 5,0 C 2,2 C 80 % 988,8 hPa 0,0 l/m 8,1 km/h (2 Bft) O 93 0 min 0,000 mm 0,0 UV-I 5 W/m 1,1 C 2,7 C 12,9 km/h (3 Bft) 100,00 %
16.01.2023 16:48 4,2 C 5,0 C 2,2 C 80 % 988,8 hPa 0,0 l/m 6,0 km/h (2 Bft) O-NO 74 0 min 0,000 mm 0,0 UV-I 5 W/m 1,1 C 4,2 C 9,7 km/h (2 Bft) 100,00 %
16.01.2023 16:50 4,2 C 5,0 C 2,2 C 80 % 988,8 hPa 0,0 l/m 6,6 km/h (2 Bft) O-NO 63 0 min 0,000 mm 0,0 UV-I 0 W/m 1,1 C 4,0 C 9,7 km/h (2 Bft) 98,00 %
16.01.2023 16:52 4,1 C 5,0 C 2,2 C 80 % 988,8 hPa 0,0 l/m 6,7 km/h (2 Bft) O-NO 67 0 min 0,000 mm 0,0 UV-I 0 W/m 1,0 C 3,8 C 11,3 km/h (2 Bft) 100,00 %
16.01.2023 16:54 4,1 C 5,0 C 2,2 C 81 % 988,8 hPa 0,0 l/m 8,5 km/h (2 Bft) O-NO 68 0 min 0,000 mm 0,0 UV-I 0 W/m 1,1 C 2,2 C 12,9 km/h (3 Bft) 97,73 %
16.01.2023 16:56 4,1 C 5,0 C 2,2 C 81 % 988,7 hPa 0,0 l/m 8,5 km/h (2 Bft) O 91 0 min 0,000 mm 0,0 UV-I 0 W/m 1,1 C 2,2 C 12,9 km/h (3 Bft) 100,00 %
16.01.2023 16:58 4,1 C 5,0 C 2,2 C 81 % 988,7 hPa 0,0 l/m 7,8 km/h (2 Bft) O-NO 69 0 min 0,000 mm 0,0 UV-I 0 W/m 1,1 C 2,8 C 9,7 km/h (2 Bft) 100,00 %
16.01.2023 17:00 4,1 C 5,0 C 2,2 C 80 % 988,7 hPa 0,0 l/m 6,9 km/h (2 Bft) O-NO 65 0 min 0,026 mm 0,0 UV-I 0 W/m 1,0 C 3,7 C 9,7 km/h (2 Bft) 100,00 %
16.01.2023 17:02 4,1 C 5,0 C 2,2 C 81 % 988,7 hPa 0,0 l/m 7,3 km/h (2 Bft) O 98 0 min 0,000 mm 0,0 UV-I 0 W/m 1,1 C 3,3 C 14,5 km/h (3 Bft) 100,00 %
16.01.2023 17:04 4,1 C 5,0 C 2,2 C 81 % 988,8 hPa 0,0 l/m 8,0 km/h (2 Bft) O 98 0 min 0,000 mm 0,0 UV-I 0 W/m 1,1 C 2,7 C 12,9 km/h (3 Bft) 97,37 %
16.01.2023 17:06 4,0 C 5,0 C 2,2 C 81 % 988,8 hPa 0,0 l/m 7,3 km/h (2 Bft) O-NO 70 0 min 0,000 mm 0,0 UV-I 0 W/m 1,0 C 3,2 C 11,3 km/h (2 Bft) 100,00 %
16.01.2023 17:08 4,0 C 5,0 C 2,2 C 81 % 988,8 hPa 0,0 l/m 7,0 km/h (2 Bft) O-NO 66 0 min 0,000 mm 0,0 UV-I 0 W/m 1,0 C 3,5 C 11,3 km/h (2 Bft) 96,00 %
16.01.2023 17:10 4,0 C 5,0 C 2,2 C 81 % 988,8 hPa 0,0 l/m 7,9 km/h (2 Bft) O-NO 70 0 min 0,000 mm 0,0 UV-I 0 W/m 1,0 C 2,6 C 12,9 km/h (3 Bft) 94,74 %
16.01.2023 17:12 3,9 C 5,0 C 2,2 C 81 % 988,7 hPa 0,0 l/m 7,5 km/h (2 Bft) O-NO 67 0 min 0,000 mm 0,0 UV-I 0 W/m 0,9 C 2,9 C 9,7 km/h (2 Bft) 98,11 %
16.01.2023 17:14 3,9 C 5,0 C 2,2 C 81 % 988,8 hPa 0,0 l/m 7,3 km/h (2 Bft) O-NO 78 0 min 0,000 mm 0,0 UV-I 0 W/m 0,9 C 3,1 C 12,9 km/h (3 Bft) 96,23 %
16.01.2023 17:16 3,9 C 5,0 C 2,2 C 81 % 988,7 hPa 0,0 l/m 5,7 km/h (1 Bft) O-NO 76 0 min 0,000 mm 0,0 UV-I 0 W/m 0,9 C 3,9 C 8,0 km/h (2 Bft) 97,56 %
16.01.2023 17:18 3,8 C 5,0 C 2,2 C 81 % 988,8 hPa 0,0 l/m 5,2 km/h (1 Bft) O-NO 69 0 min 0,000 mm 0,0 UV-I 0 W/m 0,8 C 3,8 C 8,0 km/h (2 Bft) 98,11 %
16.01.2023 17:20 3,8 C 5,0 C 2,2 C 81 % 988,8 hPa 0,0 l/m 7,3 km/h (2 Bft) O-NO 61 0 min 0,000 mm 0,0 UV-I 0 W/m 0,8 C 3,0 C 11,3 km/h (2 Bft) 97,87 %
16.01.2023 17:22 3,8 C 5,0 C 2,2 C 81 % 988,8 hPa 0,0 l/m 5,4 km/h (1 Bft) O-NO 67 0 min 0,000 mm 0,0 UV-I 0 W/m 0,8 C 3,8 C 6,4 km/h (2 Bft) 97,14 %
16.01.2023 17:24 3,8 C 5,0 C 2,2 C 81 % 988,8 hPa 0,0 l/m 6,3 km/h (2 Bft) O-NO 74 0 min 0,000 mm 0,0 UV-I 0 W/m 0,8 C 3,8 C 8,0 km/h (2 Bft) 98,00 %
16.01.2023 17:26 3,8 C 5,0 C 2,2 C 82 % 988,8 hPa 0,0 l/m 6,9 km/h (2 Bft) O-NO 70 0 min 0,000 mm 0,0 UV-I 0 W/m 1,0 C 3,3 C 11,3 km/h (2 Bft) 97,87 %
16.01.2023 17:28 3,9 C 5,0 C 2,2 C 81 % 988,8 hPa 0,0 l/m 6,9 km/h (2 Bft) O-NO 65 0 min 0,000 mm 0,0 UV-I 0 W/m 0,9 C 3,4 C 9,7 km/h (2 Bft) 97,87 %
16.01.2023 17:30 3,9 C 5,0 C 2,2 C 81 % 988,7 hPa 0,0 l/m 6,5 km/h (2 Bft) O-NO 60 0 min 0,000 mm 0,0 UV-I 0 W/m 0,9 C 3,8 C 8,0 km/h (2 Bft) 100,00 %
16.01.2023 17:32 3,8 C 5,0 C 2,2 C 81 % 988,7 hPa 0,0 l/m 6,1 km/h (2 Bft) O 80 0 min 0,000 mm 0,0 UV-I 0 W/m 0,8 C 3,8 C 8,0 km/h (2 Bft) 100,00 %
16.01.2023 17:34 3,7 C 5,0 C 2,2 C 82 % 988,7 hPa 0,0 l/m 4,6 km/h (1 Bft) O-NO 72 0 min 0,000 mm 0,0 UV-I 0 W/m 0,9 C 3,7 C 6,4 km/h (2 Bft) 100,00 %
16.01.2023 17:36 3,6 C 5,0 C 1,7 C 82 % 988,7 hPa 0,0 l/m 5,3 km/h (1 Bft) O-NO 59 0 min 0,000 mm 0,0 UV-I 0 W/m 0,8 C 3,6 C 6,4 km/h (2 Bft) 100,00 %
16.01.2023 17:38 3,6 C 5,0 C 1,7 C 82 % 988,6 hPa 0,0 l/m 4,5 km/h (1 Bft) O-NO 66 0 min 0,000 mm 0,0 UV-I 0 W/m 0,8 C 3,6 C 6,4 km/h (2 Bft) 100,00 %
16.01.2023 17:40 3,7 C 5,0 C 1,1 C 83 % 988,6 hPa 0,0 l/m 4,8 km/h (1 Bft) O-NO 69 0 min 0,000 mm 0,0 UV-I 0 W/m 1,1 C 3,7 C 6,4 km/h (2 Bft) 100,00 %
16.01.2023 17:42 3,7 C 5,0 C 1,1 C 82 % 988,6 hPa 0,0 l/m 5,3 km/h (1 Bft) O 95 0 min 0,000 mm 0,0 UV-I 0 W/m 0,9 C 3,7 C 9,7 km/h (2 Bft) 96,00 %
16.01.2023 17:44 3,6 C 5,0 C 1,1 C 82 % 988,7 hPa 0,0 l/m 7,1 km/h (2 Bft) O-NO 78 0 min 0,000 mm 0,0 UV-I 0 W/m 0,8 C 3,0 C 11,3 km/h (2 Bft) 100,00 %
16.01.2023 17:46 3,7 C 5,0 C 1,1 C 82 % 988,7 hPa 0,0 l/m 7,8 km/h (2 Bft) O 81 0 min 0,000 mm 0,0 UV-I 0 W/m 0,9 C 2,4 C 11,3 km/h (2 Bft) 100,00 %
16.01.2023 17:48 3,7 C 5,0 C 1,1 C 82 % 988,7 hPa 0,0 l/m 6,4 km/h (2 Bft) O 98 0 min 0,000 mm 0,0 UV-I 0 W/m 0,9 C 3,7 C 11,3 km/h (2 Bft) 100,00 %
16.01.2023 17:50 3,7 C 5,0 C 1,1 C 82 % 988,7 hPa 0,0 l/m 7,2 km/h (2 Bft) O 95 0 min 0,000 mm 0,0 UV-I 0 W/m 0,9 C 3,0 C 11,3 km/h (2 Bft) 100,00 %
16.01.2023 17:52 3,7 C 5,0 C 1,1 C 81 % 988,7 hPa 0,0 l/m 7,4 km/h (2 Bft) O 93 0 min 0,000 mm 0,0 UV-I 0 W/m 0,7 C 2,8 C 11,3 km/h (2 Bft) 100,00 %
16.01.2023 17:54 3,7 C 5,0 C 1,1 C 81 % 988,7 hPa 0,0 l/m 8,4 km/h (2 Bft) O 96 0 min 0,000 mm 0,0 UV-I 0 W/m 0,7 C 1,9 C 11,3 km/h (2 Bft) 100,00 %
16.01.2023 17:56 3,7 C 5,0 C 1,1 C 82 % 988,7 hPa 0,0 l/m 6,5 km/h (2 Bft) O-NO 74 0 min 0,000 mm 0,0 UV-I 0 W/m 0,9 C 3,6 C 11,3 km/h (2 Bft) 100,00 %
16.01.2023 17:58 3,6 C 5,0 C 1,1 C 82 % 988,7 hPa 0,0 l/m 6,3 km/h (2 Bft) O 88 0 min 0,000 mm 0,0 UV-I 0 W/m 0,8 C 3,6 C 11,3 km/h (2 Bft) 100,00 %
16.01.2023 18:00 3,6 C 5,0 C 1,1 C 82 % 988,7 hPa 0,0 l/m 6,1 km/h (2 Bft) O 92 0 min 0,025 mm 0,0 UV-I 0 W/m 0,8 C 3,6 C 9,7 km/h (2 Bft) 100,00 %
16.01.2023 18:02 3,6 C 5,0 C 1,1 C 82 % 988,6 hPa 0,0 l/m 6,7 km/h (2 Bft) O 101 0 min 0,000 mm 0,0 UV-I 0 W/m 0,8 C 3,3 C 11,3 km/h (2 Bft) 97,67 %
16.01.2023 18:04 3,6 C 5,0 C 1,1 C 82 % 988,6 hPa 0,0 l/m 6,8 km/h (2 Bft) O-NO 78 0 min 0,000 mm 0,0 UV-I 0 W/m 0,8 C 3,2 C 8,0 km/h (2 Bft) 97,87 %
16.01.2023 18:06 3,6 C 5,0 C 1,1 C 82 % 988,7 hPa 0,0 l/m 5,7 km/h (1 Bft) O 101 0 min 0,000 mm 0,0 UV-I 0 W/m 0,8 C 3,6 C 9,7 km/h (2 Bft) 98,11 %
16.01.2023 18:08 3,6 C 5,0 C 1,1 C 82 % 988,6 hPa 0,0 l/m 5,7 km/h (1 Bft) O 95 0 min 0,000 mm 0,0 UV-I 0 W/m 0,8 C 3,6 C 9,7 km/h (2 Bft) 96,00 %
16.01.2023 18:10 3,4 C 5,0 C 1,1 C 82 % 988,6 hPa 0,0 l/m 5,5 km/h (1 Bft) O-NO 69 0 min 0,000 mm 0,0 UV-I 0 W/m 0,6 C 3,4 C 9,7 km/h (2 Bft) 97,56 %
16.01.2023 18:12 3,4 C 5,0 C 1,1 C 83 % 988,6 hPa 0,0 l/m 5,8 km/h (2 Bft) O-NO 74 0 min 0,000 mm 0,0 UV-I 0 W/m 0,8 C 3,4 C 8,0 km/h (2 Bft) 98,00 %
16.01.2023 18:14 3,4 C 5,0 C 1,1 C 83 % 988,6 hPa 0,0 l/m 5,5 km/h (1 Bft) O-NO 74 0 min 0,000 mm 0,0 UV-I 0 W/m 0,8 C 3,4 C 8,0 km/h (2 Bft) 94,74 %
16.01.2023 18:16 3,4 C 5,0 C 1,1 C 83 % 988,6 hPa 0,0 l/m 5,6 km/h (1 Bft) O-NO 76 0 min 0,000 mm 0,0 UV-I 0 W/m 0,8 C 3,4 C 9,7 km/h (2 Bft) 98,00 %
16.01.2023 18:18 3,3 C 5,0 C 1,1 C 83 % 988,6 hPa 0,0 l/m 4,6 km/h (1 Bft) O-NO 65 0 min 0,000 mm 0,0 UV-I 0 W/m 0,7 C 3,3 C 6,4 km/h (2 Bft) 98,11 %
16.01.2023 18:20 3,2 C 5,0 C 1,1 C 83 % 988,6 hPa 0,0 l/m 3,2 km/h (1 Bft) O-NO 64 0 min 0,000 mm 0,0 UV-I 0 W/m 0,6 C 3,2 C 4,8 km/h (1 Bft) 95,12 %
16.01.2023 18:22 3,1 C 5,0 C 1,1 C 84 % 988,7 hPa 0,0 l/m 4,4 km/h (1 Bft) O-NO 63 0 min 0,000 mm 0,0 UV-I 0 W/m 0,7 C 3,1 C 8,0 km/h (2 Bft) 94,00 %
16.01.2023 18:24 3,1 C 5,0 C 1,1 C 84 % 988,6 hPa 0,0 l/m 3,7 km/h (1 Bft) O-NO 63 0 min 0,000 mm 0,0 UV-I 0 W/m 0,7 C 3,1 C 4,8 km/h (1 Bft) 92,59 %
16.01.2023 18:26 3,1 C 5,0 C 1,1 C 84 % 988,6 hPa 0,0 l/m 2,7 km/h (1 Bft) O-NO 63 0 min 0,000 mm 0,0 UV-I 0 W/m 0,7 C 3,1 C 4,8 km/h (1 Bft) 92,19 %
16.01.2023 18:28 3,1 C 5,0 C 1,1 C 84 % 988,6 hPa 0,0 l/m 2,0 km/h (1 Bft) O-NO 63 0 min 0,000 mm 0,0 UV-I 0 W/m 0,7 C 3,1 C 3,2 km/h (1 Bft) 96,23 %
16.01.2023 18:30 3,0 C 5,0 C 1,1 C 84 % 988,7 hPa 0,0 l/m 0,5 km/h (0 Bft) O-NO 63 0 min 0,000 mm 0,0 UV-I 0 W/m 0,6 C 3,0 C 1,6 km/h (1 Bft) 95,74 %
16.01.2023 18:32 2,9 C 5,0 C 1,1 C 84 % 988,7 hPa 0,0 l/m 0,0 km/h (0 Bft) O-NO 63 0 min 0,000 mm 0,0 UV-I 0 W/m 0,5 C 2,9 C 0,0 km/h (0 Bft) 93,62 %
16.01.2023 18:34 2,8 C 5,0 C 0,6 C 85 % 988,7 hPa 0,0 l/m 0,0 km/h (0 Bft) O-NO 63 0 min 0,000 mm 0,0 UV-I 0 W/m 0,5 C 2,8 C 0,0 km/h (0 Bft) 94,74 %
16.01.2023 18:36 2,8 C 5,0 C 0,6 C 85 % 988,7 hPa 0,0 l/m 1,0 km/h (0 Bft) O-NO 63 0 min 0,000 mm 0,0 UV-I 0 W/m 0,5 C 2,8 C 3,2 km/h (1 Bft) 98,00 %
16.01.2023 18:38 2,7 C 5,0 C 0,6 C 86 % 988,7 hPa 0,0 l/m 0,3 km/h (0 Bft) O-NO 63 0 min 0,000 mm 0,0 UV-I 0 W/m 0,6 C 2,7 C 1,6 km/h (1 Bft) 95,74 %
16.01.2023 18:40 2,6 C 5,0 C 0,6 C 86 % 988,8 hPa 0,0 l/m 0,0 km/h (0 Bft) O-NO 63 0 min 0,000 mm 0,0 UV-I 0 W/m 0,5 C 2,6 C 0,0 km/h (0 Bft) 100,00 %
16.01.2023 18:42 2,6 C 5,0 C 0,6 C 87 % 988,7 hPa 0,0 l/m 0,0 km/h (0 Bft) O-NO 63 0 min 0,000 mm 0,0 UV-I 0 W/m 0,7 C 2,6 C 0,0 km/h (0 Bft) 97,87 %
16.01.2023 18:44 2,7 C 5,0 C 0,6 C 87 % 988,7 hPa 0,0 l/m 0,0 km/h (0 Bft) O-NO 63 0 min 0,000 mm 0,0 UV-I 0 W/m 0,8 C 2,7 C 0,0 km/h (0 Bft) 100,00 %
16.01.2023 18:46 2,6 C 5,0 C 0,6 C 86 % 988,7 hPa 0,0 l/m 0,0 km/h (0 Bft) O-NO 63 0 min 0,000 mm 0,0 UV-I 0 W/m 0,5 C 2,6 C 0,0 km/h (0 Bft) 100,00 %
16.01.2023 18:48 2,5 C 5,0 C 0,6 C 87 % 988,7 hPa 0,0 l/m 0,0 km/h (0 Bft) O-NO 63 0 min 0,000 mm 0,0 UV-I 0 W/m 0,6 C 2,5 C 0,0 km/h (0 Bft) 97,56 %
16.01.2023 18:50 2,4 C 5,0 C 0,6 C 87 % 988,7 hPa 0,0 l/m 0,2 km/h (0 Bft) O-NO 63 0 min 0,000 mm 0,0 UV-I 0 W/m 0,5 C 2,4 C 1,6 km/h (1 Bft) 97,87 %
16.01.2023 18:52 2,4 C 5,0 C 0,6 C 87 % 988,6 hPa 0,0 l/m 0,0 km/h (0 Bft) O-NO 63 0 min 0,000 mm 0,0 UV-I 0 W/m 0,5 C 2,4 C 0,0 km/h (0 Bft) 95,74 %
16.01.2023 18:54 2,4 C 5,0 C 0,6 C 87 % 988,6 hPa 0,0 l/m 0,0 km/h (0 Bft) O-NO 63 0 min 0,000 mm 0,0 UV-I 0 W/m 0,5 C 2,4 C 0,0 km/h (0 Bft) 97,87 %
16.01.2023 18:56 2,5 C 5,0 C 0,6 C 87 % 988,6 hPa 0,0 l/m 0,0 km/h (0 Bft) O-NO 63 0 min 0,000 mm 0,0 UV-I 0 W/m 0,6 C 2,5 C 0,0 km/h (0 Bft) 97,87 %
16.01.2023 18:58 2,4 C 5,0 C 1,1 C 87 % 988,6 hPa 0,0 l/m 0,0 km/h (0 Bft) O-NO 63 0 min 0,000 mm 0,0 UV-I 0 W/m 0,5 C 2,4 C 1,6 km/h (1 Bft) 98,00 %
16.01.2023 19:00 2,3 C 5,0 C 1,1 C 87 % 988,7 hPa 0,0 l/m 0,0 km/h (0 Bft) O-SO 117 0 min 0,000 mm 0,0 UV-I 0 W/m 0,4 C 2,3 C 0,0 km/h (0 Bft) 97,56 %
16.01.2023 19:02 2,3 C 5,0 C 1,1 C 88 % 988,7 hPa 0,0 l/m 2,2 km/h (1 Bft) SO 134 0 min 0,000 mm 0,0 UV-I 0 W/m 0,5 C 2,3 C 3,2 km/h (1 Bft) 95,92 %
16.01.2023 19:04 2,3 C 5,0 C 1,1 C 88 % 988,7 hPa 0,0 l/m 2,4 km/h (1 Bft) SO 136 0 min 0,000 mm 0,0 UV-I 0 W/m 0,5 C 2,3 C 3,2 km/h (1 Bft) 97,87 %
16.01.2023 19:06 2,3 C 5,0 C 0,6 C 88 % 988,7 hPa 0,0 l/m 1,0 km/h (0 Bft) SO 146 0 min 0,000 mm 0,0 UV-I 0 W/m 0,5 C 2,3 C 3,2 km/h (1 Bft) 95,12 %
16.01.2023 19:08 2,4 C 5,0 C 0,6 C 88 % 988,7 hPa 0,0 l/m 0,0 km/h (0 Bft) SO 146 0 min 0,000 mm 0,0 UV-I 0 W/m 0,6 C 2,4 C 0,0 km/h (0 Bft) 98,00 %
16.01.2023 19:10 2,4 C 5,0 C 0,6 C 88 % 988,7 hPa 0,0 l/m 0,0 km/h (0 Bft) SO 146 0 min 0,000 mm 0,0 UV-I 0 W/m 0,6 C 2,4 C 0,0 km/h (0 Bft) 98,11 %
16.01.2023 19:12 2,4 C 5,0 C 0,6 C 88 % 988,7 hPa 0,0 l/m 0,0 km/h (0 Bft) SO 146 0 min 0,000 mm 0,0 UV-I 0 W/m 0,6 C 2,4 C 0,0 km/h (0 Bft) 97,37 %
16.01.2023 19:14 2,4 C 5,0 C 0,6 C 88 % 988,7 hPa 0,0 l/m 0,0 km/h (0 Bft) SO 146 0 min 0,000 mm 0,0 UV-I 0 W/m 0,6 C 2,4 C 0,0 km/h (0 Bft) 98,00 %
16.01.2023 19:16 2,4 C 5,0 C 0,6 C 88 % 988,6 hPa 0,0 l/m 0,0 km/h (0 Bft) SO 146 0 min 0,000 mm 0,0 UV-I 0 W/m 0,6 C 2,4 C 0,0 km/h (0 Bft) 96,00 %
16.01.2023 19:18 2,3 C 5,0 C 0,6 C 88 % 988,5 hPa 0,0 l/m 0,0 km/h (0 Bft) SO 146 0 min 0,000 mm 0,0 UV-I 0 W/m 0,5 C 2,3 C 0,0 km/h (0 Bft) 98,00 %
16.01.2023 19:20 2,3 C 5,0 C 0,6 C 88 % 988,6 hPa 0,0 l/m 0,0 km/h (0 Bft) SO 146 0 min 0,000 mm 0,0 UV-I 0 W/m 0,5 C 2,3 C 0,0 km/h (0 Bft) 95,74 %
16.01.2023 19:22 2,2 C 5,0 C 0,6 C 89 % 988,5 hPa 0,0 l/m 0,0 km/h (0 Bft) SO 146 0 min 0,000 mm 0,0 UV-I 0 W/m 0,6 C 2,2 C 0,0 km/h (0 Bft) 97,37 %
16.01.2023 19:24 2,2 C 5,0 C 0,6 C 89 % 988,6 hPa 0,0 l/m 0,0 km/h (0 Bft) SO 146 0 min 0,000 mm 0,0 UV-I 0 W/m 0,6 C 2,2 C 0,0 km/h (0 Bft) 93,62 %
16.01.2023 19:26 2,2 C 5,0 C 0,6 C 89 % 988,5 hPa 0,0 l/m 0,0 km/h (0 Bft) SO 146 0 min 0,000 mm 0,0 UV-I 0 W/m 0,6 C 2,2 C 0,0 km/h (0 Bft) 98,00 %
16.01.2023 19:28 2,3 C 5,0 C 0,6 C 89 % 988,4 hPa 0,0 l/m 0,8 km/h (0 Bft) SO 146 0 min 0,000 mm 0,0 UV-I 0 W/m 0,7 C 2,3 C 3,2 km/h (1 Bft) 98,11 %
16.01.2023 19:30 2,3 C 5,0 C 0,0 C 88 % 988,4 hPa 0,0 l/m 2,5 km/h (1 Bft) SO 146 0 min 0,000 mm 0,0 UV-I 0 W/m 0,5 C 2,3 C 3,2 km/h (1 Bft) 95,83 %
16.01.2023 19:32 2,4 C 5,0 C 0,0 C 88 % 988,4 hPa 0,0 l/m 2,7 km/h (1 Bft) SO 146 0 min 0,000 mm 0,0 UV-I 0 W/m 0,6 C 2,4 C 3,2 km/h (1 Bft) 98,57 %
16.01.2023 19:34 2,4 C 5,0 C 0,0 C 87 % 988,4 hPa 0,0 l/m 3,4 km/h (1 Bft) SO 130 0 min 0,000 mm 0,0 UV-I 0 W/m 0,5 C 2,4 C 4,8 km/h (1 Bft) 93,62 %
16.01.2023 19:36 2,4 C 5,0 C 0,0 C 87 % 988,4 hPa 0,0 l/m 2,5 km/h (1 Bft) SO 127 0 min 0,000 mm 0,0 UV-I 0 W/m 0,5 C 2,4 C 3,2 km/h (1 Bft) 95,74 %
16.01.2023 19:38 2,4 C 5,0 C 0,0 C 87 % 988,4 hPa 0,0 l/m 1,9 km/h (1 Bft) SO 127 0 min 0,000 mm 0,0 UV-I 0 W/m 0,5 C 2,4 C 3,2 km/h (1 Bft) 97,37 %
16.01.2023 19:40 2,4 C 5,0 C 0,0 C 87 % 988,4 hPa 0,0 l/m 2,6 km/h (1 Bft) O-SO 106 0 min 0,000 mm 0,0 UV-I 0 W/m 0,5 C 2,4 C 4,8 km/h (1 Bft) 95,74 %
16.01.2023 19:42 2,4 C 5,0 C 0,0 C 87 % 988,4 hPa 0,0 l/m 3,3 km/h (1 Bft) O 96 0 min 0,000 mm 0,0 UV-I 0 W/m 0,5 C 2,4 C 4,8 km/h (1 Bft) 95,74 %
16.01.2023 19:44 2,4 C 5,0 C -0,6 C 87 % 988,4 hPa 0,0 l/m 2,2 km/h (1 Bft) O 96 0 min 0,000 mm 0,0 UV-I 0 W/m 0,5 C 2,4 C 4,8 km/h (1 Bft) 96,23 %
16.01.2023 19:46 2,4 C 5,0 C -0,6 C 87 % 988,4 hPa 0,0 l/m 1,7 km/h (1 Bft) O 96 0 min 0,000 mm 0,0 UV-I 0 W/m 0,5 C 2,4 C 3,2 km/h (1 Bft) 94,74 %
16.01.2023 19:48 2,4 C 5,0 C -0,6 C 87 % 988,3 hPa 0,0 l/m 3,5 km/h (1 Bft) O 94 0 min 0,000 mm 0,0 UV-I 0 W/m 0,5 C 2,4 C 4,8 km/h (1 Bft) 94,00 %
16.01.2023 19:50 2,3 C 5,0 C -0,6 C 87 % 988,3 hPa 0,0 l/m 2,7 km/h (1 Bft) O 94 0 min 0,000 mm 0,0 UV-I 0 W/m 0,4 C 2,3 C 4,8 km/h (1 Bft) 95,74 %
16.01.2023 19:52 2,3 C 5,0 C -0,6 C 87 % 988,4 hPa 0,0 l/m 2,6 km/h (1 Bft) O 94 0 min 0,000 mm 0,0 UV-I 0 W/m 0,4 C 2,3 C 4,8 km/h (1 Bft) 96,00 %
16.01.2023 19:54 2,3 C 5,0 C -0,6 C 87 % 988,3 hPa 0,0 l/m 3,9 km/h (1 Bft) O-NO 77 0 min 0,000 mm 0,0 UV-I 0 W/m 0,4 C 2,3 C 6,4 km/h (2 Bft) 93,62 %
16.01.2023 19:56 2,2 C 5,0 C -0,6 C 88 % 988,2 hPa 0,0 l/m 4,8 km/h (1 Bft) O-NO 74 0 min 0,000 mm 0,0 UV-I 0 W/m 0,4 C 2,2 C 6,4 km/h (2 Bft) 100,00 %
16.01.2023 19:58 2,2 C 5,0 C -0,6 C 88 % 988,3 hPa 0,0 l/m 4,2 km/h (1 Bft) O-NO 78 0 min 0,000 mm 0,0 UV-I 0 W/m 0,4 C 2,2 C 6,4 km/h (2 Bft) 100,00 %
16.01.2023 20:00 2,2 C 5,0 C -0,6 C 88 % 988,4 hPa 0,0 l/m 2,8 km/h (1 Bft) O-NO 78 0 min 0,000 mm 0,0 UV-I 0 W/m 0,4 C 2,2 C 4,8 km/h (1 Bft) 100,00 %
16.01.2023 20:02 2,1 C 5,0 C -0,6 C 88 % 988,4 hPa 0,0 l/m 2,5 km/h (1 Bft) O 81 0 min 0,000 mm 0,0 UV-I 0 W/m 0,3 C 2,1 C 4,8 km/h (1 Bft) 98,08 %
16.01.2023 20:04 2,1 C 5,0 C -0,6 C 88 % 988,4 hPa 0,0 l/m 3,7 km/h (1 Bft) O 88 0 min 0,000 mm 0,0 UV-I 0 W/m 0,3 C 2,1 C 4,8 km/h (1 Bft) 100,00 %
16.01.2023 20:06 2,1 C 5,0 C -0,6 C 88 % 988,4 hPa 0,0 l/m 4,3 km/h (1 Bft) O 92 0 min 0,000 mm 0,0 UV-I 0 W/m 0,3 C 2,1 C 6,4 km/h (2 Bft) 100,00 %
16.01.2023 20:08 2,1 C 5,0 C -0,6 C 88 % 988,3 hPa 0,0 l/m 5,6 km/h (1 Bft) O 90 0 min 0,000 mm 0,0 UV-I 0 W/m 0,3 C 2,1 C 9,7 km/h (2 Bft) 100,00 %
16.01.2023 20:10 2,1 C 5,0 C 0,0 C 88 % 988,3 hPa 0,0 l/m 4,2 km/h (1 Bft) O-NO 77 0 min 0,000 mm 0,0 UV-I 0 W/m 0,3 C 2,1 C 6,4 km/h (2 Bft) 97,37 %
16.01.2023 20:12 2,2 C 5,0 C 0,0 C 88 % 988,2 hPa 0,0 l/m 4,6 km/h (1 Bft) O 88 0 min 0,000 mm 0,0 UV-I 0 W/m 0,4 C 2,2 C 6,4 km/h (2 Bft) 97,87 %
16.01.2023 20:14 2,2 C 5,0 C 0,0 C 88 % 988,2 hPa 0,0 l/m 4,7 km/h (1 Bft) O 97 0 min 0,000 mm 0,0 UV-I 0 W/m 0,4 C 2,2 C 6,4 km/h (2 Bft) 98,11 %
16.01.2023 20:16 2,2 C 5,0 C 0,0 C 88 % 988,1 hPa 0,0 l/m 6,0 km/h (2 Bft) O 99 0 min 0,000 mm 0,0 UV-I 0 W/m 0,4 C 2,2 C 9,7 km/h (2 Bft) 96,00 %
16.01.2023 20:18 2,2 C 5,0 C 0,0 C 88 % 988,1 hPa 0,0 l/m 6,3 km/h (2 Bft) O-SO 111 0 min 0,000 mm 0,0 UV-I 0 W/m 0,4 C 2,2 C 9,7 km/h (2 Bft) 97,37 %
16.01.2023 20:20 2,2 C 5,0 C 0,6 C 88 % 988,1 hPa 0,0 l/m 6,0 km/h (2 Bft) O-SO 103 0 min 0,000 mm 0,0 UV-I 0 W/m 0,4 C 2,2 C 9,7 km/h (2 Bft) 95,74 %
16.01.2023 20:22 2,2 C 5,0 C 0,6 C 88 % 988,2 hPa 0,0 l/m 4,4 km/h (1 Bft) O-SO 107 0 min 0,000 mm 0,0 UV-I 0 W/m 0,4 C 2,2 C 9,7 km/h (2 Bft) 98,00 %
16.01.2023 20:24 2,2 C 5,0 C 0,6 C 88 % 988,3 hPa 0,0 l/m 3,2 km/h (1 Bft) O 98 0 min 0,000 mm 0,0 UV-I 0 W/m 0,4 C 2,2 C 6,4 km/h (2 Bft) 95,74 %
16.01.2023 20:26 2,3 C 5,0 C 0,6 C 88 % 988,3 hPa 0,0 l/m 1,6 km/h (1 Bft) O 98 0 min 0,000 mm 0,0 UV-I 0 W/m 0,5 C 2,3 C 3,2 km/h (1 Bft) 95,74 %
16.01.2023 20:28 2,2 C 5,0 C 0,6 C 87 % 988,3 hPa 0,0 l/m 0,2 km/h (0 Bft) O 98 0 min 0,000 mm 0,0 UV-I 0 W/m 0,3 C 2,2 C 3,2 km/h (1 Bft) 98,00 %
16.01.2023 20:30 2,2 C 5,0 C 0,6 C 88 % 988,3 hPa 0,0 l/m 2,8 km/h (1 Bft) O 98 0 min 0,000 mm 0,0 UV-I 0 W/m 0,4 C 2,2 C 4,8 km/h (1 Bft) 97,87 %
16.01.2023 20:32 2,3 C 5,0 C 0,6 C 88 % 988,3 hPa 0,0 l/m 0,9 km/h (0 Bft) O 98 0 min 0,000 mm 0,0 UV-I 0 W/m 0,5 C 2,3 C 3,2 km/h (1 Bft) 95,74 %
16.01.2023 20:34 2,3 C 5,0 C 0,6 C 87 % 988,4 hPa 0,0 l/m 0,0 km/h (0 Bft) O 98 0 min 0,000 mm 0,0 UV-I 0 W/m 0,4 C 2,3 C 0,0 km/h (0 Bft) 95,74 %
16.01.2023 20:36 2,2 C 5,0 C 0,6 C 87 % 988,4 hPa 0,0 l/m 0,0 km/h (0 Bft) O 98 0 min 0,000 mm 0,0 UV-I 0 W/m 0,3 C 2,2 C 0,0 km/h (0 Bft) 97,14 %
16.01.2023 20:38 2,1 C 5,0 C 0,6 C 88 % 988,3 hPa 0,0 l/m 0,0 km/h (0 Bft) O 98 0 min 0,000 mm 0,0 UV-I 0 W/m 0,3 C 2,1 C 0,0 km/h (0 Bft) 98,00 %
16.01.2023 20:40 2,1 C 5,0 C 0,6 C 88 % 988,4 hPa 0,0 l/m 0,7 km/h (0 Bft) O 98 0 min 0,000 mm 0,0 UV-I 0 W/m 0,3 C 2,1 C 1,6 km/h (1 Bft) 96,43 %
16.01.2023 20:42 2,1 C 5,0 C 0,6 C 88 % 988,4 hPa 0,0 l/m 0,0 km/h (0 Bft) O 98 0 min 0,000 mm 0,0 UV-I 0 W/m 0,3 C 2,1 C 0,0 km/h (0 Bft) 97,87 %
16.01.2023 20:44 2,0 C 5,0 C 0,6 C 88 % 988,3 hPa 0,0 l/m 0,0 km/h (0 Bft) O 98 0 min 0,000 mm 0,0 UV-I 0 W/m 0,2 C 2,0 C 0,0 km/h (0 Bft) 97,37 %
16.01.2023 20:46 1,9 C 5,0 C 0,6 C 89 % 988,2 hPa 0,0 l/m 0,0 km/h (0 Bft) O 98 0 min 0,000 mm 0,0 UV-I 0 W/m 0,3 C 1,9 C 0,0 km/h (0 Bft) 100,00 %
16.01.2023 20:48 1,9 C 5,0 C 0,6 C 89 % 988,0 hPa 0,0 l/m 2,3 km/h (1 Bft) O 81 0 min 0,000 mm 0,0 UV-I 0 W/m 0,3 C 1,9 C 6,4 km/h (2 Bft) 92,00 %
16.01.2023 20:50 1,9 C 5,0 C 0,6 C 89 % 988,0 hPa 0,0 l/m 4,5 km/h (1 Bft) O 79 0 min 0,000 mm 0,0 UV-I 0 W/m 0,3 C 1,9 C 6,4 km/h (2 Bft) 97,87 %
16.01.2023 20:52 2,0 C 5,0 C 1,1 C 89 % 988,2 hPa 0,0 l/m 2,2 km/h (1 Bft) O 84 0 min 0,000 mm 0,0 UV-I 0 W/m 0,4 C 2,0 C 4,8 km/h (1 Bft) 100,00 %
16.01.2023 20:54 2,1 C 5,0 C 0,6 C 89 % 988,3 hPa 0,0 l/m 0,0 km/h (0 Bft) O 84 0 min 0,000 mm 0,0 UV-I 0 W/m 0,5 C 2,1 C 0,0 km/h (0 Bft) 95,45 %
16.01.2023 20:56 2,1 C 5,0 C 1,1 C 89 % 988,3 hPa 0,0 l/m 0,0 km/h (0 Bft) O 84 0 min 0,000 mm 0,0 UV-I 0 W/m 0,5 C 2,1 C 0,0 km/h (0 Bft) 96,00 %
16.01.2023 20:58 2,1 C 5,0 C 1,1 C 89 % 988,3 hPa 0,0 l/m 0,0 km/h (0 Bft) O 84 0 min 0,000 mm 0,0 UV-I 0 W/m 0,5 C 2,1 C 0,0 km/h (0 Bft) 97,22 %
16.01.2023 21:00 2,0 C 5,0 C 0,6 C 89 % 988,3 hPa 0,0 l/m 0,0 km/h (0 Bft) O 84 0 min 0,000 mm 0,0 UV-I 0 W/m 0,4 C 2,0 C 0,0 km/h (0 Bft) 95,08 %
16.01.2023 21:02 2,0 C 5,0 C 0,6 C 89 % 988,3 hPa 0,0 l/m 0,0 km/h (0 Bft) O 84 0 min 0,000 mm 0,0 UV-I 0 W/m 0,4 C 2,0 C 0,0 km/h (0 Bft) 97,96 %
16.01.2023 21:04 1,9 C 5,0 C 0,6 C 89 % 988,2 hPa 0,0 l/m 0,6 km/h (0 Bft) O 84 0 min 0,000 mm 0,0 UV-I 0 W/m 0,3 C 1,9 C 3,2 km/h (1 Bft) 95,74 %
16.01.2023 21:06 1,9 C 5,0 C 1,1 C 89 % 988,0 hPa 0,0 l/m 7,0 km/h (2 Bft) O-NO 61 0 min 0,000 mm 0,0 UV-I 0 W/m 0,3 C 1,3 C 11,3 km/h (2 Bft) 97,56 %
16.01.2023 21:08 2,0 C 5,0 C 1,1 C 90 % 987,9 hPa 0,0 l/m 8,2 km/h (2 Bft) NO 40 0 min 0,000 mm 0,0 UV-I 0 W/m 0,5 C 0,3 C 9,7 km/h (2 Bft) 98,00 %
16.01.2023 21:10 1,9 C 5,0 C 1,1 C 89 % 988,0 hPa 0,0 l/m 8,8 km/h (2 Bft) N-NO 30 0 min 0,000 mm 0,0 UV-I 0 W/m 0,3 C -0,4 C 11,3 km/h (2 Bft) 100,00 %
16.01.2023 21:12 1,9 C 5,0 C 1,1 C 89 % 988,0 hPa 0,0 l/m 4,6 km/h (1 Bft) N-NO 30 0 min 0,000 mm 0,0 UV-I 0 W/m 0,3 C 1,9 C 8,0 km/h (2 Bft) 100,00 %
16.01.2023 21:14 1,8 C 5,0 C 0,6 C 90 % 988,1 hPa 0,0 l/m 3,9 km/h (1 Bft) NO 51 0 min 0,000 mm 0,0 UV-I 0 W/m 0,3 C 1,8 C 6,4 km/h (2 Bft) 100,00 %
16.01.2023 21:16 1,8 C 5,0 C 0,6 C 90 % 988,4 hPa 0,0 l/m 1,2 km/h (1 Bft) W-NW 299 0 min 0,000 mm 0,0 UV-I 0 W/m 0,3 C 1,8 C 4,8 km/h (1 Bft) 100,00 %
16.01.2023 21:18 1,7 C 5,0 C 0,6 C 90 % 988,5 hPa 0,0 l/m 6,5 km/h (2 Bft) SW 221 0 min 0,000 mm 0,0 UV-I 0 W/m 0,2 C 1,6 C 8,0 km/h (2 Bft) 100,00 %
16.01.2023 21:20 1,6 C 5,0 C 0,6 C 90 % 988,4 hPa 0,0 l/m 2,6 km/h (1 Bft) SW 219 0 min 0,000 mm 0,0 UV-I 0 W/m 0,1 C 1,6 C 6,4 km/h (2 Bft) 100,00 %
16.01.2023 21:22 1,5 C 5,0 C 0,0 C 90 % 988,4 hPa 0,0 l/m 0,0 km/h (0 Bft) SW 219 0 min 0,000 mm 0,0 UV-I 0 W/m 0,0 C 1,5 C 0,0 km/h (0 Bft) 100,00 %
16.01.2023 21:24 1,4 C 5,0 C 0,0 C 90 % 988,4 hPa 0,0 l/m 0,3 km/h (0 Bft) SW 219 0 min 0,000 mm 0,0 UV-I 0 W/m -0,1 C 1,4 C 1,6 km/h (1 Bft) 97,87 %
16.01.2023 21:26 1,4 C 5,0 C 0,0 C 91 % 988,4 hPa 0,0 l/m 1,2 km/h (1 Bft) SW 219 0 min 0,000 mm 0,0 UV-I 0 W/m 0,1 C 1,4 C 3,2 km/h (1 Bft) 100,00 %
16.01.2023 21:28 1,3 C 5,0 C 0,0 C 91 % 988,4 hPa 0,0 l/m 0,0 km/h (0 Bft) SW 219 0 min 0,000 mm 0,0 UV-I 0 W/m -0,0 C 1,3 C 0,0 km/h (0 Bft) 100,00 %
16.01.2023 21:30 1,3 C 5,0 C 0,0 C 91 % 988,4 hPa 0,0 l/m 0,0 km/h (0 Bft) SW 219 0 min 0,000 mm 0,0 UV-I 0 W/m -0,0 C 1,3 C 0,0 km/h (0 Bft) 97,87 %
16.01.2023 21:33 1,3 C 5,0 C -0,6 C 91 % 988,4 hPa 0,0 l/m 0,9 km/h (0 Bft) SW 219 0 min 0,000 mm 0,0 UV-I 0 W/m -0,0 C 1,3 C 3,2 km/h (1 Bft) 98,65 %
16.01.2023 21:34 1,3 C 5,0 C -0,6 C 91 % 988,4 hPa 0,0 l/m 0,0 km/h (0 Bft) SW 219 0 min 0,000 mm 0,0 UV-I 0 W/m -0,0 C 1,3 C 0,0 km/h (0 Bft) 100,00 %
16.01.2023 21:36 1,3 C 5,0 C -0,6 C 91 % 988,4 hPa 0,0 l/m 0,0 km/h (0 Bft) SW 219 0 min 0,000 mm 0,0 UV-I 0 W/m -0,0 C 1,3 C 0,0 km/h (0 Bft) 97,92 %
16.01.2023 21:38 1,3 C 5,0 C -0,6 C 92 % 988,4 hPa 0,0 l/m 0,0 km/h (0 Bft) SW 219 0 min 0,000 mm 0,0 UV-I 0 W/m 0,1 C 1,3 C 0,0 km/h (0 Bft) 97,96 %
16.01.2023 21:40 1,3 C 5,0 C -1,1 C 91 % 988,3 hPa 0,0 l/m 0,0 km/h (0 Bft) SW 219 0 min 0,000 mm 0,0 UV-I 0 W/m -0,0 C 1,3 C 0,0 km/h (0 Bft) 95,74 %
16.01.2023 21:42 1,2 C 5,0 C -1,1 C 91 % 988,3 hPa 0,0 l/m 0,0 km/h (0 Bft) SW 219 0 min 0,000 mm 0,0 UV-I 0 W/m -0,1 C 1,2 C 1,6 km/h (1 Bft) 100,00 %
16.01.2023 21:44 1,2 C 5,0 C -1,1 C 91 % 988,4 hPa 0,0 l/m 2,6 km/h (1 Bft) SW 220 0 min 0,000 mm 0,0 UV-I 0 W/m -0,1 C 1,2 C 4,8 km/h (1 Bft) 95,74 %
16.01.2023 21:46 1,2 C 5,0 C -0,6 C 91 % 988,3 hPa 0,0 l/m 2,8 km/h (1 Bft) SW 221 0 min 0,000 mm 0,0 UV-I 0 W/m -0,1 C 1,2 C 3,2 km/h (1 Bft) 97,87 %
16.01.2023 21:48 1,1 C 5,0 C -0,6 C 91 % 988,3 hPa 0,0 l/m 1,4 km/h (1 Bft) SW 221 0 min 0,000 mm 0,0 UV-I 0 W/m -0,2 C 1,1 C 3,2 km/h (1 Bft) 100,00 %
16.01.2023 21:50 1,1 C 5,0 C -0,6 C 92 % 988,2 hPa 0,0 l/m 2,4 km/h (1 Bft) NW 319 0 min 0,000 mm 0,0 UV-I 0 W/m -0,1 C 1,1 C 6,4 km/h (2 Bft) 97,44 %
16.01.2023 21:52 1,0 C 5,0 C -0,6 C 92 % 988,3 hPa 0,0 l/m 2,1 km/h (1 Bft) NW 321 0 min 0,000 mm 0,0 UV-I 0 W/m -0,2 C 1,0 C 4,8 km/h (1 Bft) 100,00 %
16.01.2023 21:54 1,1 C 5,0 C -0,6 C 92 % 988,3 hPa 0,0 l/m 3,3 km/h (1 Bft) NW 322 0 min 0,000 mm 0,0 UV-I 0 W/m -0,1 C 1,1 C 4,8 km/h (1 Bft) 100,00 %
16.01.2023 21:56 1,1 C 5,0 C -0,6 C 92 % 988,4 hPa 0,0 l/m 3,3 km/h (1 Bft) NW 323 0 min 0,000 mm 0,0 UV-I 0 W/m -0,1 C 1,1 C 4,8 km/h (1 Bft) 100,00 %
16.01.2023 21:58 1,1 C 5,0 C -0,6 C 92 % 988,4 hPa 0,0 l/m 0,5 km/h (0 Bft) NW 323 0 min 0,000 mm 0,0 UV-I 0 W/m -0,1 C 1,1 C 3,2 km/h (1 Bft) 100,00 %
16.01.2023 22:00 1,1 C 5,0 C -0,6 C 92 % 988,4 hPa 0,0 l/m 0,5 km/h (0 Bft) NW 323 0 min 0,000 mm 0,0 UV-I 0 W/m -0,1 C 1,1 C 1,6 km/h (1 Bft) 100,00 %
16.01.2023 22:02 1,0 C 5,0 C -0,6 C 92 % 988,3 hPa 0,0 l/m 0,0 km/h (0 Bft) NW 324 0 min 0,000 mm 0,0 UV-I 0 W/m -0,2 C 1,0 C 0,0 km/h (0 Bft) 91,84 %
16.01.2023 22:04 1,0 C 5,0 C -0,6 C 92 % 988,4 hPa 0,0 l/m 0,3 km/h (0 Bft) NW 324 0 min 0,000 mm 0,0 UV-I 0 W/m -0,2 C 1,0 C 3,2 km/h (1 Bft) 97,96 %
16.01.2023 22:06 1,0 C 5,0 C -1,1 C 92 % 988,5 hPa 0,0 l/m 0,6 km/h (0 Bft) NW 324 0 min 0,000 mm 0,0 UV-I 0 W/m -0,2 C 1,0 C 3,2 km/h (1 Bft) 95,74 %
16.01.2023 22:08 1,0 C 5,0 C -1,1 C 92 % 988,5 hPa 0,0 l/m 1,7 km/h (1 Bft) NW 324 0 min 0,000 mm 0,0 UV-I 0 W/m -0,2 C 1,0 C 3,2 km/h (1 Bft) 97,62 %
16.01.2023 22:10 0,9 C 5,0 C -1,1 C 92 % 988,5 hPa 0,0 l/m 1,0 km/h (0 Bft) NW 324 0 min 0,000 mm 0,0 UV-I 0 W/m -0,2 C 0,9 C 3,2 km/h (1 Bft) 97,87 %
16.01.2023 22:12 0,9 C 4,4 C -0,6 C 92 % 988,6 hPa 0,0 l/m 1,4 km/h (1 Bft) NW 323 0 min 0,000 mm 0,0 UV-I 0 W/m -0,2 C 0,9 C 3,2 km/h (1 Bft) 97,37 %
16.01.2023 22:14 0,9 C 4,4 C -0,6 C 92 % 988,7 hPa 0,0 l/m 2,6 km/h (1 Bft) NW 323 0 min 0,000 mm 0,0 UV-I 0 W/m -0,2 C 0,9 C 3,2 km/h (1 Bft) 95,31 %
16.01.2023 22:16 0,9 C 4,4 C -0,6 C 92 % 988,7 hPa 0,0 l/m 2,9 km/h (1 Bft) W-NW 285 0 min 0,000 mm 0,0 UV-I 0 W/m -0,2 C 0,9 C 4,8 km/h (1 Bft) 97,44 %
16.01.2023 22:18 0,9 C 4,4 C -0,6 C 92 % 988,7 hPa 0,0 l/m 1,5 km/h (1 Bft) W-NW 285 0 min 0,000 mm 0,0 UV-I 0 W/m -0,2 C 0,9 C 3,2 km/h (1 Bft) 96,00 %
16.01.2023 22:20 0,8 C 4,4 C -0,6 C 92 % 988,7 hPa 0,0 l/m 1,1 km/h (1 Bft) W-NW 285 0 min 0,000 mm 0,0 UV-I 0 W/m -0,3 C 0,8 C 3,2 km/h (1 Bft) 95,74 %
16.01.2023 22:22 0,8 C 4,4 C -0,6 C 92 % 988,8 hPa 0,0 l/m 1,7 km/h (1 Bft) W 271 0 min 0,000 mm 0,0 UV-I 0 W/m -0,3 C 0,8 C 3,2 km/h (1 Bft) 97,87 %
16.01.2023 22:24 0,8 C 4,4 C 0,0 C 92 % 988,8 hPa 0,0 l/m 1,7 km/h (1 Bft) W 270 0 min 0,000 mm 0,0 UV-I 0 W/m -0,3 C 0,8 C 3,2 km/h (1 Bft) 98,00 %
16.01.2023 22:26 0,8 C 4,4 C 0,0 C 93 % 988,9 hPa 0,0 l/m 2,0 km/h (1 Bft) W 270 0 min 0,000 mm 0,0 UV-I 0 W/m -0,2 C 0,8 C 3,2 km/h (1 Bft) 94,74 %
16.01.2023 22:28 0,8 C 4,4 C 0,0 C 93 % 989,0 hPa 0,0 l/m 3,3 km/h (1 Bft) W 270 0 min 0,000 mm 0,0 UV-I 0 W/m -0,2 C 0,8 C 4,8 km/h (1 Bft) 94,00 %
16.01.2023 22:30 0,8 C 4,4 C 0,0 C 93 % 989,1 hPa 0,0 l/m 4,2 km/h (1 Bft) W 263 0 min 0,000 mm 0,0 UV-I 0 W/m -0,2 C 0,8 C 4,8 km/h (1 Bft) 97,87 %
16.01.2023 22:32 0,8 C 4,4 C 0,0 C 93 % 989,1 hPa 0,0 l/m 3,5 km/h (1 Bft) W-SW 246 0 min 0,000 mm 0,0 UV-I 0 W/m -0,2 C 0,8 C 4,8 km/h (1 Bft) 96,00 %
16.01.2023 22:34 0,8 C 4,4 C 0,0 C 93 % 989,1 hPa 0,0 l/m 3,2 km/h (1 Bft) S-SW 207 0 min 0,000 mm 0,0 UV-I 0 W/m -0,2 C 0,8 C 4,8 km/h (1 Bft) 97,87 %
16.01.2023 22:36 0,8 C 4,4 C 0,0 C 93 % 989,1 hPa 0,0 l/m 5,3 km/h (1 Bft) S-SO 159 0 min 0,000 mm 0,0 UV-I 0 W/m -0,2 C 0,8 C 8,0 km/h (2 Bft) 95,12 %
16.01.2023 22:38 0,7 C 4,4 C 0,0 C 93 % 989,4 hPa 0,0 l/m 2,9 km/h (1 Bft) S 183 0 min 0,000 mm 0,0 UV-I 0 W/m -0,3 C 0,7 C 3,2 km/h (1 Bft) 96,00 %
16.01.2023 22:40 0,7 C 4,4 C 0,0 C 93 % 989,4 hPa 0,0 l/m 2,5 km/h (1 Bft) S-SW 211 0 min 0,000 mm 0,0 UV-I 0 W/m -0,3 C 0,7 C 4,8 km/h (1 Bft) 96,00 %
16.01.2023 22:42 0,7 C 4,4 C 0,0 C 93 % 989,5 hPa 0,0 l/m 2,8 km/h (1 Bft) S-SW 212 0 min 0,000 mm 0,0 UV-I 0 W/m -0,3 C 0,7 C 4,8 km/h (1 Bft) 94,00 %
16.01.2023 22:44 0,8 C 4,4 C 0,0 C 93 % 989,5 hPa 0,0 l/m 3,4 km/h (1 Bft) S-SW 213 0 min 0,000 mm 0,0 UV-I 0 W/m -0,2 C 0,8 C 4,8 km/h (1 Bft) 97,56 %
16.01.2023 22:46 0,8 C 4,4 C 0,0 C 93 % 989,6 hPa 0,0 l/m 3,9 km/h (1 Bft) SW 215 0 min 0,000 mm 0,0 UV-I 0 W/m -0,2 C 0,8 C 4,8 km/h (1 Bft) 90,57 %
16.01.2023 22:48 0,8 C 4,4 C 0,0 C 93 % 989,5 hPa 0,0 l/m 4,5 km/h (1 Bft) S-SW 193 0 min 0,000 mm 0,0 UV-I 0 W/m -0,2 C 0,8 C 6,4 km/h (2 Bft) 97,14 %
16.01.2023 22:50 0,9 C 5,0 C 0,0 C 93 % 989,5 hPa 0,0 l/m 5,0 km/h (1 Bft) S 190 0 min 0,000 mm 0,0 UV-I 0 W/m -0,1 C 0,9 C 6,4 km/h (2 Bft) 96,00 %
16.01.2023 22:52 0,8 C 5,0 C 0,0 C 93 % 989,5 hPa 0,0 l/m 2,8 km/h (1 Bft) S 190 0 min 0,000 mm 0,0 UV-I 0 W/m -0,2 C 0,8 C 4,8 km/h (1 Bft) 94,00 %
16.01.2023 22:54 0,8 C 5,0 C 0,0 C 93 % 989,6 hPa 0,0 l/m 2,5 km/h (1 Bft) S 190 0 min 0,000 mm 0,0 UV-I 0 W/m -0,2 C 0,8 C 3,2 km/h (1 Bft) 94,00 %
16.01.2023 22:56 0,8 C 4,4 C 0,0 C 93 % 989,5 hPa 0,0 l/m 4,0 km/h (1 Bft) S 190 0 min 0,000 mm 0,0 UV-I 0 W/m -0,2 C 0,8 C 6,4 km/h (2 Bft) 96,00 %
16.01.2023 22:58 0,8 C 4,4 C 0,0 C 93 % 989,5 hPa 0,0 l/m 4,8 km/h (1 Bft) S-SW 196 0 min 0,000 mm 0,0 UV-I 0 W/m -0,2 C 0,8 C 6,4 km/h (2 Bft) 95,74 %
16.01.2023 23:00 0,9 C 4,4 C 0,0 C 93 % 989,7 hPa 0,0 l/m 3,2 km/h (1 Bft) S-SW 196 0 min 0,000 mm 0,0 UV-I 0 W/m -0,1 C 0,9 C 6,4 km/h (2 Bft) 97,14 %
16.01.2023 23:02 1,0 C 4,4 C 0,0 C 93 % 989,7 hPa 0,0 l/m 2,8 km/h (1 Bft) S-SW 196 0 min 0,000 mm 0,0 UV-I 0 W/m -0,0 C 1,0 C 3,2 km/h (1 Bft) 94,44 %
16.01.2023 23:04 1,0 C 4,4 C 0,0 C 93 % 989,8 hPa 0,0 l/m 2,8 km/h (1 Bft) S-SW 194 0 min 0,000 mm 0,0 UV-I 0 W/m -0,0 C 1,0 C 4,8 km/h (1 Bft) 96,00 %
16.01.2023 23:06 1,1 C 4,4 C 0,0 C 93 % 989,8 hPa 0,0 l/m 4,0 km/h (1 Bft) S-SW 196 0 min 0,000 mm 0,0 UV-I 0 W/m 0,1 C 1,1 C 6,4 km/h (2 Bft) 97,37 %
16.01.2023 23:08 1,1 C 4,4 C 0,0 C 93 % 989,9 hPa 0,0 l/m 4,0 km/h (1 Bft) S-SW 200 0 min 0,000 mm 0,0 UV-I 0 W/m 0,1 C 1,1 C 6,4 km/h (2 Bft) 96,23 %
16.01.2023 23:10 1,1 C 4,4 C 0,0 C 93 % 989,9 hPa 0,0 l/m 4,6 km/h (1 Bft) S-SW 199 0 min 0,000 mm 0,0 UV-I 0 W/m 0,1 C 1,1 C 6,4 km/h (2 Bft) 93,62 %
16.01.2023 23:12 1,1 C 4,4 C 0,0 C 93 % 990,0 hPa 0,0 l/m 3,5 km/h (1 Bft) S-SW 200 0 min 0,000 mm 0,0 UV-I 0 W/m 0,1 C 1,1 C 6,4 km/h (2 Bft) 98,00 %
16.01.2023 23:14 1,1 C 4,4 C 0,0 C 93 % 990,0 hPa 0,0 l/m 3,4 km/h (1 Bft) S-SW 204 0 min 0,000 mm 0,0 UV-I 0 W/m 0,1 C 1,1 C 4,8 km/h (1 Bft) 95,12 %
16.01.2023 23:16 1,0 C 4,4 C 0,0 C 93 % 989,9 hPa 0,0 l/m 2,6 km/h (1 Bft) S-SW 204 0 min 0,000 mm 0,0 UV-I 0 W/m -0,0 C 1,0 C 4,8 km/h (1 Bft) 96,00 %
16.01.2023 23:18 1,0 C 4,4 C 0,0 C 93 % 989,9 hPa 0,0 l/m 2,6 km/h (1 Bft) S-SW 204 0 min 0,000 mm 0,0 UV-I 0 W/m -0,0 C 1,0 C 3,2 km/h (1 Bft) 93,62 %
16.01.2023 23:20 0,9 C 4,4 C 0,0 C 93 % 989,9 hPa 0,0 l/m 3,1 km/h (1 Bft) S-SW 204 0 min 0,000 mm 0,0 UV-I 0 W/m -0,1 C 0,9 C 4,8 km/h (1 Bft) 96,00 %
16.01.2023 23:22 0,9 C 4,4 C 0,0 C 93 % 990,0 hPa 0,0 l/m 3,5 km/h (1 Bft) S-SW 205 0 min 0,000 mm 0,0 UV-I 0 W/m -0,1 C 0,9 C 4,8 km/h (1 Bft) 94,74 %
16.01.2023 23:24 0,9 C 4,4 C -0,6 C 93 % 990,0 hPa 0,0 l/m 2,9 km/h (1 Bft) S-SW 205 0 min 0,000 mm 0,0 UV-I 0 W/m -0,1 C 0,9 C 4,8 km/h (1 Bft) 98,00 %
16.01.2023 23:26 0,9 C 4,4 C -0,6 C 93 % 990,0 hPa 0,0 l/m 2,8 km/h (1 Bft) S-SW 204 0 min 0,000 mm 0,0 UV-I 0 W/m -0,1 C 0,9 C 4,8 km/h (1 Bft) 95,12 %
16.01.2023 23:28 0,9 C 4,4 C -0,6 C 93 % 989,9 hPa 0,0 l/m 3,4 km/h (1 Bft) S 188 0 min 0,000 mm 0,0 UV-I 0 W/m -0,1 C 0,9 C 4,8 km/h (1 Bft) 93,62 %
16.01.2023 23:30 0,9 C 4,4 C -0,6 C 93 % 989,9 hPa 0,0 l/m 4,1 km/h (1 Bft) S-SW 196 0 min 0,000 mm 0,0 UV-I 0 W/m -0,1 C 0,9 C 6,4 km/h (2 Bft) 96,00 %
16.01.2023 23:32 0,9 C 4,4 C -0,6 C 93 % 989,9 hPa 0,0 l/m 3,4 km/h (1 Bft) S-SW 200 0 min 0,000 mm 0,0 UV-I 0 W/m -0,1 C 0,9 C 4,8 km/h (1 Bft) 93,62 %
16.01.2023 23:34 0,8 C 4,4 C -0,6 C 93 % 989,8 hPa 0,0 l/m 4,3 km/h (1 Bft) S-SW 193 0 min 0,000 mm 0,0 UV-I 0 W/m -0,2 C 0,8 C 4,8 km/h (1 Bft) 94,00 %
16.01.2023 23:36 0,9 C 4,4 C -0,6 C 93 % 989,8 hPa 0,0 l/m 5,1 km/h (1 Bft) S-SW 205 0 min 0,000 mm 0,0 UV-I 0 W/m -0,1 C 0,9 C 8,0 km/h (2 Bft) 97,87 %
16.01.2023 23:38 0,9 C 4,4 C 0,0 C 93 % 989,8 hPa 0,0 l/m 5,7 km/h (1 Bft) S-SW 199 0 min 0,000 mm 0,0 UV-I 0 W/m -0,1 C 0,9 C 8,0 km/h (2 Bft) 98,00 %
16.01.2023 23:40 0,9 C 4,4 C 0,0 C 93 % 989,9 hPa 0,0 l/m 4,7 km/h (1 Bft) S 181 0 min 0,000 mm 0,0 UV-I 0 W/m -0,1 C 0,9 C 8,0 km/h (2 Bft) 97,37 %
16.01.2023 23:42 0,9 C 4,4 C 0,0 C 93 % 989,8 hPa 0,0 l/m 6,3 km/h (2 Bft) S-SW 198 0 min 0,000 mm 0,0 UV-I 0 W/m -0,1 C 0,9 C 8,0 km/h (2 Bft) 100,00 %
16.01.2023 23:44 1,0 C 4,4 C 0,0 C 93 % 989,9 hPa 0,0 l/m 6,4 km/h (2 Bft) S-SW 205 0 min 0,000 mm 0,0 UV-I 0 W/m -0,0 C 1,0 C 11,3 km/h (2 Bft) 100,00 %
16.01.2023 23:46 1,1 C 4,4 C 0,0 C 93 % 989,8 hPa 0,0 l/m 6,9 km/h (2 Bft) S 180 0 min 0,000 mm 0,0 UV-I 0 W/m 0,1 C 0,6 C 9,7 km/h (2 Bft) 100,00 %
16.01.2023 23:48 1,1 C 4,4 C 0,0 C 93 % 989,8 hPa 0,0 l/m 6,2 km/h (2 Bft) S-SW 203 0 min 0,000 mm 0,0 UV-I 0 W/m 0,1 C 1,1 C 9,7 km/h (2 Bft) 100,00 %
16.01.2023 23:50 1,1 C 4,4 C 0,0 C 93 % 989,8 hPa 0,0 l/m 6,3 km/h (2 Bft) S-SW 207 0 min 0,000 mm 0,0 UV-I 0 W/m 0,1 C 1,1 C 9,7 km/h (2 Bft) 100,00 %
16.01.2023 23:52 1,2 C 4,4 C 0,0 C 93 % 989,8 hPa 0,0 l/m 5,9 km/h (2 Bft) S-SW 200 0 min 0,000 mm 0,0 UV-I 0 W/m 0,2 C 1,2 C 8,0 km/h (2 Bft) 100,00 %
16.01.2023 23:54 1,2 C 4,4 C 0,6 C 93 % 989,7 hPa 0,0 l/m 6,4 km/h (2 Bft) S-SW 202 0 min 0,000 mm 0,0 UV-I 0 W/m 0,2 C 1,2 C 9,7 km/h (2 Bft) 100,00 %
16.01.2023 23:56 1,2 C 4,4 C 0,6 C 93 % 989,7 hPa 0,0 l/m 6,9 km/h (2 Bft) S-SW 200 0 min 0,000 mm 0,0 UV-I 0 W/m 0,2 C 0,7 C 11,3 km/h (2 Bft) 100,00 %
16.01.2023 23:58 1,2 C 4,4 C 0,6 C 93 % 989,7 hPa 0,0 l/m 6,5 km/h (2 Bft) S-SW 204 0 min 0,000 mm 0,0 UV-I 0 W/m 0,2 C 1,1 C 8,0 km/h (2 Bft) 100,00 %
_ Min-Zeit 08:16 22:12 21:40 12:26 21:08 - 03:54 - - - - - - 22:20 09:08 03:54 06:32
Minimum _ 0,7 C 4,4 C -1,1 C 62 % 987,9 hPa - 0,0 km/h (0 Bft) - - - - - - -0,3 C -3,4 C 0,0 km/h (0 Bft) 89,36 %
_ Max-Zeit 12:20 00:00 12:10 05:36 00:00 00:00 13:04 - - 08:34 13:02 11:20 12:00 13:52 15:56 12:32 00:00
Maximum _ 7,3 C 5,0 C 7,2 C 94 % 1009,8 hPa 0,0 l/m 25,3 km/h
O-NO (4 Bft)
- - 2 min 0,204 mm 0,6 UV-I 330 W/m 2,3 C 4,9 C 35,4 km/h
O (5 Bft)
100,00 %
Durchschnitt _ 3,1 C 5,0 C 1,8 C 85 % 996,5 hPa #0,0 l/m 7,9 km/h (2 Bft) O-NO - #6:36 h #1,016 mm 0,6 UV-I 185 W/m 0,7 C 1,0 C 11,6 km/h (2 Bft) 97,12 %